[[{"header":{"parameterUnit":"m.s-1","parameterCategory":1,"la1":30.6,"la2":28.766,"lo1":-90.7593,"lo2":-88.6598,"dx":0.0162,"dy":0.0183,"nx":116,"ny":114,"refTime":"2022-12-01T06:00:00:Z","depth":0,"parameterNumber":2,"parameterNumberName":"U-component_of_WINDS"},"data":[0.0,0.0,0.0,0.0,0.0,0.0,0.0,0.0,0.0,0.0,0.0,0.0,0.0,0.0,0.0,0.0,0.0,0.0,0.0,0.0,0.0,0.0,0.0,0.0,0.0,0.0,0.0,0.0,0.0,0.0,0.0,0.0,0.0,0.0,0.0,0.0,0.0,0.0,0.0,0.0,0.0,0.0,0.0,0.0,0.0,0.0,0.0,0.0,0.0,0.0,0.0,0.0,0.0,0.0,0.0,0.0,0.0,0.0,0.0,0.0,0.0,0.0,0.0,0.0,0.0,0.0,0.0,0.0,0.0,0.0,0.0,0.0,0.0,0.0,0.0,0.0,0.0,0.0,0.0,0.0,0.0,0.0,0.0,0.0,0.0,0.0,0.0,0.0,0.0,0.0,0.0,0.0,0.0,0.0,0.0,0.0,0.0,0.0,0.0,0.0,0.0,0.0,0.0,0.0,0.0,0.0,0.0,0.0,0.0,0.0,0.0,0.0,0.0,0.0,0.0,0.0,0.0,0.0,0.0,0.0,0.0,0.0,0.0,0.0,0.0,0.0,0.0,0.0,0.0,0.0,0.0,0.0,0.0,0.0,0.0,0.0,0.0,0.0,0.0,0.0,0.0,0.0,0.0,0.0,0.0,0.0,0.0,0.0,0.0,0.0,0.0,0.0,0.0,0.0,0.0,0.0,0.0,0.0,0.0,0.0,0.0,0.0,0.0,0.0,0.0,0.0,0.0,0.0,0.0,0.0,0.0,0.0,0.0,0.0,0.0,0.0,0.0,0.0,0.0,0.0,0.0,0.0,0.0,0.0,0.0,0.0,0.0,0.0,0.0,0.0,0.0,0.0,0.0,0.0,0.0,0.0,0.0,0.0,0.0,0.0,0.0,0.0,0.0,0.0,0.0,0.0,0.0,0.0,0.0,0.0,0.0,0.0,0.0,0.0,0.0,0.0,0.0,0.0,0.0,0.0,0.0,0.0,0.0,0.0,0.0,0.0,0.0,0.0,0.0,0.0,0.0,0.0,0.0,0.0,0.0,0.0,0.0,0.0,0.0,0.0,0.0,0.0,0.0,0.0,0.0,0.0,0.0,0.0,0.0,0.0,0.0,0.0,0.0,0.0,0.0,0.0,0.0,0.0,0.0,0.0,0.0,0.0,0.0,0.0,0.0,0.0,0.0,0.0,0.0,0.0,0.0,0.0,0.0,0.0,0.0,0.0,0.0,0.0,0.0,0.0,0.0,0.0,0.0,0.0,0.0,0.0,0.0,0.0,0.0,0.0,0.0,0.0,0.0,0.0,0.0,0.0,0.0,0.0,0.0,0.0,0.0,0.0,0.0,0.0,0.0,0.0,0.0,0.0,0.0,0.0,0.0,0.0,0.0,0.0,0.0,0.0,0.0,0.0,0.0,0.0,0.0,0.0,0.0,0.0,0.0,0.0,0.0,0.0,0.0,0.0,0.0,0.0,0.0,0.0,0.0,0.0,0.0,0.0,0.0,0.0,0.0,0.0,0.0,0.0,0.0,0.0,0.0,0.0,0.0,0.0,0.0,0.0,0.0,0.0,0.0,0.0,0.0,0.0,0.0,0.0,0.0,0.0,0.0,0.0,0.0,0.0,0.0,0.0,0.0,0.0,0.0,0.0,0.0,0.0,0.0,0.0,0.0,0.0,0.0,0.0,0.0,0.0,0.0,0.0,0.0,0.0,0.0,0.0,0.0,0.0,0.0,0.0,0.0,0.0,0.0,0.0,0.0,0.0,0.0,0.0,0.0,0.0,0.0,0.0,0.0,0.0,0.0,0.0,0.0,0.0,0.0,0.0,0.0,0.0,0.0,0.0,0.0,0.0,0.0,0.0,0.0,0.0,0.0,0.0,0.0,0.0,0.0,0.0,0.0,0.0,0.0,0.0,0.0,0.0,0.0,0.0,0.0,0.0,0.0,0.0,0.0,0.0,0.0,0.0,0.0,0.0,0.0,0.0,0.0,0.0,0.0,0.0,0.0,0.0,0.0,0.0,0.0,0.0,0.0,0.0,0.0,0.0,0.0,0.0,0.0,0.0,0.0,0.0,0.0,0.0,0.0,0.0,0.0,0.0,0.0,0.0,0.0,0.0,0.0,0.0,0.0,0.0,0.0,0.0,0.0,0.0,0.0,0.0,0.0,0.0,0.0,0.0,0.0,0.0,0.0,0.0,0.0,0.0,0.0,0.0,0.0,0.0,0.0,0.0,0.0,0.0,0.0,0.0,0.0,0.0,0.0,0.0,0.0,0.0,0.0,0.0,0.0,0.0,0.0,0.0,0.0,0.0,0.0,0.0,0.0,0.0,0.0,0.0,0.0,0.0,0.0,0.0,0.0,0.0,0.0,0.0,0.0,0.0,0.0,0.0,0.0,0.0,0.0,0.0,0.0,0.0,0.0,0.0,0.0,0.0,0.0,0.0,0.0,0.0,0.0,0.0,0.0,0.0,0.0,0.0,0.0,0.0,0.0,0.0,0.0,0.0,0.0,0.0,0.0,0.0,0.0,0.0,0.0,0.0,0.0,0.0,0.0,0.0,0.0,0.0,0.0,0.0,0.0,0.0,0.0,0.0,0.0,0.0,0.0,0.0,0.0,0.0,0.0,0.0,0.0,0.0,0.0,0.0,0.0,0.0,0.0,0.0,0.0,0.0,0.0,0.0,0.0,0.0,0.0,0.0,0.0,0.0,0.0,0.0,0.0,0.0,0.0,0.0,0.0,0.0,0.0,0.0,0.0,0.0,0.0,0.0,0.0,0.0,0.0,0.0,0.0,0.0,0.0,0.0,0.0,0.0,0.0,0.0,0.0,0.0,0.0,0.0,0.0,0.0,0.0,0.0,0.0,0.0,0.0,0.0,0.0,0.0,0.0,0.0,0.0,0.0,0.0,0.0,0.0,0.0,0.0,0.0,0.0,0.0,0.0,0.0,0.0,0.0,0.0,0.0,0.0,0.0,0.0,0.0,0.0,0.0,0.0,0.0,0.0,0.0,0.0,0.0,0.0,0.0,0.0,0.0,0.0,0.0,0.0,0.0,0.0,0.0,0.0,0.0,0.0,0.0,0.0,0.0,0.0,0.0,0.0,0.0,0.0,0.0,0.0,0.0,0.0,0.0,0.0,0.0,0.0,0.0,0.0,0.0,0.0,0.0,0.0,0.0,0.0,0.0,0.0,0.0,0.0,0.0,0.0,0.0,0.0,0.0,0.0,0.0,0.0,0.0,0.0,0.0,0.0,0.0,0.0,0.0,0.0,0.0,0.0,0.0,0.0,0.0,0.0,0.0,0.0,0.0,0.0,0.0,0.0,0.0,0.0,0.0,0.0,0.0,0.0,0.0,0.0,0.0,0.0,0.0,0.0,0.0,0.0,0.0,0.0,0.0,0.0,0.0,0.0,0.0,0.0,0.0,0.0,0.0,0.0,0.0,0.0,0.0,0.0,0.0,0.0,0.0,0.0,0.0,0.0,0.0,0.0,0.0,0.0,0.0,0.0,0.0,0.0,0.0,0.0,0.0,0.0,0.0,0.0,0.0,0.0,0.0,0.0,0.0,0.0,0.0,0.0,0.0,0.0,0.0,0.0,0.0,0.0,0.0,0.0,0.0,0.0,0.0,0.0,0.0,0.0,0.0,0.0,0.0,0.0,0.0,0.0,0.0,0.0,0.0,0.0,0.0,0.0,0.0,0.0,0.0,0.0,0.0,0.0,0.0,0.0,0.0,0.0,0.0,0.0,0.0,0.0,0.0,0.0,0.0,0.0,0.0,0.0,0.0,0.0,0.0,0.0,0.0,0.0,0.0,0.0,0.0,0.0,0.0,0.0,0.0,0.0,0.0,0.0,0.0,0.0,0.0,0.0,0.0,0.0,0.0,0.0,0.0,0.0,0.0,0.0,0.0,0.0,0.0,0.0,0.0,0.0,0.0,0.0,0.0,0.0,0.0,0.0,0.0,0.0,0.0,0.0,0.0,0.0,0.0,0.0,0.0,0.0,0.0,0.0,0.0,0.0,0.0,0.0,0.0,0.0,0.0,0.0,0.0,0.0,0.0,0.0,0.0,0.0,0.0,0.0,0.0,0.0,0.0,0.0,0.0,0.0,0.0,0.0,0.0,0.0,0.0,0.0,0.0,0.0,0.0,0.0,0.0,0.0,0.0,0.0,0.0,0.0,0.0,0.0,0.0,0.0,0.0,0.0,0.0,0.0,0.0,0.0,0.0,0.0,0.0,0.0,0.0,0.0,0.0,0.0,0.0,0.0,0.0,0.0,0.0,0.0,0.0,0.0,0.0,0.0,0.0,0.0,0.0,0.0,0.0,0.0,0.0,0.0,0.0,0.0,0.0,0.0,0.0,0.0,0.0,0.0,0.0,0.0,0.0,0.0,0.0,0.0,0.0,0.0,0.0,0.0,0.0,0.0,0.0,0.0,0.0,0.0,0.0,0.0,0.0,0.0,0.0,0.0,0.0,0.0,0.0,0.0,0.0,0.0,0.0,0.0,0.0,0.0,0.0,0.0,0.0,0.0,0.0,0.0,0.0,0.0,0.0,0.0,0.0,0.0,0.0,0.0,0.0,0.0,0.0,0.0,0.0,0.0,0.0,0.0,0.0,0.0,0.0,0.0,0.0,0.0,0.0,0.0,0.0,0.0,0.0,0.0,0.0,0.0,0.0,0.0,0.0,0.0,0.0,0.0,0.0,0.0,0.0,0.0,0.0,0.0,0.0,0.0,0.0,0.0,0.0,0.0,0.0,0.0,0.0,0.0,0.0,0.0,0.0,0.0,0.0,0.0,0.0,0.0,0.0,0.0,0.0,0.0,0.0,0.0,0.0,0.0,0.0,0.0,0.0,0.0,0.0,0.0,0.0,0.0,0.0,0.0,0.0,0.0,0.0,0.0,0.0,0.0,0.0,0.0,0.0,0.0,0.0,0.0,0.0,0.0,0.0,0.0,0.0,0.0,0.0,0.0,0.0,0.0,0.0,0.0,0.0,0.0,0.0,0.0,0.0,0.0,0.0,0.0,0.0,0.0,0.0,0.0,0.0,0.0,0.0,0.0,0.0,0.0,0.0,0.0,0.0,0.0,0.0,0.0,0.0,0.0,0.0,0.0,0.0,0.0,0.0,0.0,0.0,0.0,0.0,0.0,0.0,0.0,0.0,0.0,0.0,0.0,0.0,0.0,0.0,0.0,0.0,0.0,0.0,0.0,0.0,0.0,0.0,0.0,0.0,0.0,0.0,0.0,0.0,0.0,0.0,0.0,0.0,0.0,0.0,0.0,0.0,0.0,0.0,0.0,0.0,0.0,0.0,0.0,0.0,0.0,0.0,0.0,0.0,0.0,0.0,0.0,0.0,0.0,0.0,0.0,0.0,0.0,0.0,0.0,0.0,0.0,0.0,0.0,0.0,0.0,0.0,0.0,0.0,0.0,0.0,0.0,0.0,0.0,0.0,0.0,0.0,0.0,0.0,0.0,0.0,0.0,0.0,0.0,0.0,0.0,0.0,0.0,0.0,0.0,0.0,0.0,0.0,0.0,0.0,0.0,0.0,0.0,0.0,0.0,0.0,0.0,0.0,0.0,0.0,0.0,0.0,0.0,0.0,0.0,0.0,0.0,0.0,0.0,0.0,0.0,0.0,0.0,0.0,0.0,0.0,0.0,0.0,0.0,0.0,0.0,0.0,0.0,0.0,0.0,0.0,0.0,0.0,0.0,0.0,0.0,0.0,0.0,0.0,0.0,0.0,0.0,0.0,0.0,0.0,0.0,0.0,0.0,0.0,0.0,0.0,0.0,0.0,0.0,0.0,0.0,0.0,0.0,0.0,0.0,0.0,0.0,0.0,0.0,0.0,0.0,0.0,0.0,0.0,0.0,0.0,0.0,0.0,0.0,0.0,0.0,0.0,0.0,0.0,0.0,0.0,0.0,0.0,0.0,0.0,0.0,0.0,0.0,0.0,0.0,0.0,0.0,0.0,0.0,0.0,0.0,0.0,0.0,0.0,0.0,0.0,0.0,0.0,0.0,0.0,0.0,0.0,0.0,0.0,0.0,0.0,0.0,0.0,0.0,0.0,0.0,0.0,0.0,0.0,0.0,0.0,-1.0445,-1.0184,0.0,0.0,0.0,0.0,0.0,0.0,0.0,0.0,0.0,0.0,0.0,0.0,0.0,0.0,0.0,0.0,0.0,0.0,0.0,0.0,0.0,0.0,0.0,-1.4121,-1.4239,-1.4439,-1.4298,0.0,0.0,0.0,0.0,0.0,0.0,0.0,0.0,0.0,-1.3347,-1.3558,-1.3677,-1.4132,-1.4883,-1.4027,-1.3212,-1.2414,0.0,0.0,0.0,0.0,0.0,0.0,0.0,0.0,0.0,0.0,0.0,0.0,0.0,0.0,0.0,0.0,0.0,0.0,0.0,0.0,0.0,0.0,0.0,0.0,0.0,0.0,0.0,0.0,0.0,0.0,0.0,0.0,0.0,0.0,0.0,0.0,0.0,0.0,0.0,0.0,0.0,0.0,0.0,0.0,0.0,0.0,0.0,0.0,0.0,0.0,0.0,0.0,0.0,0.0,0.0,0.0,0.0,0.0,0.0,0.0,0.0,0.0,0.0,0.0,0.0,0.0,0.0,0.0,0.0,0.0,-1.057,-1.0434,0.0,0.0,0.0,0.0,0.0,0.0,0.0,0.0,0.0,0.0,0.0,0.0,0.0,0.0,0.0,0.0,0.0,0.0,0.0,0.0,0.0,-1.3727,-1.4535,-1.463,-1.4709,-1.4917,-1.4599,-1.4329,-1.4253,-1.3751,0.0,0.0,0.0,0.0,-1.3649,-1.4127,-1.4512,-1.4768,-1.5483,-1.5783,-1.5691,-1.5571,-1.5003,-1.3999,-1.2204,0.0,0.0,0.0,0.0,0.0,0.0,0.0,0.0,0.0,0.0,0.0,0.0,0.0,0.0,0.0,0.0,0.0,0.0,0.0,0.0,0.0,0.0,0.0,0.0,0.0,0.0,0.0,0.0,0.0,0.0,0.0,0.0,0.0,0.0,0.0,0.0,0.0,0.0,0.0,0.0,0.0,0.0,0.0,0.0,0.0,0.0,0.0,0.0,0.0,0.0,0.0,0.0,0.0,0.0,0.0,0.0,0.0,0.0,0.0,0.0,0.0,0.0,0.0,-1.0573,-1.0555,-1.0831,-1.0798,-1.0813,-1.0798,-1.0638,-1.064,-1.0739,-1.0478,0.0,0.0,0.0,0.0,0.0,0.0,0.0,0.0,0.0,0.0,0.0,0.0,0.0,0.0,0.0,0.0,0.0,0.0,0.0,-1.3401,-1.3802,-1.3905,-1.4236,-1.5013,-1.4866,-1.4849,-1.5115,-1.453,0.0,0.0,0.0,-1.3441,-1.3331,-1.3493,-1.3929,-1.4692,-1.6656,-1.758,-1.7526,-1.6951,-1.6595,-1.6384,-1.4797,-1.4068,-1.4042,0.0,0.0,0.0,0.0,0.0,0.0,0.0,0.0,0.0,0.0,0.0,0.0,0.0,0.0,0.0,0.0,0.0,0.0,0.0,0.0,0.0,0.0,0.0,0.0,0.0,0.0,0.0,0.0,0.0,0.0,0.0,0.0,0.0,0.0,0.0,0.0,0.0,0.0,0.0,0.0,0.0,-1.0234,-1.0331,0.0,0.0,0.0,0.0,0.0,0.0,0.0,0.0,0.0,0.0,0.0,0.0,0.0,-0.753,-0.7089,-0.7111,-0.7905,-0.9374,-0.9352,-0.9996,-1.1273,-1.1198,-1.1125,-1.1118,-1.09,0.0,-1.0878,-1.1218,0.0,0.0,0.0,0.0,0.0,0.0,0.0,0.0,0.0,0.0,0.0,0.0,0.0,0.0,0.0,0.0,0.0,0.0,0.0,0.0,0.0,-1.4814,-1.515,-1.5659,-1.565,-1.527,-1.4456,-1.3988,0.0,0.0,-1.286,-1.2882,-1.2902,-1.3834,-1.5033,-1.6507,-1.7304,-1.7782,-1.7967,-1.7652,-1.7371,-1.7058,-1.6341,-1.529,-1.3988,-1.3431,0.0,0.0,0.0,0.0,0.0,0.0,0.0,0.0,0.0,0.0,0.0,0.0,0.0,0.0,0.0,0.0,0.0,0.0,0.0,0.0,0.0,0.0,0.0,0.0,0.0,0.0,0.0,0.0,0.0,0.0,0.0,0.0,0.0,0.0,0.0,0.0,0.0,0.0,0.0,-1.0162,-1.0306,-1.0688,-1.0202,-0.9608,0.0,0.0,0.0,0.0,0.0,0.0,0.0,0.0,0.0,-0.6416,-0.6651,-0.6836,-0.6918,-0.664,-0.6973,-0.8009,-0.8652,-0.932,-1.007,-0.9992,-1.0486,-1.1345,-1.0438,-1.0518,-1.1417,-1.1214,-1.1043,-1.0897,0.0,0.0,0.0,0.0,-1.087,-1.071,0.0,0.0,0.0,0.0,0.0,0.0,0.0,0.0,0.0,0.0,0.0,0.0,-1.4997,-1.5471,-1.5873,-1.6159,-1.6324,-1.5774,-1.4379,-1.4032,-1.3518,-1.2677,-1.2677,-1.2668,-1.2709,-1.4429,-1.6245,-1.8076,-1.8061,-1.8156,-1.8384,-1.837,-1.809,-1.7648,-1.7581,-1.6353,-1.4359,-1.3961,-1.3213,-1.2251,0.0,0.0,0.0,0.0,0.0,0.0,0.0,0.0,0.0,0.0,0.0,0.0,0.0,0.0,0.0,0.0,0.0,0.0,0.0,0.0,0.0,0.0,0.0,0.0,0.0,0.0,0.0,0.0,0.0,0.0,0.0,0.0,0.0,0.0,0.0,0.0,0.0,-0.9838,-0.9813,-1.007,-0.9419,-0.8605,0.0,0.0,0.0,0.0,0.0,0.0,-0.5646,-0.5586,-0.5556,-0.5548,-0.5552,-0.5646,-0.5985,-0.5526,-0.5712,-0.6489,-0.7363,-0.8064,-0.8596,-0.8457,-0.9157,-1.0414,-0.9255,-0.944,-1.0651,-1.1158,-1.1249,-1.1231,-1.1315,-1.097,-1.0486,-1.1263,-1.1119,-1.0671,0.0,0.0,0.0,0.0,0.0,0.0,0.0,0.0,0.0,0.0,0.0,-1.42,-1.4351,-1.5033,-1.5702,-1.614,-1.6627,-1.6607,-1.6007,-1.5649,-1.509,-1.4142,-1.3663,-1.3297,-1.2985,-1.5098,-1.6988,-1.8452,-1.9042,-1.935,-1.9305,-1.9305,-1.9132,-1.8824,-1.8544,-1.7729,-1.65,-1.5645,-1.5097,-1.4687,-1.2906,0.0,0.0,0.0,0.0,0.0,0.0,0.0,0.0,0.0,0.0,0.0,0.0,0.0,0.0,0.0,0.0,0.0,0.0,0.0,0.0,0.0,0.0,0.0,0.0,0.0,0.0,0.0,0.0,0.0,0.0,0.0,0.0,0.0,0.0,0.0,0.0,0.0,0.0,-0.7713,-0.7696,0.0,0.0,0.0,0.0,-0.6071,-0.4812,-0.4102,-0.4348,-0.3599,-0.2954,-0.2463,-0.3014,-0.3034,-0.2451,-0.2484,-0.3303,-0.4794,-0.4853,-0.5728,-0.7219,-0.7219,-0.7223,-0.7302,-0.7231,-0.7235,-0.7606,-1.1095,-1.2328,-1.2059,-1.2472,-1.1285,-0.9538,-1.1372,-1.083,-0.9496,0.0,0.0,0.0,-1.3006,-1.2257,-1.1977,-1.2944,-1.2505,-1.2302,-1.3006,-1.3457,-1.4027,-1.4811,-1.552,-1.6242,-1.6955,-1.741,-1.7364,-1.685,-1.5838,-1.5201,-1.5224,-1.4343,-1.4545,-1.5913,-1.7125,-1.833,-1.9613,-1.9826,-2.0027,-2.0214,-2.0214,-1.9947,-1.9479,-1.9372,-1.8891,-1.8063,-1.6981,-1.6032,-1.5164,-1.4392,-1.3094,0.0,0.0,0.0,0.0,0.0,0.0,0.0,0.0,0.0,0.0,0.0,0.0,0.0,0.0,0.0,0.0,0.0,0.0,0.0,0.0,0.0,0.0,0.0,0.0,0.0,0.0,0.0,0.0,0.0,0.0,0.0,0.0,0.0,0.0,0.0,0.0,0.0,-0.6941,-0.6455,0.0,-0.4932,-0.4343,-0.3905,-0.3539,-0.3081,-0.2826,-0.2923,-0.2656,-0.242,-0.2283,-0.2499,-0.2526,-0.236,-0.2371,-0.2678,-0.3211,-0.4197,-0.506,-0.573,-0.5654,-0.6288,-0.7261,-0.6183,-0.6337,-0.7492,-0.8804,-0.9132,-0.8997,-1.0263,-1.0257,-0.9809,-1.1554,-1.1802,-1.1359,0.0,0.0,0.0,-1.2181,-1.1331,-1.1045,-1.2207,-1.1787,-1.173,-1.2852,-1.3555,-1.431,-1.5163,-1.6203,-1.7064,-1.7603,-1.8089,-1.8171,-1.7822,-1.6509,-1.5839,-1.5965,-1.4682,-1.5102,-1.7463,-1.7888,-1.8881,-2.0521,-2.0521,-2.0628,-2.0815,-2.0815,-2.0561,-2.0094,-1.9987,-1.9679,-1.9158,-1.8277,-1.738,-1.6393,-1.5697,-1.4515,-1.2985,0.0,0.0,0.0,0.0,0.0,0.0,0.0,0.0,0.0,0.0,0.0,0.0,0.0,0.0,0.0,0.0,0.0,0.0,0.0,0.0,0.0,0.0,0.0,0.0,0.0,0.0,0.0,0.0,0.0,0.0,0.0,0.0,0.0,0.0,-0.5837,-0.542,-0.5411,-0.4888,-0.4241,-0.3539,-0.3001,-0.249,-0.2136,-0.2168,-0.2211,-0.22,-0.2204,-0.2231,-0.2361,-0.2364,-0.2383,-0.2423,-0.2433,-0.2439,-0.2439,-0.344,-0.3999,-0.4183,-0.4028,-0.4668,-0.5721,-0.4625,-0.4782,-0.5799,-0.5799,-0.6052,-0.6644,-0.8859,-0.9437,-0.9269,-1.1511,-1.2036,-1.1721,0.0,0.0,-1.0954,-1.0658,-1.0314,-1.0376,-1.1255,-1.1402,-1.1828,-1.3039,-1.417,-1.5045,-1.5397,-1.6991,-1.7994,-1.7995,-1.8542,-1.8875,-1.8805,-1.7742,-1.6887,-1.6215,-1.4704,-1.4965,-1.7208,-1.7268,-1.8505,-2.0982,-2.0982,-2.0982,-2.0982,-2.0982,-2.0899,-2.0619,-2.0326,-2.0094,-1.9813,-1.9533,-1.9078,-1.8437,-1.6951,-1.5989,-1.5132,0.0,0.0,0.0,0.0,0.0,0.0,0.0,0.0,0.0,0.0,0.0,0.0,0.0,0.0,0.0,0.0,0.0,0.0,0.0,0.0,0.0,0.0,0.0,0.0,0.0,0.0,0.0,0.0,0.0,0.0,0.0,0.0,0.0,-0.4593,-0.4192,-0.3537,-0.302,-0.2945,-0.2728,-0.2175,-0.2166,-0.2202,-0.2204,-0.2232,-0.2203,-0.2333,-0.2335,-0.2363,-0.2423,-0.2425,-0.2425,-0.2427,-0.2455,-0.247,-0.247,-0.25,-0.2514,-0.2514,-0.2514,-0.2514,-0.2514,-0.2514,-0.2514,-0.2592,-0.2592,-0.3611,-0.5408,-0.8682,-0.8993,-0.7981,-1.1333,-1.1495,-1.0408,-1.052,-1.0262,-1.0192,-1.0537,-1.0314,-1.0376,-1.1255,-1.161,-1.206,-1.2811,-1.3911,-1.4999,-1.5973,-1.7219,-1.779,-1.731,-1.8498,-1.8442,-1.6437,-1.5939,-1.5226,-1.401,-1.4933,-1.5784,-1.6431,-1.6857,-1.742,-1.8139,-1.8139,-1.8139,-1.8139,-1.91,-1.9522,-1.9498,-2.0456,-2.0708,-2.0428,-2.0347,-2.0094,-1.9607,-1.8354,-1.7171,-1.601,0.0,0.0,0.0,0.0,0.0,0.0,0.0,0.0,0.0,0.0,0.0,0.0,0.0,0.0,0.0,0.0,0.0,0.0,0.0,0.0,0.0,0.0,0.0,0.0,0.0,0.0,0.0,0.0,0.0,0.0,0.0,-0.2917,-0.2592,-0.3274,-0.2845,-0.2481,-0.2364,-0.236,-0.2342,-0.2172,-0.221,-0.2251,-0.2293,-0.2304,-0.2335,-0.2395,-0.2399,-0.2416,-0.2455,-0.2457,-0.2467,-0.2489,-0.2497,-0.2502,-0.2502,-0.251,-0.2514,-0.2514,-0.2514,-0.2514,-0.2514,-0.2514,-0.3219,-0.4312,-0.4623,-0.5821,-0.7516,-0.831,-0.9066,-1.0092,-1.261,-1.3354,-1.3216,-1.0341,-1.006,-1.0007,-1.0506,-1.0452,-1.0514,-1.1142,-1.1597,-1.2208,-1.3013,-1.3607,-1.446,-1.5743,-1.6842,-1.7111,-1.6276,-1.7617,-1.7535,-1.5303,-1.4973,-1.4393,-1.3367,-1.4421,-1.5214,-1.5613,-1.5941,-1.6398,-1.698,-1.698,-1.698,-1.7044,-1.7818,-1.8139,-1.8203,-1.9036,-1.9281,-1.9134,-1.8996,-1.9037,-1.9197,-1.76,-1.7095,-1.7089,-1.5065,-1.3429,-1.2094,-1.0883,-0.96,-0.85,-0.8578,0.0,0.0,0.0,0.0,0.0,0.0,0.0,0.0,0.0,0.0,0.0,0.0,0.0,0.0,0.0,0.0,0.0,0.0,0.0,0.0,0.0,0.0,0.0,0.0,-0.2366,-0.2136,-0.2444,-0.221,-0.2054,-0.2114,-0.2163,-0.2208,-0.2251,-0.2283,-0.2315,-0.2349,-0.2364,-0.2391,-0.244,-0.2443,-0.2457,-0.2487,-0.2488,-0.2496,-0.2514,-0.2514,-0.2514,-0.2514,-0.2514,-0.2906,-0.3531,-0.3687,-0.4245,-0.4973,-0.5131,-0.5852,-0.6824,-0.7062,-0.8199,-0.9839,0.0,0.0,0.0,0.0,-1.4226,-1.4308,-1.0546,-1.0301,-1.0207,-1.0546,-1.0586,-1.0693,-1.0955,-1.1455,-1.2131,-1.3239,-1.3169,-1.3579,-1.4974,-1.5922,-1.6055,-1.4976,-1.6184,-1.6378,-1.4859,-1.4414,-1.3924,-1.3469,-1.3498,-1.3852,-1.4642,-1.4651,-1.5294,-1.6527,-1.6527,-1.6527,-1.6527,-1.6721,-1.6786,-1.6786,-1.6915,-1.698,-1.698,-1.6571,-1.6979,-1.7754,-1.5811,-1.6339,-1.7827,-1.4172,-1.2643,-1.2165,-0.9587,-0.8602,-0.8425,-0.8269,0.0,0.0,0.0,0.0,0.0,0.0,0.0,0.0,0.0,0.0,0.0,0.0,0.0,0.0,0.0,0.0,0.0,0.0,0.0,0.0,0.0,0.0,0.0,0.0,-0.2012,-0.2079,-0.211,-0.212,-0.2144,-0.2199,-0.2232,-0.2202,-0.2327,-0.236,-0.2378,-0.2378,-0.2409,-0.244,-0.2467,-0.2472,0.0,0.0,0.0,-0.2514,-0.2514,-0.2592,-0.2671,-0.2671,-0.2906,-0.3766,-0.5248,-0.5714,-0.6848,-0.8511,-0.8828,-0.9198,-0.9617,-0.9617,-1.0672,-1.2215,-1.1994,-1.202,-1.2394,-1.3931,-1.4514,-1.4529,-1.0247,-1.0123,-1.0207,-1.0546,-1.0586,-1.0693,-1.0955,-1.0972,-1.1206,-1.1906,-1.2035,-1.257,-1.3779,-1.4567,-1.4598,-1.3603,-1.4808,-1.5049,-1.3564,-1.2988,-1.2591,-1.2336,-1.2697,-1.3053,-1.3218,-1.3227,-1.3358,-1.3613,-1.3613,-1.3613,-1.3613,-1.4782,-1.5294,-1.5359,-1.6462,-1.698,-1.698,-1.6571,-1.655,-1.6626,-1.5479,-1.5753,-1.656,-1.4441,-1.2916,-1.1828,-1.1251,-1.0399,-0.9496,-0.9354,-0.9144,-0.8899,-0.8655,-0.8377,0.0,0.0,0.0,0.0,0.0,0.0,0.0,0.0,0.0,0.0,0.0,0.0,0.0,0.0,0.0,0.0,0.0,0.0,0.0,-0.1997,-0.2057,-0.211,-0.2142,-0.2188,-0.2154,-0.2166,-0.2263,-0.2296,-0.233,-0.236,-0.2378,-0.2378,-0.2429,-0.2462,-0.2469,-0.2492,-0.2508,-0.2514,-0.2514,-0.2514,-0.2514,-0.322,-0.3532,-0.3532,-0.5248,0.0,-0.6573,-0.7656,-0.8411,-0.8902,-0.8981,-0.9919,-1.132,-1.1709,-1.307,-1.4973,-1.4483,-1.4594,-1.5069,-1.5392,-1.5569,-1.5697,-1.0367,-1.0341,-1.0381,-1.0559,-1.0418,-1.0283,-1.025,-1.0142,-1.0283,-1.0886,-1.0783,-1.1105,-1.2261,-1.2782,-1.2608,-1.1603,-1.2237,-1.2599,-1.2175,-1.2097,-1.2158,-1.2362,-1.2694,-1.2774,-1.2774,-1.2774,-1.2774,-1.2774,-1.2774,-1.2774,-1.284,-1.3547,-1.3875,-1.3875,-1.4586,-1.4912,-1.4847,-1.4315,-1.4502,-1.5024,-1.3492,-1.3541,-1.4375,-1.3366,-1.2498,-1.1752,-1.0997,-1.0368,-0.9808,-0.9741,-0.9612,-0.9462,-0.9313,-0.9062,-0.8737,0.0,0.0,0.0,0.0,0.0,0.0,0.0,0.0,0.0,0.0,0.0,0.0,0.0,0.0,-0.1068,-0.1154,0.0,-0.1208,-0.1235,-0.1726,-0.217,-0.2217,-0.2249,-0.2268,-0.2268,-0.2294,-0.2318,-0.2331,-0.2373,-0.2401,-0.2401,-0.2458,-0.2492,-0.2492,-0.2506,-0.2671,-0.3142,-0.3142,-0.3376,-0.3768,-0.416,-0.4706,-0.5329,-0.6417,-0.7665,-0.9061,-0.9909,-1.0951,-1.194,-1.2179,-1.2862,-1.3891,-1.4128,-1.4837,-1.5902,-1.5569,-1.5666,-1.591,-1.591,-1.5967,-1.5974,-1.0586,-1.0586,-1.0586,-1.0586,-1.0225,-0.9798,-0.9548,-0.9254,-0.926,-0.9833,-0.9455,-0.9518,-1.0537,-1.0847,-1.0675,-0.9911,-1.0095,-1.0526,-1.1135,-1.1614,-1.215,-1.2759,-1.2816,-1.2774,-1.2774,-1.2774,-1.2774,-1.2774,-1.2774,-1.2774,-1.2774,-1.2774,-1.2774,-1.2774,-1.2774,-1.2774,-1.2774,-1.2173,-1.2503,-1.335,-1.1512,-1.1344,-1.2122,-1.1815,-1.1673,-1.1433,-1.0236,-0.9822,-0.9822,-0.9822,-0.9822,-0.9822,-0.9822,-0.9659,-0.9381,-0.8967,-0.792,0.0,0.0,0.0,0.0,0.0,0.0,0.0,0.0,-0.1849,-0.1752,-0.1613,-0.0911,-0.0309,-0.0127,-0.0129,-0.0197,-0.0471,-0.1296,-0.2013,-0.2282,-0.229,-0.2365,-0.2514,-0.2391,-0.2335,-0.2341,-0.2391,-0.2501,-0.266,-0.2715,-0.2828,-0.2985,-0.2985,-0.3299,-0.4003,-0.4003,-0.4317,-0.5022,-0.5411,-0.6111,-0.7119,-0.7816,-0.9294,-1.1553,-1.2269,-1.3461,-1.5042,-1.5425,-1.578,-1.5966,-1.5966,-1.5966,-1.5966,-1.5966,-1.5966,-1.5966,-1.5966,-1.5966,-1.599,-1.0586,-1.0586,-1.0586,-1.0586,-1.0028,-0.9548,-0.9524,-0.8578,-0.8036,-0.8475,-0.8058,-0.7957,-0.8545,-0.8893,-0.9244,-0.9616,-1.0257,-1.0737,-1.098,-1.1784,-1.2353,-1.2588,-1.2751,-1.2774,-1.2774,-1.2774,-1.2774,-1.2774,-1.2774,-1.2774,-1.2774,-1.2774,-1.2774,-1.2774,-1.2774,-1.2774,-1.2766,-1.2371,-1.2173,-1.1975,-1.138,-1.0958,-1.0732,-1.0565,-1.0357,-1.0211,-0.9876,-0.9822,-0.9822,-0.9822,-0.9822,-0.9822,-0.9822,-0.9795,-0.9707,-0.9401,-0.8399,-0.7089,-0.5763,-0.3688,-0.1928,-0.1821,-0.1814,-0.1829,0.0,-0.1956,-0.164,-0.076,-0.0517,-0.0196,0.0786,0.0928,0.0606,-0.041,-0.0686,-0.1111,-0.214,-0.229,-0.2589,-0.3272,-0.2768,-0.2343,-0.2371,-0.2403,-0.2739,-0.346,-0.3583,-0.4003,-0.4709,-0.4709,-0.4787,-0.4865,-0.4865,-0.4944,-0.5022,-0.6811,-0.7825,-0.7981,-1.1005,-1.2558,-1.2951,-1.4268,-1.5081,-1.5449,-1.5772,-1.6008,-1.5966,-1.5966,-1.5966,-1.5966,-1.5966,-1.5966,-1.5966,-1.5966,-1.5966,-1.599,-1.0586,-1.0586,-1.0586,-1.0586,-0.997,-0.9492,-0.9492,-0.8407,-0.7706,-0.8084,-0.7597,-0.738,-0.7772,-0.7951,-0.8178,-0.8511,-0.938,-1.0131,-1.0531,-1.1338,-1.1914,-1.2163,-1.2377,-1.2532,-1.2532,-1.2735,-1.2774,-1.2774,-1.2774,-1.2783,-1.2678,-1.2678,-1.2621,-1.2532,-1.2532,-1.2532,-1.2467,-1.2145,-1.1944,-1.1751,-1.1364,-1.1006,-1.0671,-1.0454,-1.0232,-0.9957,-0.9781,-0.97,0.0,-0.97,-0.97,-0.9713,-0.9795,-0.9768,-0.9473,-0.85,-0.7365,-0.5961,-0.3893,-0.2589,-0.1847,-0.1925,-0.1934,-0.1947,-0.2026,-0.153,-0.0959,-0.0521,0.0528,0.1467,0.1934,0.2009,0.1625,0.0485,-0.0208,-0.1193,-0.2739,-0.2967,-0.3262,-0.408,-0.3935,-0.3725,-0.3745,-0.3739,-0.3942,-0.4342,-0.4425,-0.463,-0.5019,-0.5022,-0.5254,-0.5724,-0.5724,-0.5958,-0.6427,-0.8063,-0.9226,-1.0003,-1.2095,-1.3491,-1.4191,-1.4921,-1.539,-1.5683,-1.5934,-1.5966,-1.5966,-1.5966,-1.5966,-1.5966,-1.5966,-1.5966,-1.5966,-1.5966,-1.6113,-1.6219,-1.0618,-1.0586,-1.0586,-1.0586,-1.0174,-0.9748,-0.9524,-0.8517,-0.7791,-0.7862,-0.7424,-0.7168,-0.7265,-0.7347,-0.7445,-0.7633,-0.8547,-0.9363,-0.9951,-1.0777,-1.1403,-1.1687,-1.1996,-1.2158,-1.2158,-1.241,-1.2564,-1.2548,-1.2548,-1.2572,-1.2491,-1.2491,-1.2426,-1.2304,-1.2304,-1.2304,-1.2304,-1.2051,-1.1862,-1.1799,-1.1482,-1.1136,-1.0832,-1.071,-1.0313,-0.9842,-0.9724,-0.9603,-0.953,-0.946,-0.9446,-0.9435,-0.9496,-0.9476,-0.9117,-0.7817,-0.629,-0.463,-0.2459,-0.1915,-0.1856,-0.1615,-0.1576,-0.1529,-0.1293,-0.0589,0.0,0.0331,0.1602,0.2758,0.3094,0.2892,0.2238,0.0906,-0.007,-0.1343,-0.356,-0.3646,-0.3864,-0.4883,-0.5029,-0.5101,-0.532,-0.4992,-0.492,-0.5164,-0.5272,-0.5489,-0.5648,-0.5724,-0.5958,-0.6587,-0.6666,-0.7053,-0.7989,-0.9309,-1.0552,-1.1785,-1.3028,-1.4114,-1.4976,-1.5212,-1.548,-1.578,-1.5967,-1.5966,-1.5966,-1.5966,-1.5966,-1.5966,-1.5966,-1.5966,-1.5966,-1.5966,-1.6154,-1.6332,-1.0713,-1.0586,-1.0586,-1.0586,-1.06,-1.0333,-0.962,-0.8903,-0.8236,-0.7606,-0.7508,-0.7295,-0.6769,-0.6906,-0.7077,-0.7191,-0.7902,-0.8625,-0.938,-1.0217,-1.0956,-1.1484,-1.1695,-1.1792,-1.1792,-1.1801,-1.189,-1.199,-1.199,-1.2142,-1.2312,-1.2312,-1.2312,-1.2304,-1.2304,-1.2304,-1.2304,-1.2304,-1.2115,-1.1799,-1.1799,-1.1446,-1.0984,-1.0977,-1.0405,-0.9646,-0.9737,-0.962,-0.9378,-0.9154,-0.905,-0.8878,-0.8791,-0.8845,-0.8703,-0.7698,-0.5733,-0.3585,-0.2273,-0.187,-0.1695,-0.0676,-0.0441,-0.0194,0.0787,0.1054,0.1323,0.2412,0.2689,0.3026,0.4037,0.343,0.2103,0.0139,-0.042,-0.1555,-0.4283,-0.401,-0.4083,-0.5607,-0.5752,-0.6047,-0.6845,-0.5661,-0.5167,-0.5995,-0.6153,-0.6587,-0.7369,-0.7447,-0.7447,-0.7447,-0.7447,-0.8067,-0.9309,-1.063,-1.1863,-1.3028,-1.4345,-1.4968,-1.4976,-1.5342,-1.5601,-1.578,-1.5967,-1.5966,-1.5966,-1.5966,-1.5966,-1.5966,-1.5966,-1.5966,-1.5966,-1.5966,-1.6154,-1.6332,-1.0649,-1.0586,-1.0586,-1.0586,-1.0586,-1.0523,-1.0269,-0.962,-0.9064,-0.8839,-0.8042,0.0,0.0,0.0,0.0,0.0,-0.7633,-0.8237,-0.8841,-0.9494,-1.0098,-1.059,-1.1013,-1.1297,-1.1403,-1.1654,-1.1801,-1.1857,-1.1857,-1.1833,-1.1768,-1.1768,-1.1703,-1.1589,-1.1589,-1.1589,-1.1589,-1.1589,-1.1595,-1.1587,-1.1587,-1.1437,-1.1164,-1.1057,-1.0442,-0.9553,0.0,-0.8945,-0.8452,-0.8295,-0.8197,-0.8062,-0.758,-0.7445,-0.711,-0.54,-0.3754,-0.2263,-0.121,-0.0918,-0.0679,0.032,0.0584,0.0657,0.0998,0.1669,0.2274,0.262,0.332,0.3684,0.3273,0.2522,0.1302,-0.0838,-0.1667,-0.2788,-0.5015,-0.5105,-0.5339,-0.6475,-0.6627,-0.67,-0.699,-0.6581,-0.6455,-0.6842,-0.7003,-0.715,-0.7521,-0.7525,-0.7916,-0.8769,-0.8769,-0.9387,-1.0624,-1.1863,-1.2719,-1.3105,-1.4422,-1.5025,-1.5155,-1.5407,-1.561,-1.578,-1.5967,-1.5966,-1.5966,-1.5966,-1.5966,-1.5966,-1.5966,-1.5966,-1.6056,-1.6178,-1.6332,-1.6495,-1.0816,-1.0667,-1.0626,-1.0734,-1.0667,0.0,0.0,0.0,0.0,0.0,0.0,0.0,0.0,0.0,0.0,0.0,0.0,-0.7714,-0.8188,-0.8661,-0.912,-0.9657,-1.0008,-1.0193,-1.0363,-1.0542,-1.0753,-1.1005,-1.1005,-1.1078,-1.1208,-1.1208,-1.1143,-1.1037,-1.1037,-1.1037,-1.1037,-1.1037,-1.1143,-1.1297,-1.1167,-1.1069,-1.0967,-1.0673,-0.996,0.0,-0.8761,-0.8175,-0.7435,-0.725,-0.7182,-0.7,-0.6203,-0.5732,-0.5214,-0.3938,-0.2483,-0.1162,-0.0548,-0.0124,0.0376,0.1435,0.1653,0.1663,0.1677,0.2218,0.2487,0.1882,0.2303,0.252,0.1498,0.0615,-0.0483,-0.232,-0.3092,-0.4097,-0.5918,-0.5939,-0.6091,-0.6914,-0.699,-0.699,-0.699,-0.7043,-0.7129,-0.7252,-0.7341,-0.7427,-0.7521,-0.7911,-0.8535,-0.9387,-0.9853,-1.0707,-1.194,-1.2713,-1.3337,-1.3799,-1.4576,-1.5025,-1.5147,-1.5398,-1.5577,-1.5699,-1.5943,-1.5966,-1.5966,-1.5966,-1.5966,-1.5966,-1.5966,-1.5966,-1.5982,-1.6235,-1.6422,-1.6592,-1.1255,-1.0819,-1.068,0.0,0.0,0.0,0.0,0.0,0.0,0.0,0.0,0.0,0.0,0.0,0.0,0.0,0.0,0.0,-0.7447,-0.7789,-0.8211,-0.8755,-0.8633,-0.8633,-0.8804,-0.8649,-0.8901,-0.9534,-0.9534,-0.9941,-1.0615,-1.0615,-1.0615,-1.0615,-1.0623,-1.0631,-1.0639,-1.0647,-1.0753,-1.0883,-1.0542,-1.035,-1.0318,-0.9998,-0.9187,-0.817,-0.7945,-0.7282,-0.6445,-0.6171,-0.5918,-0.5568,-0.4714,-0.3861,-0.314,-0.3201,-0.1851,-0.0291,-0.0244,0.0437,0.1462,0.2486,0.2796,0.2758,0.2689,0.2622,0.215,0.0336,-0.0067,-0.0269,-0.1005,-0.2104,-0.318,-0.4112,-0.461,-0.5402,-0.6875,-0.6518,-0.6268,-0.6926,-0.699,-0.699,-0.699,-0.699,-0.7137,-0.7398,-0.7414,-0.7423,-0.7599,-0.8764,-0.9464,-0.962,-1.0779,-1.194,-1.3182,-1.3182,-1.3799,-1.4968,-1.4968,-1.4968,-1.4976,-1.535,-1.5512,-1.5536,-1.5812,-1.5966,-1.5966,-1.5966,-1.5966,-1.5966,-1.5966,-1.5966,-1.6064,-1.6251,-1.643,-1.6609,0.0,0.0,0.0,0.0,0.0,0.0,0.0,0.0,0.0,0.0,0.0,0.0,0.0,0.0,0.0,0.0,0.0,0.0,-0.7261,-0.7337,-0.7627,-0.8195,-0.8308,-0.8446,-0.8625,-0.8637,-0.8714,-0.9023,-0.9023,-0.9194,-0.9502,-0.9502,-0.9502,-0.951,-0.969,-0.977,-0.9908,-1.0038,-1.0119,-1.0152,-1.0063,-1.0022,-0.9989,-0.9673,-0.9052,-0.8313,-0.7906,-0.7253,-0.6531,-0.5638,-0.458,-0.3545,-0.343,-0.2303,-0.1088,-0.1141,-0.0291,0.0888,0.1631,0.2044,0.2517,0.3587,0.3892,0.3564,0.2216,0.188,0.1406,-0.0331,-0.0599,-0.0937,-0.1919,-0.2898,-0.3847,-0.4917,-0.5705,-0.6325,-0.69,-0.6725,-0.6654,-0.6978,-0.699,-0.699,-0.699,-0.699,-0.743,-0.8595,-0.7809,-0.782,-0.8837,-0.9231,-1.0236,-1.2095,-1.2481,-1.3259,-1.4499,-1.4499,-1.4653,-1.4968,-1.4968,-1.4968,-1.4976,-1.535,-1.5512,-1.5536,-1.5812,-1.5966,-1.5966,-1.5966,-1.5966,-1.5966,-1.5966,-1.5966,-1.5998,-1.6397,-1.6544,-1.6625,0.0,0.0,0.0,0.0,0.0,0.0,0.0,0.0,0.0,0.0,0.0,0.0,0.0,0.0,0.0,0.0,0.0,0.0,0.0,-0.6911,-0.7252,-0.8143,-0.773,-0.7788,-0.8417,-0.7905,-0.7821,-0.8235,-0.8154,-0.8333,-0.8739,-0.8658,-0.8666,-0.8747,-0.889,-0.8991,-0.9169,-0.9267,-0.9397,0.0,0.0,-0.9348,-0.9372,-0.8934,-0.8391,-0.7803,-0.7443,-0.6564,-0.5432,-0.4945,-0.3652,-0.2283,-0.1911,-0.1144,-0.0223,0.0174,0.0946,0.1862,0.2457,0.2871,0.3401,0.4073,0.3897,0.3097,0.1373,0.059,-0.0262,-0.2181,-0.2663,-0.2946,-0.3848,-0.4519,-0.5211,-0.5834,-0.641,-0.6815,-0.6954,-0.6896,-0.688,-0.6978,-0.699,-0.699,-0.699,-0.7421,-0.8158,-0.904,-0.8459,-0.8702,-1.0147,-1.0701,-1.1631,-1.3028,-1.3645,-1.4268,-1.4968,-1.4968,-1.4968,-1.4968,-1.4968,-1.4968,-1.4976,-1.535,-1.5512,-1.5536,-1.5812,-1.5966,-1.5966,-1.5966,-1.5966,-1.5966,-1.5966,-1.5966,-1.6089,-1.6446,-1.6584,-1.6633,0.0,0.0,0.0,0.0,0.0,0.0,0.0,0.0,0.0,-0.9896,-0.9133,-0.8333,-0.7587,-0.7489,0.0,0.0,0.0,0.0,0.0,0.0,-0.6958,-0.8231,-0.7069,-0.6966,-0.8204,-0.7109,-0.6905,-0.7677,-0.7488,-0.771,-0.8272,-0.8065,-0.8041,-0.8113,-0.8162,-0.8284,-0.8506,-0.8555,-0.8706,-0.8966,-0.8702,-0.8617,-0.8609,0.0,-0.757,-0.7046,-0.6781,-0.5522,-0.4028,-0.4126,-0.3088,-0.1542,-0.0605,-0.0225,0.0057,0.0998,0.1972,0.2676,0.2755,0.3406,0.3986,0.4109,0.3351,0.2181,0.0442,-0.0763,-0.2164,-0.4453,-0.5081,-0.5322,-0.5806,-0.6239,-0.6529,-0.6566,-0.6778,-0.6982,-0.7109,-0.7035,-0.6978,-0.7007,-0.6998,-0.7063,-0.7204,-0.814,-0.8956,-0.9564,-0.958,-1.0137,-1.1463,-1.2558,-1.3182,-1.3337,-1.4422,-1.4968,-1.4968,-1.4968,-1.4968,-1.4968,-1.4968,-1.4968,-1.4976,-1.535,-1.5512,-1.5536,-1.5812,-1.5966,-1.5966,-1.5966,-1.5966,-1.5966,-1.5966,-1.5966,-1.6089,-1.6422,-1.656,-1.6625,0.0,0.0,0.0,0.0,0.0,0.0,0.0,0.0,0.0,0.0,-1.0234,-0.8871,0.0,0.0,0.0,0.0,0.0,0.0,0.0,0.0,0.0,-0.7617,-0.6862,-0.7034,-0.8417,-0.769,-0.7717,-0.8586,-0.8555,-0.8358,-0.8052,-0.8016,-0.7733,-0.7233,-0.7526,-0.7763,-0.7959,-0.8211,-0.8373,-0.8422,-0.8365,-0.8228,-0.7998,-0.7657,0.0,0.0,-0.5958,-0.4971,-0.4083,-0.3514,-0.2643,-0.1683,-0.0778,0.0121,0.0971,0.1954,0.2944,0.3702,0.3766,0.3847,0.3986,0.4109,0.3351,0.1988,-0.0189,-0.1513,-0.2884,-0.5172,-0.5645,-0.5718,-0.581,-0.599,-0.6219,-0.6439,-0.6578,-0.677,-0.708,-0.6982,-0.6933,-0.7084,-0.7035,-0.7349,-0.8285,-0.8569,-0.9607,-1.1871,-1.2047,-1.2251,-1.2776,-1.3028,-1.3568,-1.4653,-1.4891,-1.4968,-1.4968,-1.4968,-1.4968,-1.4968,-1.4968,-1.4968,-1.4976,-1.535,-1.5512,-1.5536,-1.5812,-1.5966,-1.5966,-1.5966,-1.5966,-1.5966,-1.5966,-1.5966,-1.599,-1.6276,-1.6446,-1.6609,0.0,0.0,0.0,0.0,0.0,0.0,0.0,-1.1484,-1.1698,-1.2288,-1.1837,-1.081,-0.9175,-0.8876,-0.8469,0.0,0.0,0.0,0.0,0.0,0.0,-0.8851,-0.7999,-0.806,-0.9259,-0.8451,-0.8285,-0.8783,0.0,-0.8552,-0.8403,-0.8023,-0.7731,-0.7522,-0.7414,-0.7447,-0.7665,-0.7797,-0.7975,-0.8146,-0.8146,-0.8084,-0.7928,-0.7663,0.0,0.0,-0.5026,-0.4162,-0.3448,-0.3162,-0.2492,-0.1699,-0.0792,0.0185,0.1171,0.2221,0.3147,0.3895,0.3922,0.393,0.381,0.3397,0.252,0.1188,-0.1037,-0.2384,-0.359,-0.5268,-0.5647,-0.5684,-0.559,-0.5835,-0.6033,-0.6223,-0.6439,-0.6684,-0.6945,-0.6949,-0.6958,-0.7043,-0.7641,-0.8202,-0.8646,-0.9795,-1.1141,-1.2621,-1.3237,-1.3762,-1.4091,-1.4107,-1.4345,-1.4968,-1.4968,-1.4968,-1.4968,-1.4968,-1.4968,-1.4968,-1.4968,-1.4968,-1.4976,-1.5252,-1.5423,-1.5528,-1.5788,-1.5959,-1.5966,-1.5966,-1.5966,-1.5966,-1.5966,-1.5966,-1.5982,-1.6235,-1.6357,-1.6462,0.0,0.0,0.0,0.0,0.0,0.0,0.0,-1.2047,-1.2355,-1.3065,-1.328,-1.2791,-1.1164,-1.0494,-0.9758,0.0,0.0,0.0,0.0,0.0,0.0,0.0,0.0,0.0,-1.0089,0.0,0.0,-0.9254,-0.9173,0.0,0.0,0.0,0.0,0.0,-0.7468,-0.7301,-0.7431,-0.7464,-0.7691,0.0,0.0,-0.7947,-0.7905,0.0,0.0,0.0,0.0,-0.3371,-0.2786,-0.2719,-0.2292,-0.1638,-0.1008,-0.0122,0.0924,0.215,0.3016,0.3579,0.3579,0.3579,0.3394,0.2406,0.1295,0.0,-0.1775,-0.3144,-0.426,-0.5205,-0.5492,-0.5549,-0.5431,-0.5712,-0.5928,-0.6005,-0.6333,-0.6615,-0.6918,-0.6945,-0.7075,-0.7405,-0.8338,-0.9071,-0.9479,-1.1109,-1.2438,-1.2941,-1.3921,-1.4627,-1.4952,-1.4968,-1.4968,-1.4968,-1.4968,-1.4968,-1.4968,-1.4968,-1.4968,-1.4968,-1.4968,-1.4968,-1.4968,-1.5155,-1.5342,-1.5528,-1.5699,-1.5878,-1.5966,-1.5966,-1.5966,-1.5966,-1.5966,-1.5966,-1.5982,-1.6194,-1.6267,-1.6408,0.0,0.0,0.0,0.0,0.0,0.0,0.0,-1.2529,-1.3105,-1.4202,-1.4148,-1.3761,-1.3041,-1.1613,-1.0207,0.0,0.0,0.0,0.0,0.0,0.0,0.0,0.0,0.0,0.0,0.0,0.0,-1.0797,-1.102,0.0,0.0,0.0,0.0,0.0,0.0,-0.7199,-0.7223,-0.7415,0.0,0.0,0.0,0.0,0.0,0.0,0.0,0.0,0.0,-0.2823,-0.2774,-0.1975,-0.17,-0.1601,-0.1688,-0.1048,0.0,0.194,0.2562,0.2652,0.2652,0.2652,0.2406,0.1418,-0.0062,-0.1406,-0.2071,-0.3472,-0.4787,-0.5306,-0.5394,-0.5426,-0.5484,-0.5598,-0.5726,-0.6117,-0.6268,-0.6488,-0.6917,-0.6986,-0.7486,-0.878,-0.8869,-0.9764,-1.1869,-1.2114,-1.2683,-1.397,-1.4423,-1.4765,-1.4952,-1.4968,-1.4968,-1.4968,-1.4968,-1.4968,-1.4968,-1.4968,-1.4968,-1.4968,-1.4968,-1.4968,-1.4968,-1.5155,-1.5342,-1.5528,-1.5699,-1.5878,-1.5966,-1.5966,-1.5966,-1.5966,-1.5966,-1.5966,-1.5966,-1.5982,-1.617,-1.6551,0.0,0.0,0.0,0.0,0.0,0.0,-1.256,-1.2703,-1.328,-1.4603,-1.4727,-1.4456,-1.4041,-1.2923,-1.1697,-1.0275,0.0,0.0,0.0,0.0,0.0,0.0,0.0,0.0,0.0,0.0,-1.0921,-1.1551,-1.1637,0.0,0.0,0.0,0.0,0.0,0.0,-0.7382,-0.7391,-0.7422,0.0,0.0,0.0,0.0,0.0,0.0,0.0,0.0,0.0,0.0,-0.1934,-0.1615,-0.1534,-0.1592,-0.161,-0.1449,-0.1038,0.0354,0.1141,0.1584,0.1598,0.1552,0.1185,-0.0185,-0.0993,-0.1915,-0.3381,-0.4236,-0.4839,-0.5306,-0.5382,-0.5394,-0.5426,-0.5504,-0.5647,-0.59,-0.6063,-0.6276,-0.6619,-0.7442,-0.8251,-0.8909,-1.0257,-1.1475,-1.2335,-1.3012,-1.3631,-1.4245,-1.457,-1.4781,-1.496,-1.4968,-1.4968,-1.4968,-1.4968,-1.4968,-1.4968,-1.4968,-1.4968,-1.4968,-1.4968,-1.4968,-1.4968,-1.5041,-1.5171,-1.5358,-1.5536,-1.5715,-1.5894,-1.5999,-1.5966,-1.5966,-1.5966,-1.5966,-1.6122,-1.7173,-1.7699,-1.8182,0.0,0.0,0.0,0.0,0.0,-1.2473,-1.2652,-1.2878,-1.3521,-1.4834,-1.4928,-1.479,-1.4669,-1.3788,-1.2786,-1.1744,-1.0617,0.0,0.0,0.0,0.0,0.0,0.0,0.0,0.0,0.0,-1.1543,-1.1899,-1.2087,-1.2184,0.0,0.0,-0.9926,-0.9698,0.0,0.0,0.0,0.0,0.0,0.0,0.0,0.0,0.0,0.0,0.0,0.0,0.0,0.0,0.0,0.0,0.0,-0.154,-0.152,-0.1598,-0.1557,-0.0628,0.0059,0.0601,0.0552,0.0374,-0.0189,-0.1618,-0.2251,-0.2929,-0.4425,-0.484,-0.5071,-0.5362,-0.5382,-0.5382,-0.5382,-0.5471,-0.5598,-0.5757,-0.5933,-0.6149,-0.6481,-0.7695,-0.8773,-0.9347,-1.1237,-1.2602,-1.2926,-1.368,-1.4172,-1.4343,-1.4521,-1.4708,-1.4879,-1.4935,-1.4968,-1.4968,-1.4968,-1.4968,-1.4968,-1.4968,-1.4968,-1.4968,-1.4968,-1.4968,-1.4968,-1.4968,-1.5065,-1.5244,-1.5374,-1.5561,-1.578,-1.591,-1.6237,-1.6772,-1.6772,-1.7126,-1.7836,-1.9048,-1.9749,-2.0166,0.0,0.0,0.0,0.0,0.0,0.0,-1.243,-1.3027,-1.3919,-1.4888,-1.471,-1.4629,-1.4968,-1.3908,-1.32,-1.3186,-1.1837,0.0,0.0,0.0,0.0,0.0,0.0,0.0,0.0,0.0,-1.2144,-1.1899,-1.2489,-1.251,-1.1972,-1.0758,-0.9948,-0.9439,0.0,0.0,0.0,0.0,0.0,0.0,0.0,0.0,0.0,0.0,0.0,0.0,0.0,0.0,0.0,0.0,0.0,0.0,0.0,-0.1524,-0.1452,-0.0547,-0.0345,-0.0415,-0.0489,-0.0997,-0.1826,-0.2839,-0.4098,-0.5001,-0.4851,-0.5234,-0.5536,-0.5418,-0.5382,-0.5382,-0.5382,-0.5524,-0.5671,-0.5765,-0.5933,-0.6149,-0.6481,-0.7566,-0.896,-1.0413,-1.159,-1.278,-1.4035,-1.401,-1.3977,-1.4164,-1.4343,-1.4513,-1.47,-1.4871,-1.4968,-1.4968,-1.4968,-1.4968,-1.4968,-1.4968,-1.4968,-1.4968,-1.4968,-1.4968,-1.4968,-1.4968,-1.5065,-1.5236,-1.5166,-1.5447,-1.5772,-1.5772,-1.6918,-1.8545,-1.8545,-1.9813,-2.1648,-2.1648,-2.18,-2.2338,0.0,0.0,0.0,0.0,0.0,0.0,0.0,-1.2412,-1.3039,-1.3948,-1.3933,-1.4066,-1.4603,-1.3975,-1.3587,-1.3788,-1.2625,0.0,0.0,0.0,0.0,0.0,0.0,0.0,0.0,-1.2011,-1.2358,-1.304,-1.3267,-1.311,-1.2668,-1.1291,-1.0202,-0.9241,-0.7829,-0.7248,0.0,0.0,0.0,0.0,0.0,0.0,0.0,0.0,0.0,0.0,0.0,0.0,0.0,0.0,0.0,0.0,0.0,0.0,0.0,-0.1262,-0.1242,-0.137,-0.1385,-0.1842,-0.2555,-0.3336,-0.4121,-0.4846,-0.5214,-0.5396,-0.5516,-0.5406,-0.5382,-0.5398,-0.5455,-0.5467,-0.5553,-0.5831,-0.5872,-0.623,-0.7294,-0.8666,-1.0003,-1.1409,-1.2755,-1.3735,-1.418,-1.401,-1.3977,-1.4164,-1.4335,-1.4513,-1.47,-1.4871,-1.4968,-1.4968,-1.4968,-1.4968,-1.4968,-1.4968,-1.4968,-1.4968,-1.4968,-1.4968,-1.4968,-1.4968,-1.5,-1.5057,-1.5187,-1.5374,-1.569,-1.7003,-1.7962,-1.8717,-2.0171,-2.1093,-2.1845,-2.3246,-2.3891,-2.4341,0.0,0.0,0.0,0.0,0.0,0.0,0.0,-1.2245,-1.2665,-1.3227,-1.34,-1.3706,-1.4399,-1.3946,-1.3773,-1.4215,-1.3467,0.0,0.0,0.0,0.0,0.0,0.0,0.0,-1.2291,-1.2345,-1.2799,-1.36,-1.372,-1.3442,-1.2732,-1.1652,-1.0342,-0.8869,-0.7739,-0.7244,0.0,0.0,0.0,0.0,0.0,0.0,-0.6334,0.0,0.0,0.0,0.0,0.0,0.0,0.0,0.0,0.0,0.0,0.0,0.0,0.0,-0.162,-0.1774,-0.2041,-0.2591,-0.3327,-0.3905,-0.4555,-0.5093,-0.5414,-0.5484,-0.5435,-0.5349,-0.5357,-0.5406,-0.5492,-0.5492,-0.5565,-0.5823,-0.5847,-0.6315,-0.7762,-0.9099,-1.0655,-1.2466,-1.3499,-1.4075,-1.4075,-1.3969,-1.3953,-1.4066,-1.4237,-1.4416,-1.4594,-1.4773,-1.4903,-1.496,-1.4968,-1.4968,-1.4968,-1.4968,-1.4968,-1.4968,-1.4968,-1.4968,-1.4968,-1.4968,-1.4968,-1.4968,-1.5082,-1.5668,0.0,-1.7765,-1.9223,-2.0874,-2.2166,-2.3165,-2.4092,-2.536,-2.6012,-2.6394,0.0,0.0,0.0,0.0,0.0,0.0,0.0,-1.2521,-1.2871,-1.2898,-1.3052,-1.3534,-1.4362,-1.3946,-1.3853,-1.4442,0.0,0.0,0.0,0.0,0.0,0.0,0.0,0.0,-1.2345,-1.2933,-1.3347,-1.364,-1.4015,-1.3547,-1.226,-1.1836,-1.0457,-0.8312,-0.7746,-0.7326,0.0,0.0,0.0,0.0,-0.7448,-0.7394,0.0,0.0,0.0,0.0,0.0,0.0,0.0,0.0,0.0,0.0,0.0,0.0,0.0,0.0,0.0,0.0,0.0,-0.3206,-0.3969,-0.4551,-0.5129,-0.5516,-0.5496,-0.5418,0.0,-0.5204,-0.5312,-0.5402,-0.55,-0.5582,-0.5671,-0.5782,-0.5872,-0.6456,-0.7907,-0.9318,-1.1097,-1.3602,-1.3904,-1.3904,-1.392,-1.3912,-1.3904,-1.3904,-1.4075,-1.4253,-1.4424,-1.4611,-1.4789,-1.496,-1.4968,-1.4968,-1.4968,-1.4968,-1.4968,-1.4968,-1.4968,-1.5045,-1.5198,-1.5045,-1.5122,-1.5344,-1.519,-1.6328,-1.8346,-1.8425,-2.0793,-2.4238,-2.4413,-2.5811,-2.7696,-2.7722,-2.7993,-2.8318,0.0,0.0,0.0,0.0,0.0,0.0,0.0,0.0,0.0,0.0,-1.3402,-1.3373,-1.376,-1.3935,-1.4041,0.0,0.0,0.0,0.0,0.0,0.0,0.0,0.0,0.0,-1.269,-1.3227,-1.364,-1.3988,-1.4723,-1.4124,-1.2204,-1.2128,-1.0518,-0.7759,-0.7556,-0.7235,0.0,0.0,0.0,0.0,-0.7132,-0.7159,0.0,0.0,0.0,0.0,-0.2106,-0.1391,0.0,0.0,0.0,0.0,0.0,0.0,0.0,0.0,-0.1745,-0.2262,-0.2845,0.0,-0.3588,-0.4186,-0.4756,-0.5145,0.0,-0.5186,-0.5186,-0.518,-0.5204,-0.5289,-0.5512,-0.5573,-0.5639,-0.5879,-0.5944,-0.6746,-0.9084,-1.1321,-1.2998,-1.3792,-1.3904,-1.3953,-1.4099,-1.3985,-1.3904,-1.3904,-1.4075,-1.4253,-1.4424,-1.4611,-1.4789,-1.496,-1.4968,-1.4968,-1.4968,-1.4968,-1.4968,-1.4968,-1.4968,-1.565,-1.6797,-1.5573,-1.633,-1.8603,-1.7398,-1.8184,-2.0453,-2.1727,-2.314,-2.4775,-2.6318,-2.7244,-2.7722,-2.7949,-2.8335,-2.8655,0.0,0.0,0.0,0.0,0.0,0.0,0.0,0.0,0.0,0.0,0.0,-1.365,-1.3427,-1.3828,0.0,0.0,0.0,0.0,0.0,0.0,0.0,0.0,0.0,-1.32,-1.2797,-1.3467,-1.3904,-1.4111,-1.4467,-1.3798,-1.2172,-1.1711,-1.0107,-0.759,-0.7299,-0.7041,0.0,0.0,0.0,-0.691,-0.7193,0.0,0.0,0.0,0.0,0.0,-0.2569,-0.1767,0.0,-0.1427,-0.1433,-0.1385,0.0,0.0,0.0,0.0,-0.1792,-0.2378,-0.2972,-0.3448,-0.3878,-0.447,-0.4825,-0.5047,-0.5096,-0.5075,-0.5059,-0.5108,-0.5132,-0.5257,-0.5483,-0.561,-0.5712,-0.5891,-0.6471,-0.7816,-1.0376,-1.2436,-1.3639,-1.388,-1.3904,-1.3945,-1.4042,-1.3961,-1.3904,-1.3904,-1.3993,-1.4164,-1.4416,-1.4529,-1.47,-1.496,-1.4968,-1.4968,-1.4968,-1.4968,-1.5344,-1.6109,-1.6109,-1.694,-1.8461,-1.7616,-1.8148,-1.9747,-1.9018,-1.9997,-2.2224,-2.3289,-2.4634,-2.6134,-2.7297,-2.7789,-2.8006,-2.8335,-2.8655,-2.8824,0.0,0.0,0.0,0.0,0.0,0.0,0.0,0.0,0.0,0.0,0.0,0.0,0.0,0.0,0.0,0.0,0.0,0.0,0.0,0.0,0.0,0.0,-1.3666,-1.3467,-1.2998,-1.3694,-1.4002,-1.3886,-1.3742,-1.3051,-1.1901,-1.1123,-0.9649,-0.7645,-0.7125,-0.6865,-0.6736,0.0,-0.7244,-0.6883,-0.7305,0.0,0.0,0.0,0.0,0.0,0.0,0.0,0.0,-0.144,-0.1442,-0.1381,-0.1368,0.0,0.0,0.0,0.0,0.0,-0.3124,-0.3869,-0.4503,-0.4966,-0.5075,-0.5084,-0.5067,-0.5006,-0.4953,-0.5021,-0.5116,-0.5249,-0.5492,-0.568,-0.5835,-0.5941,-0.7252,-0.9125,-1.1439,-1.2835,-1.3669,-1.3839,-1.3863,-1.3888,-1.3937,-1.392,-1.3904,-1.3904,-1.3904,-1.4058,-1.4416,-1.4432,-1.4594,-1.4952,-1.5267,-1.5344,-1.5344,-1.5344,-1.6186,-1.7778,-1.7778,-1.8613,-2.0188,-1.9887,-2.0135,-2.0631,-2.0615,-2.1866,-2.4024,-2.4338,-2.5732,-2.7762,-2.7762,-2.8006,-2.8318,-2.8655,-2.8908,-2.916,0.0,0.0,0.0,0.0,0.0,0.0,0.0,0.0,0.0,0.0,0.0,0.0,0.0,0.0,0.0,0.0,0.0,0.0,0.0,0.0,0.0,-1.4015,-1.4015,-1.3975,-1.3881,-1.3847,-1.3574,-1.2985,-1.3321,-1.2415,-1.0518,-1.085,-0.9955,-0.7894,-0.7321,-0.691,-0.6709,-0.6797,-0.6797,-0.6742,-0.681,0.0,0.0,0.0,0.0,0.0,0.0,0.0,0.0,-0.1343,-0.1359,-0.1384,-0.135,0.0,0.0,0.0,0.0,0.0,-0.3574,-0.4338,-0.487,-0.4845,-0.4937,-0.4973,-0.4896,-0.4817,-0.4879,-0.4957,-0.5116,-0.5265,-0.552,-0.5774,-0.5949,-0.6112,-0.8063,-0.9968,-1.1157,-1.2519,-1.3482,-1.366,-1.3685,-1.3798,-1.4107,-1.3993,-1.3904,-1.3904,-1.3904,-1.4058,-1.4416,-1.4432,-1.4594,-1.4952,-1.6339,-1.7026,-1.7026,-1.7026,-1.7854,-1.9434,-1.9434,-2.0263,-2.1775,-2.0414,-2.1441,-2.4246,-2.2912,-2.3798,-2.628,-2.6333,-2.7023,-2.8154,-2.8154,-2.8362,-2.874,-2.874,-2.9328,-3.0012,0.0,0.0,0.0,0.0,0.0,0.0,0.0,0.0,0.0,0.0,0.0,0.0,0.0,0.0,0.0,0.0,0.0,0.0,0.0,0.0,-1.4229,-1.4593,-1.4402,-1.4156,-1.387,-1.423,-1.3848,-1.2632,-1.2779,-1.1965,-1.0256,-0.9517,-0.8706,-0.7773,-0.7082,-0.6702,-0.658,-0.6668,-0.6654,-0.6586,0.0,0.0,0.0,0.0,0.0,0.0,0.0,0.0,0.0,0.0,-0.1355,-0.138,-0.1324,0.0,0.0,0.0,0.0,0.0,-0.3687,-0.432,-0.4855,-0.4957,-0.5124,-0.5251,-0.5206,-0.5161,-0.5141,-0.5186,-0.5296,-0.5455,-0.5676,-0.5827,-0.638,-0.7907,-0.8978,-1.0274,-1.2135,-1.2903,-1.3327,-1.3542,-1.3574,-1.3742,-1.4002,-1.3953,-1.3904,-1.3904,-1.3904,-1.4018,-1.4278,-1.5251,-1.5878,-1.6161,-1.7786,-1.9132,-1.9962,-1.9962,-2.0338,-2.1089,-2.1089,-2.1995,-2.3729,-2.2967,-2.3656,-2.5317,-2.47,-2.5387,-2.6932,-2.7015,-2.7566,-2.8257,-2.8419,-2.8655,-2.8824,-2.9328,-2.9998,-3.0499,0.0,0.0,0.0,0.0,0.0,0.0,0.0,0.0,0.0,0.0,0.0,0.0,0.0,0.0,0.0,0.0,0.0,0.0,0.0,-1.4082,-1.4322,-1.4843,-1.471,-1.4484,-1.4195,-1.4592,-1.4161,-1.2782,-1.2597,-1.1819,-1.0345,-0.8855,-0.7999,-0.7617,-0.6898,-0.6539,-0.6518,-0.6559,-0.6552,-0.6518,0.0,0.0,0.0,0.0,0.0,0.0,0.0,0.0,0.0,0.0,0.0,0.0,0.0,0.0,0.0,-0.2055,-0.2673,-0.343,-0.3768,-0.4269,-0.4745,-0.5035,-0.5247,-0.5398,-0.5463,-0.5394,-0.5337,-0.5398,-0.548,-0.5594,-0.5778,-0.5921,-0.6792,-0.9336,-0.9605,-1.0392,-1.2911,-1.3124,-1.3173,-1.3539,-1.3579,-1.366,-1.388,-1.3904,-1.3904,-1.3904,-1.3904,-1.4121,-1.4664,-1.6077,-1.7154,-1.7589,-1.9382,-2.0939,-2.2223,-2.2595,-2.2757,-2.2757,-2.2818,-2.3642,-2.509,-2.5219,-2.5496,-2.5792,-2.6162,-2.6629,-2.7248,-2.754,-2.7935,-2.8482,-2.8868,-2.8992,-2.9244,-2.9998,-3.0499,-3.0817,0.0,0.0,0.0,0.0,0.0,0.0,0.0,0.0,0.0,0.0,0.0,0.0,0.0,0.0,0.0,0.0,0.0,0.0,0.0,-1.4082,-1.4229,-1.4536,-1.4803,-1.5219,-1.5725,-1.4764,-1.4068,-1.3595,-1.3164,-1.2184,-1.0639,-1.0079,-0.9095,-0.7767,-0.7163,-0.6736,-0.6504,-0.6381,-0.6402,-0.6504,-0.6381,0.0,0.0,0.0,0.0,0.0,0.0,0.0,0.0,0.0,0.0,0.0,0.0,0.0,-0.2139,-0.2455,-0.2927,-0.3444,-0.4156,-0.4461,-0.4667,-0.5018,-0.5059,-0.5075,-0.5333,-0.5255,-0.5198,-0.5447,-0.5569,-0.5633,-0.5876,-0.6117,-0.701,-0.9187,-0.9551,-1.0373,-1.2534,-1.2798,-1.2986,-1.3344,-1.3392,-1.3522,-1.3863,-1.3904,-1.3904,-1.3904,-1.3904,-1.4614,-1.6155,-1.6651,-1.7595,-1.916,-2.1038,-2.2073,-2.2223,-2.3661,-2.4414,-2.4414,-2.4767,-2.4988,-2.509,-2.5737,-2.6189,-2.6553,-2.694,-2.7443,-2.8016,-2.8351,-2.8658,-2.8965,-2.9286,-2.9747,-3.0179,-3.0582,-3.0734,-3.0817,0.0,0.0,0.0,0.0,0.0,0.0,0.0,0.0,0.0,0.0,0.0,0.0,0.0,0.0,0.0,0.0,0.0,0.0,0.0,-1.4082,-1.4295,-1.4776,-1.4763,-1.4963,-1.5367,-1.457,-1.401,-1.374,-1.3195,-1.2158,-1.0808,-1.0179,-0.9068,-0.7645,-0.6865,-0.6607,-0.6736,-0.6443,-0.6436,-0.6559,-0.5811,-0.5331,0.0,0.0,0.0,0.0,0.0,0.0,0.0,0.0,-0.1287,-0.1299,-0.128,-0.1617,-0.2049,-0.2441,-0.2823,-0.3359,-0.4059,-0.4418,-0.4659,-0.5018,-0.5169,-0.5284,-0.5496,-0.5537,-0.5586,-0.5802,-0.577,-0.5835,-0.5904,-0.6137,-0.7015,-0.9068,-0.9502,-1.0373,-1.2503,-1.2774,-1.297,-1.3327,-1.3368,-1.3514,-1.3863,-1.3904,-1.3904,-1.3904,-1.3904,-1.4563,-1.6121,-1.7387,-1.891,-2.0616,-2.2508,-2.3628,-2.4031,-2.4884,-2.5425,-2.5648,-2.5248,-2.5429,-2.6022,-2.6284,-2.6721,-2.7231,-2.7387,-2.7748,-2.8253,-2.8523,-2.8804,-2.9204,-2.9715,-3.0165,-3.0582,-3.0749,-3.0817,-3.0817,0.0,0.0,0.0,0.0,0.0,0.0,0.0,0.0,0.0,0.0,0.0,0.0,0.0,0.0,0.0,0.0,0.0,0.0,-1.4124,-1.4082,-1.4309,-1.4803,-1.4686,-1.4727,-1.507,-1.4463,-1.4191,-1.436,-1.4135,-1.3143,-1.1442,-1.0779,-0.9479,-0.7706,-0.6898,-0.6736,-0.7041,-0.6593,-0.6546,-0.6672,-0.549,-0.4905,0.0,0.0,0.0,0.0,0.0,0.0,0.0,0.0,-0.1319,-0.1286,-0.1314,-0.1685,-0.2187,-0.2431,-0.2999,-0.365,-0.4194,-0.4475,-0.4736,-0.5067,-0.5247,-0.539,-0.554,-0.5692,-0.5798,-0.5948,-0.594,-0.5953,-0.5921,-0.6112,-0.6964,-0.906,-0.9531,-1.0373,-1.2503,-1.2774,-1.2946,-1.3246,-1.3287,-1.3425,-1.3782,-1.3823,-1.3847,-1.3896,-1.3904,-1.4742,-1.6715,-1.818,-2.0058,-2.2275,-2.3805,-2.4893,-2.5511,-2.5778,-2.6135,-2.6556,-2.6027,-2.6093,-2.6813,-2.7065,-2.7373,-2.779,-2.7947,-2.8182,-2.8475,-2.8768,-2.911,-2.9665,-3.0213,-3.0582,-3.0817,-3.0817,-3.0817,-3.0817,0.0,0.0,0.0,0.0,0.0,0.0,0.0,0.0,0.0,0.0,0.0,0.0,0.0,0.0,0.0,0.0,0.0,0.0,-1.4166,-1.4082,-1.4215,-1.4496,-1.4568,-1.4714,-1.4997,-1.4489,-1.4648,-1.5493,-1.6287,-1.5294,-1.2605,-1.2104,-1.0476,-0.7961,-0.7361,-0.7224,-0.7385,-0.6892,-0.679,-0.677,-0.5489,-0.4624,-0.398,0.0,0.0,0.0,0.0,0.0,0.0,0.0,-0.1281,-0.1302,-0.1292,-0.1912,-0.2602,-0.26,-0.3459,-0.4404,-0.454,-0.4696,-0.4849,-0.512,-0.5192,-0.5265,-0.5528,-0.5588,-0.5665,-0.5936,-0.5992,-0.5964,-0.5933,-0.6059,-0.6883,-0.9048,-0.9531,-1.0373,-1.2503,-1.2774,-1.2897,-1.3076,-1.3092,-1.3238,-1.3542,-1.3574,-1.3717,-1.3888,-1.3904,-1.523,-1.8239,-1.9019,-2.0911,-2.4225,-2.4955,-2.5632,-2.6336,-2.6336,-2.657,-2.7186,-2.7186,-2.7186,-2.7277,-2.7976,-2.8289,-2.8368,-2.8744,-2.8886,-2.8915,-2.9251,-2.9764,-3.046,-3.07,-3.0817,-3.0817,-3.0817,-3.0817,-3.0817,0.0,0.0,0.0,0.0,0.0,0.0,0.0,0.0,0.0,0.0,0.0,0.0,0.0,0.0,0.0,0.0,0.0,0.0,-1.4417,-1.3981,-1.368,-1.3601,-1.3815,-1.4117,-1.4449,-1.468,-1.4801,-1.4811,-1.572,-1.4858,-1.2383,-1.1765,-1.0218,-0.7999,-0.7519,-0.7272,-0.7197,-0.6959,-0.6495,-0.5841,-0.4769,-0.3819,-0.2953,0.0,0.0,0.0,0.0,0.0,0.0,0.0,0.0,0.0,-0.1622,-0.1987,-0.2398,-0.2844,-0.3309,-0.3753,-0.4022,-0.4459,-0.4804,-0.4885,-0.5285,-0.572,-0.5737,-0.579,-0.5876,-0.596,-0.5992,-0.5964,-0.5933,-0.6059,-0.6883,-0.9048,-0.9531,-1.0373,-1.2503,-1.2774,-1.2897,-1.3076,-1.3092,-1.3238,-1.3542,-1.3574,-1.3717,-1.3888,-1.5097,-1.6705,-1.8648,-2.0191,-2.2135,-2.4636,-2.4889,-2.5566,-2.6709,-2.6937,-2.7402,-2.8048,-2.825,-2.8288,-2.799,-2.8168,-2.8431,-2.8744,-2.8808,-2.8886,-2.893,-2.9486,-3.0049,-3.046,-3.07,-3.0817,-3.0817,-3.0817,-3.0817,-3.0817,0.0,0.0,0.0,0.0,0.0,0.0,0.0,0.0,0.0,0.0,-1.9091,-1.884,0.0,0.0,0.0,0.0,0.0,0.0,-1.4521,-1.3839,-1.34,-1.3347,-1.3474,-1.3809,-1.4374,-1.4727,-1.4769,-1.4519,-1.5428,-1.4582,-1.2155,-1.1908,-1.0578,-0.8343,-0.8098,-0.7822,-0.757,-0.7305,-0.6834,-0.6198,-0.4696,-0.3787,-0.3203,0.0,0.0,0.0,0.0,0.0,0.0,0.0,0.0,0.0,-0.1765,-0.2,-0.2253,-0.3103,-0.3509,-0.3824,-0.437,-0.4814,-0.512,-0.5192,-0.5537,-0.5823,-0.5876,-0.5904,-0.5933,-0.5928,-0.5936,-0.592,-0.5929,-0.6059,-0.6755,-0.8475,-0.9205,-1.0174,-1.1901,-1.2503,-1.2807,-1.2978,-1.2994,-1.3108,-1.3392,-1.349,-1.3751,-1.4206,-1.575,-1.751,-1.9422,-2.118,-2.3064,-2.5257,-2.5613,-2.6228,-2.7283,-2.76,-2.8071,-2.8622,-2.8798,-2.873,-2.851,-2.851,-2.8666,-2.8886,-2.8886,-2.8886,-2.8944,-2.9588,-2.9983,-3.0203,-3.0642,-3.0817,-3.0817,-3.0817,-3.0817,-3.0817,0.0,0.0,0.0,0.0,0.0,0.0,0.0,0.0,0.0,-1.9292,-1.9274,-1.9256,0.0,0.0,0.0,-1.7957,-1.654,-1.5342,-1.4515,-1.366,-1.3333,-1.3547,-1.3476,-1.3786,-1.4544,-1.4557,-1.4515,-1.4442,-1.5179,-1.4262,-1.1859,-1.2206,-1.1093,-0.8891,-0.8863,-0.8601,-0.8211,-0.7726,-0.7476,-0.7197,-0.4975,-0.4193,-0.4108,-0.2163,0.0,0.0,0.0,0.0,0.0,0.0,0.0,0.0,-0.1765,-0.1926,-0.2206,-0.3253,-0.391,-0.4376,-0.5036,-0.539,-0.56,-0.5827,-0.5769,-0.5673,-0.5924,-0.5916,-0.5921,-0.5929,-0.5925,-0.5916,-0.5916,-0.6059,-0.6567,-0.765,-0.8819,-0.9975,-1.1035,-1.2099,-1.2774,-1.2774,-1.2774,-1.2905,-1.3076,-1.3246,-1.3778,-1.4762,-1.6187,-1.7994,-2.0462,-2.2096,-2.3934,-2.5984,-2.6677,-2.7305,-2.7874,-2.8195,-2.8593,-2.8886,-2.8886,-2.8886,-2.8886,-2.8886,-2.8886,-2.8886,-2.8886,-2.8886,-2.8944,-2.9588,-2.9866,-2.9925,-3.0568,-3.0817,-3.0817,-3.0817,-3.0817,-3.0817,0.0,0.0,0.0,0.0,0.0,0.0,0.0,0.0,-1.935,-1.9311,-1.9036,-1.8834,-1.8834,-1.876,0.0,-1.7311,-1.6322,-1.5325,-1.4267,-1.3574,-1.324,-1.3267,-1.3878,-1.4223,-1.4226,-1.4226,-1.4093,-1.3786,-1.3514,-1.2724,-1.1472,-1.0707,-0.9879,-0.9028,-0.844,-0.7972,-0.7589,-0.721,-0.646,-0.5482,-0.4489,-0.3648,-0.2881,-0.1818,-0.134,0.0,0.0,0.0,0.0,0.0,0.0,0.0,-0.1765,-0.2213,-0.2646,-0.2721,-0.3574,-0.447,-0.4127,-0.4719,-0.5447,-0.5488,-0.568,-0.5876,-0.5933,-0.5933,-0.5937,-0.5948,-0.5965,-0.5916,-0.5916,-0.6059,-0.6567,-0.765,-0.8819,-0.9975,-1.1035,-1.2099,-1.2774,-1.2774,-1.2774,-1.2905,-1.3076,-1.3133,-1.3686,-1.4938,-1.7508,-1.9678,-2.115,-2.3833,-2.5653,-2.6343,-2.6822,-2.7305,-2.7874,-2.8195,-2.8593,-2.8886,-2.8886,-2.8886,-2.8886,-2.8886,-2.8886,-2.8886,-2.8886,-2.8886,-2.8944,-2.9588,-2.9866,-2.9925,-3.0568,-3.0817,-3.0817,-3.0817,-3.0817,-3.0817,0.0,0.0,0.0,0.0,0.0,0.0,0.0,0.0,-1.9854,-1.9485,-1.9001,-1.865,-1.8411,-1.8082,0.0,0.0,-1.571,-1.473,-1.4196,-1.3417,-1.312,-1.336,-1.4079,-1.4322,-1.3881,-1.3734,-1.352,-1.3213,-1.2059,-1.1394,-1.1214,-1.0241,-0.9475,-0.8952,-0.8393,-0.7862,-0.7405,-0.7129,-0.6331,-0.5283,-0.4454,-0.3591,-0.2685,-0.1719,-0.1335,-0.1314,-0.1268,0.0,0.0,0.0,0.0,0.0,0.0,0.0,-0.2131,-0.2583,-0.3141,-0.3648,-0.4062,-0.4612,-0.5191,-0.5548,-0.5778,-0.5916,-0.5916,-0.5916,-0.5933,-0.5916,-0.5949,-0.5916,-0.5916,-0.6059,-0.6374,-0.6947,-0.8492,-0.9775,-1.0373,-1.1769,-1.2774,-1.2774,-1.2774,-1.3005,-1.3419,-1.3511,-1.4196,-1.5769,-1.8429,-2.0354,-2.109,-2.4211,-2.5953,-2.591,-2.6894,-2.7613,-2.7874,-2.8417,-2.8739,-2.8886,-2.8886,-2.8886,-2.8886,-2.8886,-2.8886,-2.8886,-2.8886,-2.8886,-2.8944,-2.9588,-2.9866,-2.9925,-3.0568,-3.0817,-3.0817,-3.0817,-3.0817,-3.0817,0.0,0.0,0.0,0.0,0.0,0.0,0.0,0.0,0.0,-1.9606,-1.9081,-1.8542,-1.7972,-1.7312,-1.6784,0.0,0.0,0.0,-1.4049,-1.3297,-1.3092,-1.3507,-1.3999,-1.4053,-1.3613,-1.3307,-1.3026,-1.2864,-1.1055,-1.0402,-1.093,-1.0007,-0.9266,-0.8723,-0.8309,-0.7823,-0.7278,-0.7004,-0.6473,-0.5648,-0.45,-0.3664,-0.3005,-0.1777,-0.1276,-0.1281,-0.1223,-0.1182,-0.1205,-0.1211,0.0,0.0,0.0,0.0,-0.1498,-0.2398,-0.2593,-0.2779,-0.3974,-0.4535,-0.4962,-0.5722,-0.5916,-0.5916,-0.5916,-0.5916,-0.5916,-0.5916,-0.5916,-0.5916,-0.5916,-0.6059,-0.6246,-0.6438,-0.823,-0.9643,-0.9842,-1.1571,-1.2774,-1.2774,-1.2898,-1.3227,-1.3809,-1.4126,-1.5002,-1.6614,-1.8857,-2.0364,-2.0945,-2.4008,-2.5641,-2.5405,-2.715,-2.8175,-2.8326,-2.8964,-2.9353,-2.9353,-2.9197,-2.9042,-2.8886,-2.8886,-2.8886,-2.8886,-2.8886,-2.8886,-2.8944,-2.9588,-2.9866,-2.9925,-3.0568,-3.0817,-3.0817,-3.0817,-3.0817,-3.0817,0.0,0.0,0.0,0.0,0.0,0.0,0.0,0.0,0.0,0.0,-1.9049,-1.8564,-1.7219,-1.6963,-1.6376,-1.5028,-1.4671,-1.4216,-1.3476,0.0,0.0,-1.3267,-1.3347,-1.3427,-1.36,-1.3093,-1.2958,-1.3146,-1.1,-1.0186,-1.0679,-0.9057,-0.8381,-0.8601,-0.7689,-0.7143,-0.6953,-0.637,-0.6065,-0.5841,-0.4291,-0.3695,-0.3504,-0.1899,-0.1284,-0.1213,-0.1216,-0.1205,-0.1213,-0.1202,-0.1215,0.0,0.0,0.0,-0.1702,-0.1499,-0.2146,-0.2895,-0.2695,-0.3644,-0.4931,-0.569,-0.5916,-0.5916,-0.5916,-0.5916,-0.5916,-0.5916,-0.5916,-0.5916,-0.5916,-0.6059,-0.6498,-0.7459,-0.8688,-0.9908,-1.0836,-1.2033,-1.2774,-1.2774,-1.3358,-1.3809,-1.3875,-1.4647,-1.5673,-1.6894,-1.8426,-1.9933,-2.1155,-2.3608,-2.5349,-2.6123,-2.803,-2.9361,-2.9943,-3.0725,-3.1071,-3.1071,-3.0299,-2.9586,-2.8886,-2.8886,-2.8886,-2.8886,-2.8886,-2.8886,-2.8944,-2.9588,-2.9866,-2.9925,-3.0568,-3.0817,-3.0817,-3.0817,-3.0817,-3.0817,0.0,0.0,0.0,0.0,0.0,0.0,0.0,0.0,0.0,0.0,0.0,-1.8602,-1.7384,-1.7037,-1.6442,-1.5331,-1.4496,-1.3588,-1.2577,-1.2652,-1.2772,-1.2985,-1.312,-1.3186,-1.3146,-1.2757,-1.2572,-1.2705,-1.0557,-0.9862,-1.047,-0.8556,-0.7906,-0.8296,-0.7446,-0.6937,-0.6641,-0.6118,-0.5572,-0.5012,-0.384,-0.3181,-0.2788,-0.164,-0.12,-0.1247,-0.1133,-0.1112,-0.1142,-0.1156,-0.1172,-0.1189,-0.1206,0.0,0.0,0.0,-0.1509,-0.2086,-0.2843,-0.3872,-0.4961,-0.5694,-0.5916,-0.5916,-0.5916,-0.5916,-0.5916,-0.5916,-0.5916,-0.5916,-0.5916,-0.6023,-0.6442,-0.764,-0.8756,-0.9952,-1.1021,-1.2099,-1.2774,-1.2774,-1.3424,-1.4071,-1.4408,-1.5309,-1.6295,-1.7297,-1.8696,-1.9644,-2.0056,-2.2921,-2.4778,-2.529,-2.7866,-2.957,-3.0315,-3.1029,-3.1148,-3.0686,-2.9819,-2.9275,-2.8886,-2.8886,-2.8886,-2.8886,-2.8886,-2.8886,-2.8944,-2.9588,-2.9866,-2.9925,-3.0568,-3.0817,-3.0817,-3.0817,-3.0817,-3.0817,0.0,0.0,0.0,0.0,0.0,0.0,0.0,0.0,0.0,0.0,0.0,-1.862,-1.7476,0.0,0.0,0.0,-1.431,-1.2949,-1.1836,-1.1957,-1.2211,-1.2543,-1.2746,-1.2759,-1.2569,-1.2342,-1.2158,-1.2078,-1.0183,-0.9638,-1.0269,-0.8408,-0.7777,-0.811,-0.7474,-0.6976,-0.6564,-0.6108,-0.544,-0.4673,-0.3635,-0.2935,-0.2396,-0.1522,-0.1254,-0.1335,-0.1111,-0.1078,-0.1151,-0.1119,-0.1125,-0.1185,-0.1179,-0.1137,0.0,0.0,0.0,-0.1381,-0.2862,-0.3836,-0.4615,-0.5432,-0.5754,-0.5859,-0.5908,-0.5916,-0.5916,-0.5916,-0.5916,-0.5916,-0.5916,-0.5928,-0.645,-0.7912,-0.8881,-1.0065,-1.1614,-1.2537,-1.3161,-1.3293,-1.4015,-1.4595,-1.5127,-1.6085,-1.6917,-1.7634,-1.8743,-1.9401,-1.9459,-2.2477,-2.4457,-2.4888,-2.7896,-2.9719,-3.0315,-3.1029,-3.0994,-3.0052,-2.9508,-2.9119,-2.8886,-2.8886,-2.8886,-2.8886,-2.8886,-2.8886,-2.8944,-2.9588,-2.9866,-2.9925,-3.0568,-3.0817,-3.0817,-3.0817,-3.0817,-3.0817,0.0,0.0,0.0,0.0,0.0,0.0,0.0,0.0,0.0,0.0,0.0,-1.8527,-1.7108,-1.623,-1.5735,-1.5698,-1.4074,-1.2568,-1.1491,-1.1429,-1.1597,-1.194,-1.1966,0.0,-1.1953,-1.194,-1.1757,-1.1442,-1.0147,-0.9665,-0.9998,-0.8608,-0.8034,-0.8157,-0.7756,-0.7291,-0.677,-0.6337,-0.5986,-0.5568,-0.3891,-0.3242,-0.319,-0.1949,-0.1482,-0.1441,-0.1277,-0.1223,-0.1271,-0.1151,-0.1113,-0.1119,-0.1117,-0.1103,-0.1104,0.0,0.0,0.0,-0.2136,-0.2809,-0.3537,-0.4575,-0.5245,-0.5645,-0.5876,-0.5916,-0.5916,-0.5916,-0.5916,-0.5916,-0.5916,-0.5928,-0.6679,-0.8682,-0.927,-1.0415,-1.3088,-1.3696,-1.4071,-1.4735,-1.5453,-1.5909,-1.5909,-1.6967,-1.7634,-1.7723,-1.8153,-1.9023,-2.0273,-2.2634,-2.4476,-2.5827,-2.8661,-3.024,-3.0315,-3.1029,-3.0994,-3.0129,-3.0052,-2.9664,-2.8886,-2.8886,-2.8886,-2.8886,-2.8886,-2.8886,-2.8944,-2.9588,-2.9866,-2.9925,-3.0568,-3.0817,-3.0817,-3.0817,-3.0817,-3.0817,0.0,0.0,0.0,0.0,0.0,0.0,0.0,0.0,0.0,0.0,0.0,0.0,0.0,-1.64,-1.5627,-1.5118,-1.3445,-1.1984,-1.094,-1.1049,-1.1276,-1.157,-1.1806,-1.1899,-1.1899,-1.1677,-1.1436,-1.1142,-1.005,-0.9498,-0.9547,-0.8609,-0.8085,-0.7916,-0.7599,-0.7303,-0.6954,-0.6294,-0.5897,-0.561,-0.3985,-0.3374,-0.325,-0.1927,-0.153,-0.1618,-0.1446,-0.1341,-0.128,-0.1236,-0.1156,-0.1111,-0.1088,-0.1058,-0.1017,-0.1007,-0.1044,-0.1261,-0.209,-0.2477,-0.2994,-0.4194,-0.4764,-0.5161,-0.5568,-0.579,-0.5916,-0.5916,-0.5916,-0.5916,-0.5916,-0.5945,-0.6602,-0.8783,-0.9186,-1.0136,-1.2596,-1.3397,-1.3873,-1.4193,-1.5313,-1.5974,-1.5974,-1.6907,-1.7561,-1.7712,-1.8024,-1.8519,-1.9326,-2.1781,-2.362,-2.4778,-2.7701,-2.9759,-3.0664,-3.0606,-3.0438,-3.0052,-2.9586,-2.9197,-2.8886,-2.8886,-2.8886,-2.8886,-2.8886,-2.8886,-2.8944,-2.9588,-2.9866,-2.9925,-3.0568,-3.0817,-3.0817,-3.0817,-3.0817,-3.0817,0.0,0.0,0.0,0.0,0.0,-2.2123,-2.146,-2.0962,-2.0224,-1.9188,0.0,0.0,0.0,0.0,-1.4995,-1.3998,-1.2827,-1.17,-1.0779,-1.0827,-1.1022,-1.1375,-1.161,-1.1717,-1.1717,-1.1623,-1.1329,-1.0881,-1.0118,-0.9683,-0.955,-0.8692,-0.8241,-0.8105,-0.7522,-0.7235,-0.7153,-0.6525,-0.6139,-0.5857,-0.4806,-0.4005,-0.3369,-0.2616,-0.2035,-0.1697,-0.1775,-0.1626,-0.1418,-0.162,-0.1497,-0.124,-0.1188,-0.1102,-0.0988,-0.0988,-0.1037,-0.118,-0.1764,-0.2097,-0.2532,-0.372,-0.4242,-0.4671,-0.5459,-0.5671,-0.5769,-0.5892,-0.5916,-0.5916,-0.5916,-0.5916,-0.661,-0.865,-0.9075,-0.9982,-1.2408,-1.3442,-1.4088,-1.4475,-1.5599,-1.6364,-1.6364,-1.6976,-1.7475,-1.7701,-1.7949,-1.84,-1.9204,-2.1719,-2.3856,-2.559,-2.7467,-2.8926,-3.0021,-2.9822,-2.9664,-2.9664,-2.9119,-2.8886,-2.8886,-2.8886,-2.8886,-2.8886,-2.8886,-2.8886,-2.8944,-2.9588,-2.9866,-2.9925,-3.0568,-3.0817,-3.0817,-3.0817,-3.0817,-3.0817,0.0,0.0,0.0,0.0,-2.3038,-2.2616,-2.1324,-2.115,-2.0375,-1.8238,0.0,0.0,0.0,0.0,0.0,-1.2531,-1.22,-1.1768,-1.1075,-1.076,-1.0854,-1.1362,-1.1375,-1.1375,-1.1375,-1.169,-1.1457,-1.0573,-1.0346,-1.0158,-1.002,-0.8846,-0.8477,-0.8684,-0.7511,-0.7133,-0.7359,-0.7086,-0.677,-0.6404,-0.6392,-0.5266,-0.3641,-0.4045,-0.314,-0.1776,-0.2322,-0.211,-0.1671,-0.2291,-0.2083,-0.1496,-0.134,-0.1165,-0.0988,-0.1021,-0.1012,-0.1009,0.0,0.0,0.0,-0.3109,-0.3595,-0.4216,-0.5483,-0.5545,-0.5467,-0.5831,-0.5904,-0.5904,-0.5916,-0.5916,-0.6526,-0.8471,-0.8952,-1.0032,-1.2636,-1.3959,-1.492,-1.5556,-1.6465,-1.699,-1.699,-1.7217,-1.7464,-1.769,-1.7938,-1.8647,-1.9993,-2.2454,-2.5325,-2.844,-2.8148,-2.802,-2.8341,-2.8739,-2.8886,-2.8886,-2.8886,-2.8886,-2.8886,-2.8886,-2.8886,-2.8886,-2.8886,-2.8886,-2.8944,-2.9588,-2.9866,-2.9925,-3.0568,-3.0817,-3.0817,-3.0817,-3.0817,-3.0817,0.0,0.0,0.0,-2.1943,-2.1983,-2.1503,-1.9555,-1.96,-1.9295,0.0,0.0,0.0,-1.5411,-1.4088,-1.3171,-1.2728,-1.2032,-1.1506,-1.1303,-1.0868,-1.076,-1.1102,-1.1116,-1.1116,-1.1116,-1.1196,-1.0915,-1.0234,-1.043,-0.9905,-0.881,-0.8688,-0.8266,-0.7494,-0.7161,-0.7033,-0.7082,-0.672,-0.6663,-0.6774,-0.5948,-0.5678,-0.564,-0.449,-0.4156,-0.4293,-0.37,-0.3334,-0.3055,-0.2726,-0.2415,-0.1988,-0.1365,-0.1097,-0.1054,-0.1361,-0.1268,-0.1133,-0.1376,0.0,0.0,0.0,0.0,0.0,-0.4215,-0.4649,-0.503,-0.552,-0.5573,-0.561,-0.5867,-0.5916,-0.6342,-0.7556,-0.8378,-0.9419,-1.1071,-1.2969,-1.4347,-1.4625,-1.5917,-1.6754,-1.6754,-1.6969,-1.7206,-1.7453,-1.754,-1.789,-1.8647,-2.1451,-2.4286,-2.6966,-2.7614,-2.7917,-2.8005,-2.8622,-2.8886,-2.8886,-2.8886,-2.8886,-2.8886,-2.8886,-2.8886,-2.8886,-2.8886,-2.8886,-2.8944,-2.9588,-2.9866,-2.9925,-3.0568,-3.0817,-3.0817,-3.0817,-3.0817,-3.0817,0.0,0.0,-2.1862,-2.1046,-2.1157,-2.0797,-1.9128,-1.9072,-1.8666,0.0,0.0,0.0,-1.4998,-1.3681,-1.2912,-1.3105,-1.1971,-1.1343,-1.1597,-1.0988,-1.072,-1.0982,-1.0995,-1.0995,-1.0995,-1.1116,-1.0889,-1.0301,-1.0626,-1.0245,-0.9256,-0.8865,-0.8307,-0.761,-0.695,-0.6735,-0.6849,-0.649,-0.6585,-0.6995,-0.7075,-0.6897,-0.6584,-0.6317,-0.6061,-0.5816,-0.5546,-0.5127,-0.4568,-0.4355,-0.3408,-0.232,-0.1823,-0.1379,-0.1077,-0.131,-0.1383,-0.1389,-0.1408,-0.1413,-0.1544,-0.1933,0.0,0.0,-0.395,-0.4369,-0.4751,-0.5647,-0.5749,-0.5778,-0.599,-0.6027,-0.621,-0.683,-0.8075,-0.9305,-1.032,-1.2515,-1.4033,-1.4166,-1.57,-1.6731,-1.6731,-1.6872,-1.7109,-1.7356,-1.7774,-1.8684,-2.0251,-2.2262,-2.4361,-2.6414,-2.732,-2.8103,-2.8897,-2.9412,-2.9745,-2.9881,-2.9881,-2.9571,-2.8886,-2.8886,-2.8886,-2.8886,-2.8886,-2.8886,-2.8944,-2.9588,-2.9866,-2.991,-3.0422,-3.07,-3.0817,-3.0817,-3.0817,-3.0817,0.0,0.0,-2.0914,-2.0201,-2.0467,-2.036,-1.9257,-1.8941,-1.8272,0.0,-1.637,-1.5758,-1.4727,-1.3574,-1.3132,-1.3653,-1.2118,-1.135,-1.1873,-1.1082,-1.0707,-1.0942,-1.0942,-1.0942,-1.0942,-1.1236,-1.1102,-1.0586,-1.0881,-1.0816,-1.046,-0.9204,-0.8506,-0.8313,-0.6913,-0.6448,-0.6637,-0.6351,-0.6571,-0.7241,-0.8787,-0.8459,-0.7183,-0.8613,-0.8237,-0.7016,-0.7633,-0.7155,-0.6255,-0.6373,-0.4698,-0.2605,-0.2559,-0.2026,-0.1371,-0.1308,-0.1593,-0.184,-0.1421,-0.1578,-0.1933,-0.2097,-0.2,0.0,-0.4024,-0.4275,-0.4494,-0.5678,-0.5974,-0.5986,-0.6039,-0.611,-0.6177,-0.6185,-0.7922,-0.9475,-1.008,-1.2376,-1.4014,-1.3986,-1.5597,-1.6688,-1.6688,-1.6829,-1.7066,-1.7313,-1.8345,-2.0141,-2.3079,-2.3954,-2.4988,-2.6414,-2.713,-2.8356,-3.0076,-3.0423,-3.0678,-3.1024,-3.1024,-3.0268,-2.8886,-2.8886,-2.8886,-2.8886,-2.8886,-2.8886,-2.893,-2.9515,-2.9793,-2.9895,-3.0261,-3.0568,-3.0817,-3.0817,-3.0817,-3.0817,-2.0529,-2.0525,-2.0204,-1.902,-1.9606,-1.9585,-1.7549,-1.7452,-1.7352,-1.6505,-1.5708,-1.5337,-1.5524,-1.4266,-1.3666,-1.4252,-1.2719,-1.1779,-1.1899,-1.1082,-1.0613,-1.068,-1.068,-1.068,-1.068,-1.0929,-1.0902,-1.0586,-1.0881,-1.0575,-0.9716,-0.9416,-0.8642,-0.7443,-0.7122,-0.6741,-0.6326,-0.6514,-0.7086,-0.7821,-0.804,-0.8484,-0.9057,-0.9015,-0.9237,-0.9483,-0.885,-0.8408,-0.8049,-0.6675,-0.4977,-0.3393,0.0,-0.2948,-0.299,-0.2715,-0.2679,-0.2733,-0.2663,-0.2541,-0.2363,-0.1977,-0.2127,0.0,-0.2445,-0.2849,-0.3468,-0.4146,-0.4473,-0.4777,-0.5141,-0.5696,-0.6098,-0.6179,-0.8139,-0.9633,-0.9431,-1.2215,-1.4185,-1.3944,-1.5391,-1.6377,-1.6377,-1.6592,-1.6829,-1.7055,-1.8231,-1.9875,-2.2039,-2.3332,-2.4764,-2.6414,-2.713,-2.7776,-2.8386,-2.8714,-2.9041,-2.9353,-2.9353,-2.9197,-2.8886,-2.8886,-2.8886,-2.8886,-2.8886,-2.8886,-2.89,-2.9032,-2.9383,-2.9925,-3.051,-3.0773,-3.0817,-3.0817,-3.0817,-3.0817,-1.9396,-1.9368,-1.9066,-1.7974,-1.837,-1.8484,-1.7319,-1.7218,-1.7133,-1.6787,-1.612,-1.5671,-1.5771,-1.4612,-1.3988,-1.4282,-1.2851,-1.1899,-1.1899,-1.1216,-1.068,-1.0354,-1.0519,-1.0586,-1.0586,-1.0734,-1.0814,-1.0814,-1.0366,-0.9895,-0.9381,-0.8567,-0.8291,-0.8405,-0.7028,-0.6836,-0.7502,-0.6654,-0.6784,-0.7553,-0.8365,-0.9283,-1.0173,-1.0356,-1.0677,-1.0982,-1.049,-0.9997,-0.9312,-0.7663,-0.6051,0.0,-0.4036,-0.3578,-0.3216,-0.3042,-0.3346,-0.3597,-0.2936,-0.317,-0.3488,-0.2917,-0.3009,0.0,0.0,-0.391,-0.4287,-0.5186,-0.5098,-0.5103,-0.5855,-0.6026,-0.6223,-0.6653,-0.8527,-0.9856,-0.9393,-1.2188,-1.4394,-1.4589,-1.5711,-1.6484,-1.6484,-1.67,-1.7119,-1.788,-1.9179,-2.068,-2.2321,-2.4025,-2.5354,-2.6252,-2.6896,-2.7822,-2.9122,-2.929,-2.9625,-3.0114,-3.0114,-2.9649,-2.8886,-2.8886,-2.8886,-2.8886,-2.8886,-2.8886,-2.89,-2.9061,-2.9427,-2.9895,-3.0217,-3.0539,-3.0817,-3.0817,-3.0817,-3.0817,-1.821,-1.811,-1.7924,-1.7122,-1.7332,-1.7596,-1.7514,-1.73,-1.7072,-1.6965,-1.6683,-1.6313,-1.5952,-1.5017,-1.4416,-1.4416,-1.3173,-1.2342,-1.2181,-1.157,-1.1089,-1.0696,-1.0621,-1.072,-1.1015,-1.0787,-1.0669,-1.0659,-0.98,-0.926,-0.9011,-0.7721,-0.785,-0.9052,-0.7038,-0.701,-0.8365,-0.6888,-0.6751,-0.7633,-0.9007,-0.986,-1.0379,-1.124,-1.1565,-1.1589,-1.1727,-1.1163,-1.0109,-0.8717,-0.7281,-0.5913,-0.51,-0.4239,0.0,0.0,0.0,-0.4572,-0.3497,-0.413,-0.4877,-0.4121,-0.4124,-0.4442,0.0,0.0,0.0,-0.6273,-0.594,-0.5698,-0.6592,-0.6514,-0.6497,-0.7056,-0.8754,0.0,0.0,-1.2112,0.0,-1.4669,-1.5909,-1.6666,-1.6474,-1.6667,-1.7431,-1.8916,-2.0067,-2.1384,-2.3024,-2.487,-2.5974,-2.6105,-2.6676,-2.7922,-2.9833,-2.9896,-3.0166,-3.0715,-3.0854,-3.0191,-2.8886,-2.8886,-2.8886,-2.8886,-2.8886,-2.8886,-2.8915,-2.9178,-2.9515,-2.9866,-2.9939,-3.032,-3.0817,-3.0817,-3.0817,-3.0817,-1.6824,-1.704,-1.7148,-1.6779,-1.7196,-1.7527,-1.7298,-1.6941,-1.6567,-1.6046,-1.6607,-1.6884,-1.6335,-1.5872,-1.5631,-1.5631,-1.4763,-1.3895,-1.3106,-1.2492,-1.2358,-1.2839,-1.1383,-1.1203,-1.2502,-1.1511,-1.0477,-0.9488,-0.9592,-0.9153,-0.8155,-0.7954,-0.7629,-0.7257,-0.7756,-0.7602,-0.6964,-0.7401,-0.8235,-0.9332,-0.9372,-0.92,0.0,-1.0306,-1.0818,-1.0899,-1.1549,-1.1163,-1.0169,0.0,-0.8251,-0.6679,0.0,-0.539,-0.5194,-0.4914,0.0,0.0,-0.5769,-0.6057,-0.6141,-0.511,-0.5067,-0.5018,-0.4193,0.0,-0.4873,-0.4925,0.0,-0.5652,0.0,0.0,0.0,0.0,0.0,0.0,-1.021,-1.1625,-1.2654,-1.2709,-1.5082,-1.642,-1.5785,-1.5935,-1.7008,-1.9182,-1.9523,-2.0847,-2.3653,-2.4899,-2.5857,-2.6427,-2.6808,-2.7232,-2.7822,-2.8103,-2.8352,-2.8721,-2.9064,-2.9042,-2.8886,-2.8886,-2.8886,-2.8886,-2.8886,-2.8886,-2.89,-2.893,-2.931,-2.9895,-3.0269,-3.051,-3.0817,-3.0817,-3.0817,-3.0817,-1.6325,-1.6649,-1.6773,-1.6516,-1.6684,-1.6918,-1.7152,-1.7181,-1.7061,-1.6647,-1.6965,-1.6978,-1.6388,-1.6005,-1.5765,-1.5591,-1.5084,-1.4335,-1.328,-1.2973,-1.2559,-1.1944,-1.1369,-1.1276,-1.1752,-1.0743,-1.0002,-0.9512,-0.8489,-0.7655,-0.706,-0.674,-0.7102,-0.7952,-0.7735,-0.8193,-0.9014,-0.8236,-0.8211,-0.8706,0.0,-0.8743,0.0,-1.0574,-1.1321,-1.1362,-1.1663,-1.1534,-1.1065,0.0,-0.9191,0.0,0.0,0.0,0.0,-0.6427,0.0,0.0,0.0,-0.693,-0.7438,-0.6317,-0.6483,-0.668,-0.5804,0.0,-0.5966,0.0,0.0,0.0,0.0,0.0,0.0,0.0,-0.8225,0.0,0.0,0.0,-1.2534,0.0,0.0,0.0,-1.558,-1.6226,-1.7428,-1.9272,-2.0017,-2.1356,-2.3502,-2.4984,-2.5944,-2.6208,-2.672,-2.7144,-2.7481,-2.7788,-2.8034,-2.837,-2.8739,-2.8886,-2.8886,-2.8886,-2.8886,-2.8886,-2.8886,-2.8886,-2.8886,-2.8886,-2.9281,-2.9881,-3.0012,-3.0378,-3.0817,-3.0817,-3.0817,-3.0817,-1.5879,-1.6252,-1.6394,-1.6201,-1.6219,-1.6496,-1.7005,-1.7208,-1.7235,-1.7005,-1.7032,-1.6911,-1.6433,-1.6273,-1.6139,-1.6005,-1.5852,-1.5263,-1.4122,-1.3748,-1.3267,-1.2585,-1.1904,-1.1611,-1.1774,-1.0547,-0.9648,-0.9107,-0.7572,-0.6632,-0.6221,-0.5789,-0.6463,-0.7958,-0.7572,-0.8376,-1.0066,-0.892,-0.8601,-0.8836,-0.9007,-0.9145,-0.9405,-1.0907,-1.1606,-1.1776,-1.1776,-1.1776,-1.1692,-1.0823,-0.9944,0.0,-0.8992,-0.8083,-0.726,0.0,0.0,0.0,-0.7238,-0.7945,-0.8511,-0.7293,-0.7463,-0.7739,-0.695,0.0,0.0,0.0,0.0,0.0,0.0,0.0,0.0,0.0,0.0,-0.8708,0.0,0.0,0.0,0.0,0.0,0.0,0.0,-1.595,-1.7291,-1.9398,-2.0273,-2.1589,-2.3718,-2.5236,-2.6018,-2.6018,-2.6647,-2.71,-2.7349,-2.7744,-2.799,-2.8315,-2.8695,-2.8886,-2.8886,-2.8886,-2.8886,-2.8886,-2.8886,-2.8886,-2.8886,-2.8886,-2.9281,-2.9866,-2.9866,-3.0573,-3.1482,-3.0984,-3.0817,-3.0817,-1.5297,-1.5645,-1.5845,-1.5798,-1.6086,-1.638,-1.6673,-1.6727,-1.6633,-1.6339,-1.654,-1.6714,-1.67,-1.6991,-1.7273,-1.7488,-1.7502,-1.7114,-1.6281,-1.511,-1.5084,-1.646,-1.352,-1.2466,-1.3696,-1.1537,-0.9457,-0.7554,-0.7324,-0.671,-0.5809,-0.5678,-0.5794,-0.623,-0.7305,-0.7988,-0.8416,-0.9218,-1.0079,-1.0842,-1.0509,-1.0891,-1.1598,0.0,-1.1167,-1.1776,-1.1776,0.0,0.0,-1.1175,-1.0506,0.0,0.0,0.0,0.0,0.0,0.0,0.0,-0.9296,-0.9405,-0.9211,-0.7845,-0.7634,-0.7584,-0.6617,0.0,-0.7642,0.0,0.0,0.0,0.0,0.0,0.0,0.0,0.0,0.0,0.0,0.0,0.0,0.0,0.0,0.0,0.0,-1.4393,-1.6097,0.0,-1.9802,-2.1248,-2.4838,-2.5666,-2.6018,-2.6018,-2.6647,-2.6998,-2.7013,-2.7627,-2.7874,-2.7903,-2.8593,-2.8886,-2.8886,-2.8886,-2.8886,-2.8886,-2.8886,-2.8886,-2.8886,-2.8886,-2.9281,-2.9866,-2.9866,-3.1305,-3.3101,-3.1399,-3.0817,-3.0817,-1.5324,-1.5631,-1.5784,-1.5784,-1.5752,-1.5858,-1.6339,-1.658,-1.6673,-1.6567,-1.682,-1.7045,-1.7045,-1.7313,-1.7475,-1.7569,-1.7582,-1.7208,-1.6375,-1.5712,-1.5431,-1.5551,-1.4177,-1.3194,-1.2826,-1.112,-0.9381,-0.763,-0.6898,-0.6234,-0.5666,-0.5896,-0.6061,-0.6207,-0.7525,-0.8452,-0.9086,-0.9697,-1.0225,0.0,0.0,-1.0761,-1.1256,0.0,-1.1565,-1.1776,-1.1776,-1.1776,0.0,-1.1565,-1.1149,-1.065,-1.0831,-1.0301,-0.9708,-1.0202,-1.0186,-0.9998,-1.0032,-1.0371,-1.0339,-0.8909,-0.8726,-0.8498,-0.7118,0.0,0.0,0.0,0.0,0.0,0.0,0.0,0.0,0.0,0.0,0.0,0.0,0.0,0.0,0.0,0.0,0.0,0.0,0.0,0.0,0.0,-2.1152,0.0,-2.4612,-2.5324,-2.5798,-2.6003,-2.6442,-2.6778,-2.6983,-2.7422,-2.7744,-2.7874,-2.8388,-2.8695,-2.8886,-2.8886,-2.8886,-2.8886,-2.8886,-2.8886,-2.8886,-2.8886,-2.9281,-2.9866,-2.9866,-3.129,-3.3347,-3.2705,-3.3265,-3.4278,-1.4151,-1.4503,-1.5001,-1.5538,-1.5524,-1.5565,-1.6046,-1.6366,-1.6553,-1.6553,-1.6807,-1.7085,-1.7192,-1.7367,-1.7527,-1.7569,-1.7582,-1.7301,-1.6683,-1.6206,-1.5912,-1.5799,-1.5022,-1.3937,-1.2671,-1.1438,-0.9787,-0.7705,-0.7007,-0.6417,-0.5952,-0.6162,-0.6297,-0.6401,-0.7383,-0.8371,-0.9347,-0.9886,-1.0396,0.0,0.0,-1.1053,0.0,0.0,-1.1654,-1.1516,0.0,-1.1776,-1.1776,-1.1776,-1.1549,-1.1321,-1.1663,-1.1355,-1.0865,-1.1151,-1.1069,-1.0737,-1.072,-1.0915,-1.085,-0.9673,-0.985,-0.9921,-0.8343,-0.8869,-0.9583,0.0,0.0,0.0,0.0,0.0,0.0,0.0,0.0,0.0,0.0,0.0,0.0,0.0,0.0,0.0,0.0,0.0,0.0,0.0,0.0,0.0,0.0,-2.5154,-2.5681,-2.6003,-2.6222,-2.6544,-2.6983,-2.7203,-2.7466,-2.7788,-2.8227,-2.8476,-2.8564,-2.8783,-2.8827,-2.8739,-2.8842,-2.8886,-2.8886,-2.8886,-2.9281,-2.9866,-2.9866,-3.1695,-3.4229,-3.3592,-3.4474,-3.6097,-1.1992,-1.2507,-1.3444,-1.5009,-1.5239,-1.5332,-1.5589,-1.5914,-1.6113,-1.6139,-1.6391,-1.6682,-1.709,-1.7116,-1.7288,-1.7555,-1.7582,-1.7462,-1.7246,-1.6683,-1.6616,-1.7192,-1.6072,-1.4814,-1.3353,-1.2398,-1.0559,-0.7718,-0.7549,-0.7163,-0.6582,-0.6475,-0.6468,-0.6595,-0.6898,-0.7813,-0.9137,-0.9673,-1.0623,-1.1776,-1.1776,-1.176,-1.1744,-1.1768,-1.1443,-1.1094,-1.1581,-1.1776,-1.1776,-1.1776,-1.1776,-1.1776,-1.1776,-1.1776,-1.1776,-1.1776,-1.1776,-1.1703,-1.1354,-1.1143,-1.085,-1.0128,-1.1,-1.1619,-1.012,-1.1531,-1.3025,0.0,0.0,0.0,0.0,0.0,0.0,0.0,0.0,0.0,0.0,0.0,0.0,0.0,0.0,0.0,0.0,0.0,0.0,0.0,0.0,0.0,0.0,-2.5052,-2.5579,-2.5974,-2.5988,-2.631,-2.6954,-2.6969,-2.7218,-2.7629,-2.811,-2.8256,-2.8069,-2.8593,-2.871,-2.8461,-2.8725,-2.8856,-2.8871,-2.8871,-2.9266,-2.9947,-3.0027,-3.2487,-3.5914,-3.4392,-3.4799,-3.6339,-1.1856,-1.208,-1.2472,-1.3112,-1.3113,-1.3136,-1.3442,-1.3556,-1.3739,-1.4116,-1.4327,-1.4943,-1.6098,-1.624,-1.6594,-1.7516,-1.7582,-1.7555,-1.7475,-1.7179,-1.7139,-1.7462,-1.6767,-1.5481,-1.3543,-1.2698,-1.0905,-0.8068,-0.7549,-0.7057,-0.6589,-0.6561,-0.6522,-0.6503,-0.7245,-0.817,-0.9137,-0.9811,-1.0745,-1.1776,-1.1776,-1.1533,-1.1282,0.0,-1.1443,-1.1094,-1.1581,-1.1776,-1.1776,-1.1776,-1.1776,-1.1776,-1.1776,-1.1776,-1.1776,-1.1776,-1.1776,-1.1784,-1.1817,-1.1792,-1.1614,-1.1029,-1.1655,-1.2206,-1.1231,-1.244,-1.3729,0.0,0.0,0.0,0.0,0.0,0.0,0.0,0.0,0.0,0.0,0.0,0.0,0.0,0.0,0.0,0.0,0.0,0.0,0.0,0.0,0.0,0.0,0.0,-2.4071,-2.5608,-2.5652,-2.5974,-2.6617,-2.6632,-2.7475,-2.9132,-2.8387,-2.867,-2.9957,-2.8998,-2.8505,-2.8355,-2.8271,-2.833,-2.8549,-2.8549,-2.9076,-3.0027,-3.1281,-3.4296,-3.8011,-3.8901,-3.9471,-3.9997,-1.0777,-1.0942,-1.122,-1.1627,-1.136,-1.1469,-1.2639,-1.2925,-1.3086,-1.3365,-1.3686,-1.4166,-1.4941,-1.5524,-1.618,-1.6776,-1.7305,-1.7528,-1.7447,-1.7407,0.0,-1.7447,-1.7194,-1.6098,-1.3843,-1.3325,0.0,-0.8581,-0.8063,-0.7469,-0.6844,-0.6713,-0.6615,-0.6571,-0.724,-0.7983,-0.882,-1.0065,-1.0922,-1.1443,-1.1679,-1.1598,0.0,-1.1722,-1.1589,-1.1362,-1.1671,-1.1776,-1.1776,-1.1776,-1.1776,-1.1776,-1.1776,-1.1776,-1.1776,-1.1776,-1.1776,-1.1817,-1.1979,-1.1971,-1.1866,-1.163,-1.2404,-1.3162,-1.2775,-1.3939,-1.5294,0.0,-1.5899,-1.5885,0.0,0.0,0.0,0.0,0.0,0.0,0.0,0.0,0.0,0.0,0.0,0.0,0.0,0.0,0.0,0.0,0.0,0.0,0.0,0.0,-2.3735,-2.5681,-2.533,-2.5825,-2.7398,-2.7195,-2.8139,-3.0244,-2.9822,-2.9797,-2.9992,-2.9425,-2.8746,-2.8022,-2.7888,-2.8063,-2.8432,-2.8432,-2.8915,-2.9916,-3.2714,-3.5701,-3.8803,-4.0529,-4.1289,-4.1543,-0.9469,-0.9657,-1.0004,-1.0527,-1.0081,-1.0319,-1.2344,-1.2822,-1.2997,-1.3029,-1.3393,-1.3687,-1.371,-1.487,-1.5755,-1.5914,-1.6935,-1.7475,-1.7273,-1.7487,-1.7527,-1.7273,-1.7501,-1.6499,-1.4137,-1.3932,-1.2273,0.0,-0.8721,-0.8044,-0.711,-0.6861,-0.6706,-0.6717,-0.709,-0.7724,-0.8609,-1.0241,-1.1045,-1.1175,-1.1589,-1.1776,-1.1776,-1.1776,-1.1776,-1.1776,-1.1776,-1.1776,-1.1776,-1.1776,-1.1776,-1.1776,-1.1776,-1.1776,-1.1776,-1.1776,-1.1776,-1.1809,-1.1955,-1.189,-1.1809,-1.1963,-1.3022,-1.4101,-1.4308,-1.558,-1.706,-1.8427,-1.809,-1.805,-1.9639,0.0,0.0,0.0,0.0,0.0,0.0,0.0,0.0,0.0,0.0,0.0,0.0,0.0,0.0,0.0,0.0,0.0,0.0,0.0,-2.3662,-2.5827,-2.5066,-2.5832,-2.8379,-2.8011,-2.8933,-3.1098,-3.1696,-3.1258,-2.9903,-3.0242,-2.9486,-2.7777,-2.8058,-2.8218,-2.8373,-2.8341,-2.8983,-3.0201,-3.4209,-3.694,-3.8803,-4.0529,-4.1445,-4.1855,-0.9762,-0.973,-0.9747,-0.9979,-0.992,-1.0102,-1.0756,-1.081,-1.0784,-1.0894,-1.1153,-1.1647,-1.2586,-1.3739,-1.4835,-1.5808,-1.6935,-1.7555,-1.7515,-1.7555,-1.7555,-1.7515,-1.7555,-1.6499,-1.4137,-1.3822,-1.2034,0.0,-0.8432,-0.7751,-0.6724,-0.6807,-0.6789,-0.6717,-0.722,-0.8243,-0.9657,-1.042,-1.1086,-1.1646,-1.1736,-1.1776,-1.1776,-1.1776,-1.1776,-1.1776,-1.1776,-1.1776,-1.1776,-1.1776,-1.1776,-1.1776,-1.1776,-1.1776,-1.1776,-1.1776,-1.1776,-1.1784,-1.1809,-1.1801,-1.1784,-1.1809,-1.2828,-1.4043,-1.5125,-1.6401,-1.779,-1.9272,-1.9439,-1.9158,-1.8488,0.0,0.0,0.0,0.0,0.0,0.0,0.0,0.0,0.0,0.0,0.0,0.0,0.0,0.0,0.0,0.0,0.0,0.0,0.0,-2.1729,0.0,-2.5134,-2.5742,0.0,0.0,-2.9526,-3.2258,-3.2052,-3.2468,-3.3251,-3.2179,-3.0841,-2.9352,-2.9325,-2.8818,-2.7976,-2.833,-2.9817,-3.2332,-3.6044,-3.7964,-3.8803,-4.0529,-4.1445,-4.1855,-0.9884,-1.0046,-1.0144,-1.0046,-1.0176,-1.0331,-1.0366,-1.0436,-1.0436,-1.0436,-1.0582,-1.0874,-1.1315,-1.2989,-1.4352,-1.4942,-1.6552,-1.7582,-1.7582,-1.7582,-1.7582,-1.7582,-1.7582,-1.6499,-1.4137,-1.3964,-1.2263,-0.9084,-0.8679,-0.7979,-0.6908,-0.6849,-0.6749,-0.6725,-0.7673,-0.8576,-0.9535,-1.0452,-1.1037,-1.1378,-1.1663,-1.1776,-1.1776,-1.1776,-1.1776,-1.1776,-1.1776,-1.1776,-1.1776,-1.1776,-1.1776,-1.1776,-1.1776,-1.1776,-1.1776,-1.1776,-1.1776,-1.1776,-1.1776,-1.1776,-1.1776,-1.1776,-1.2784,-1.4023,-1.5332,-1.6573,-1.7901,-1.9298,-1.9693,-1.9439,-1.8209,-1.6954,0.0,0.0,0.0,0.0,0.0,0.0,0.0,0.0,0.0,0.0,0.0,0.0,0.0,0.0,0.0,0.0,0.0,0.0,-2.1861,0.0,0.0,0.0,-2.9473,0.0,-3.1399,-3.3634,-3.3922,-3.4055,-3.3985,-3.3284,-3.2066,-3.064,-3.064,-3.0518,-3.0405,-3.093,-3.2742,-3.5288,-3.7017,-3.858,-4.0021,-4.0919,-4.1308,-4.1543,-1.0087,-1.0371,-1.0574,-1.0424,-1.0534,-1.0672,-1.056,-1.0712,-1.0729,-1.0517,-1.0607,-1.0639,-1.0501,-1.2431,-1.376,-1.376,-1.5861,-1.7265,-1.7265,-1.7477,-1.7582,-1.7582,-1.7582,-1.6499,-1.4137,-1.4083,-1.2551,0.0,0.0,-0.8365,-0.7277,-0.6993,-0.692,-0.7102,-0.8147,-0.8939,-0.9502,-1.0493,-1.1053,-1.1233,-1.1606,-1.1776,-1.1776,-1.1776,-1.1776,-1.1776,-1.1776,-1.1776,-1.1776,-1.1776,-1.1776,-1.1776,-1.1776,-1.1776,-1.1776,-1.1776,-1.1776,-1.1776,-1.1776,-1.1776,-1.1776,-1.1776,-1.2784,-1.4023,-1.5332,-1.6573,-1.7864,-1.9127,-1.9546,-1.9345,-1.817,-1.7196,0.0,0.0,0.0,0.0,0.0,0.0,0.0,0.0,0.0,0.0,0.0,0.0,0.0,0.0,0.0,0.0,0.0,0.0,0.0,0.0,0.0,-2.7908,-3.1157,0.0,-3.2993,-3.457,-3.5547,-3.5382,-3.4264,-3.4264,-3.3415,-3.2,-3.2017,-3.2342,-3.2792,-3.3834,-3.5339,-3.7049,-3.7757,-3.9049,-4.0685,-4.1094,-4.1172,-4.123,-1.0623,-1.0534,-1.055,-1.0842,-1.0785,-1.0794,-1.1102,-1.1159,-1.1053,-1.0712,-1.068,-1.0688,-1.0672,-1.181,-1.258,-1.258,-1.4674,-1.6074,-1.6074,-1.7041,-1.7582,-1.7582,-1.7582,-1.6499,-1.4137,-1.4083,-1.2621,0.0,0.0,-0.8718,-0.7456,-0.7423,-0.7667,-0.8154,-0.8482,-0.9299,-1.055,-1.0672,-1.1102,-1.1703,-1.1752,-1.1776,-1.1776,-1.1776,-1.1776,-1.1776,-1.1776,-1.1776,-1.1776,-1.1776,-1.1776,-1.1776,-1.1776,-1.1776,-1.1776,-1.1776,-1.1776,-1.1776,-1.1776,-1.1776,-1.1776,-1.1776,-1.2784,-1.4023,-1.5332,-1.6573,-1.7864,-1.9127,-1.9444,-1.9038,-1.7849,-1.8611,-1.8731,0.0,0.0,0.0,0.0,0.0,0.0,0.0,0.0,0.0,0.0,0.0,0.0,0.0,0.0,0.0,0.0,0.0,0.0,-2.5313,-2.5405,-2.6522,-2.9034,-3.1396,-3.3077,-3.4141,-3.541,-3.5947,-3.5811,-3.5811,-3.4971,-3.3572,-3.3866,-3.3606,-3.3169,-3.5166,-3.5642,-3.5426,-3.8481,-3.9298,-3.904,-4.0607,-4.1172,-4.1172,-1.1999,-1.1347,-1.0802,-1.094,-1.0988,-1.1062,-1.12,-1.1224,-1.1167,-1.1029,-1.0923,-1.0818,-1.0704,-1.1719,-1.2417,-1.2417,-1.4567,-1.5914,-1.5914,-1.6988,-1.7582,-1.7582,-1.7582,-1.6829,-1.5209,-1.446,-1.3016,0.0,0.0,-0.8922,-0.7967,-0.8122,-0.8465,-0.9004,-0.9567,-1.016,-1.072,-1.1159,-1.1508,-1.1776,-1.1776,-1.1776,-1.1776,-1.1776,-1.1776,-1.1776,-1.1776,-1.1776,-1.1776,-1.1776,-1.1776,-1.1776,-1.1776,-1.1776,-1.1776,-1.1776,-1.1776,-1.1776,-1.1776,-1.1776,-1.1957,-1.2724,-1.3913,-1.5154,-1.6455,-1.776,-1.8765,-1.9301,-1.943,-1.9225,-1.88,-1.8557,-1.8397,-1.8224,0.0,0.0,0.0,0.0,0.0,0.0,0.0,0.0,0.0,0.0,0.0,0.0,0.0,0.0,0.0,0.0,0.0,-2.4548,0.0,-2.841,-3.0039,-3.2575,-3.4085,-3.4453,-3.5508,-3.6016,-3.6016,-3.6016,-3.5675,-3.5146,-3.5813,-3.5916,-3.5699,-3.7099,-3.7406,-3.7315,-3.9142,-3.9699,-3.951,-4.0744,-4.1172,-4.1172,-1.2906,-1.1889,-1.1045,-1.1045,-1.1183,-1.1321,-1.1378,-1.1386,-1.1362,-1.1313,-1.1151,-1.0972,-1.0794,-1.1426,-1.1882,-1.1882,-1.403,-1.537,-1.537,-1.6776,-1.7582,-1.7582,-1.7582,0.0,-1.5914,-1.5049,-1.3742,-1.1826,-1.0765,-0.974,-0.8763,-0.8833,-0.9184,-0.9828,-1.0412,-1.081,-1.1045,-1.1557,-1.1776,-1.1776,-1.1776,-1.1776,-1.1776,-1.1776,-1.1776,-1.1776,-1.1776,-1.1776,-1.1776,-1.1776,-1.1776,-1.1776,-1.1776,-1.1776,-1.1776,-1.1776,-1.1776,-1.1776,-1.1776,-1.1776,-1.213,-1.3375,-1.4679,-1.5924,-1.722,-1.8473,-1.943,-1.943,-1.943,-1.943,-1.943,-1.8677,-1.8303,-1.8878,0.0,0.0,0.0,-1.996,0.0,0.0,-1.9929,-1.9562,-1.9554,0.0,0.0,0.0,0.0,0.0,0.0,0.0,0.0,0.0,0.0,0.0,-3.0898,-3.3301,-3.4512,-3.4531,-3.541,-3.584,-3.584,-3.5957,-3.6016,-3.6074,-3.6934,-3.7305,-3.7363,-3.8223,-3.8574,-3.8633,-3.9258,-3.9668,-3.9961,-4.0566,-4.0957,-4.1172,-1.2935,-1.1994,-1.1224,-1.1224,-1.137,-1.1557,-1.1744,-1.1768,-1.1703,-1.1524,-1.1338,-1.1151,-1.098,-1.0857,-1.0743,-1.0743,-1.2788,-1.4137,-1.4137,-1.6287,-1.7582,-1.7582,-1.7582,-1.7041,-1.5914,-1.5914,-1.4728,-1.2408,0.0,-1.1367,-0.986,-0.9559,-0.9869,-1.068,-1.0688,-1.1094,-1.176,-1.1776,-1.1776,-1.1776,-1.1776,-1.1776,-1.1776,-1.1776,-1.1776,-1.1776,-1.1776,-1.1776,-1.1776,-1.1776,-1.1776,-1.1776,-1.1776,-1.1776,-1.1776,-1.1776,-1.1776,-1.1776,-1.1776,-1.1776,-1.213,-1.3375,-1.4679,-1.5924,-1.722,-1.8473,-1.943,-1.943,-1.943,-1.943,-1.943,-1.9417,-1.9065,-1.8142,0.0,0.0,0.0,-1.8691,0.0,0.0,-1.6527,-1.6209,-1.9584,0.0,0.0,0.0,0.0,0.0,0.0,0.0,0.0,-2.6523,-2.7125,0.0,-3.0898,-3.3008,-3.4082,-3.4082,-3.498,-3.541,-3.541,-3.584,-3.6016,-3.6074,-3.6934,-3.7305,-3.7363,-3.8223,-3.8574,-3.8574,-3.8594,-3.9121,-3.9902,-3.9902,-4.0449,-4.1172,-1.4547,-1.3335,-1.2205,-1.124,-1.1191,-1.133,-1.1386,-1.2087,-1.2637,-1.2777,-1.2596,-1.2506,-1.2645,-1.1509,-1.0688,-1.0688,-1.2091,-1.3275,-1.403,-1.5595,-1.6776,-1.7582,-1.7582,-1.7424,-1.7041,-1.5476,-1.4386,-1.3782,0.0,-1.087,-1.0677,-1.0563,-1.0802,-1.1435,-1.1435,-1.1557,-1.1776,-1.1776,-1.1776,-1.1776,-1.1776,-1.1776,-1.1776,-1.1776,-1.1776,-1.1776,-1.1776,-1.1776,-1.1776,-1.1776,-1.1776,-1.1776,-1.1776,-1.1776,-1.1776,-1.1776,-1.1776,-1.1776,-1.1776,-1.2432,-1.3375,-1.4679,-1.5983,-1.722,-1.8532,-1.9127,-1.943,-1.943,-1.943,-1.943,-1.943,-1.943,-1.9279,-1.8998,-1.9345,-1.9693,-1.98,0.0,-2.0013,-2.0107,-1.974,-1.9877,0.0,-1.9352,0.0,0.0,0.0,0.0,0.0,0.0,0.0,0.0,-2.8144,0.0,-3.043,-3.2851,-3.4082,-3.4082,-3.4648,-3.5078,-3.541,-3.582,-3.6016,-3.6074,-3.6934,-3.7305,-3.7363,-3.8223,-3.8398,-3.8164,-3.8457,-3.8926,-3.9453,-3.9785,-4.043,-4.1172,-1.6,-1.4479,-1.3038,-1.2043,-1.205,-1.2121,-1.2121,-1.3161,-1.4023,-1.4221,-1.3983,-1.3721,-1.346,-1.2323,-1.1415,-1.0857,-1.2192,-1.3329,-1.403,-1.5648,-1.6882,-1.7582,-1.7582,-1.7582,-1.7582,-1.618,-1.5067,-1.4393,-1.197,-1.0988,-1.1273,-1.1273,-1.1451,-1.1776,-1.1776,-1.1776,-1.1776,-1.1776,-1.1776,-1.1776,-1.1776,-1.1776,-1.1776,-1.1776,-1.1776,-1.1776,-1.1776,-1.1776,-1.1776,-1.1776,-1.1776,-1.1897,-1.2371,-1.2191,-1.1776,-1.1776,-1.1776,-1.1897,-1.2371,-1.3075,-1.4143,-1.5865,-1.6926,-1.7806,-1.9127,-1.943,-1.943,-1.943,-1.943,-1.943,-1.943,-1.943,-1.943,-1.943,-1.9519,-1.9733,-2.0027,-2.0227,-2.0187,0.0,0.0,0.0,0.0,-2.0145,-2.0073,0.0,0.0,0.0,0.0,0.0,-2.4182,-2.5969,-2.9324,-3.1046,-3.0957,-3.2851,-3.3828,-3.3828,-3.4414,-3.4941,-3.541,-3.582,-3.6016,-3.6055,-3.6758,-3.7148,-3.7344,-3.8047,-3.8164,-3.793,-3.8047,-3.8457,-3.9004,-3.9297,-4.0039,-4.0957,-1.7268,-1.5477,-1.3896,-1.3615,-1.37,-1.3844,-1.3844,-1.4917,-1.5747,-1.5747,-1.5492,-1.4877,-1.3654,-1.324,-1.2482,-1.1134,-1.2788,-1.3932,-1.4083,-1.6127,-1.7424,-1.7582,-1.7582,-1.7582,-1.7582,-1.7437,-1.6353,-1.4214,-1.2383,-1.1606,-1.1776,-1.1776,-1.1776,-1.1776,-1.1776,-1.1776,-1.1776,-1.1776,-1.1776,-1.1776,-1.1776,-1.1776,-1.1776,-1.1776,-1.1776,-1.1776,-1.1776,-1.1776,-1.1776,-1.1776,-1.1776,-1.201,-1.3195,-1.2844,-1.1957,-1.2018,-1.2018,-1.2191,-1.3495,-1.3904,-1.455,-1.6915,-1.7572,-1.7923,-1.9127,-1.943,-1.943,-1.943,-1.943,-1.943,-1.943,-1.943,-1.943,-1.943,-1.9444,-1.9492,-1.976,-1.9813,-1.9412,-1.8249,0.0,0.0,-1.9043,-1.9569,-2.0616,0.0,0.0,0.0,0.0,0.0,-2.4433,-2.9861,-3.0541,-3.1283,-3.2168,-3.2969,-3.3398,-3.3437,-3.4297,-3.4922,-3.5351,-3.582,-3.6016,-3.6035,-3.6484,-3.6914,-3.7324,-3.7754,-3.7949,-3.793,-3.75,-3.7871,-3.8613,-3.8613,-3.9434,-4.0586,-1.7674,-1.7067,-1.6317,-1.5199,-1.5232,-1.5391,-1.5391,-1.6397,-1.7103,-1.7103,-1.6163,-1.5424,-1.5129,-1.3175,-1.1762,-1.1437,-1.1589,-1.2432,-1.3986,-1.462,-1.5743,-1.7529,-1.7582,-1.7582,-1.7582,-1.6012,-1.4176,-1.2177,-1.1895,-1.1736,-1.1776,-1.1776,-1.1776,-1.1776,-1.1776,-1.1776,-1.1776,-1.1776,-1.1776,-1.1776,-1.1776,-1.1776,-1.1776,-1.1776,-1.1776,-1.1776,-1.1776,-1.1776,-1.1776,-1.1776,-1.1776,-1.1837,-1.213,-1.2724,-1.3435,-1.4451,-1.4033,-1.3555,-1.4798,-1.5854,-1.6738,-1.7337,-1.8227,-1.901,-1.9314,-1.943,-1.943,-1.943,-1.943,-1.943,-1.943,-1.943,-1.943,-1.943,-1.9559,-1.972,-1.9786,-1.9987,-1.9947,-1.9439,-1.9618,-1.9863,-2.0004,-2.0526,-2.0859,0.0,0.0,-2.292,-2.5534,-2.5003,-2.6202,-2.9477,-3.1077,-3.196,-3.2229,-3.2676,-3.3105,-3.3437,-3.4297,-3.4766,-3.4883,-3.5664,-3.6016,-3.6035,-3.6484,-3.6914,-3.7324,-3.7754,-3.8125,-3.8379,-3.7949,-3.8301,-3.9062,-3.9062,-3.9687,-4.0586,-1.889,-1.8307,-1.7649,-1.6912,-1.6885,-1.6966,-1.6966,-1.7996,-1.8784,-1.8784,-1.8128,-1.7278,-1.6073,-1.448,-1.3012,-1.1749,-1.1733,-1.2469,-1.4146,-1.4687,-1.5803,-1.7676,-1.7796,-1.7862,-1.7996,-1.6874,-1.5243,-1.3128,-1.2218,-1.1776,-1.1776,-1.1776,-1.1776,-1.1776,-1.1776,-1.1776,-1.1776,-1.1776,-1.1776,-1.1776,-1.1776,-1.1776,-1.1776,-1.1776,-1.1776,-1.1776,-1.1776,-1.1776,-1.1776,-1.1776,-1.1776,-1.1897,-1.2483,-1.3135,-1.4083,-1.5924,-1.5569,-1.4857,-1.6101,-1.6985,-1.763,-1.8227,-1.8881,-1.943,-1.943,-1.943,-1.943,-1.943,-1.943,-1.943,-1.943,-1.943,-1.943,-1.943,-1.9506,-1.9599,-1.9599,-1.9733,-1.9773,-1.9626,-1.9775,-2.0006,-2.026,-2.0732,-2.1,-2.0931,-2.208,0.0,-2.5938,-2.6747,-2.8093,-3.031,-3.1378,-3.1973,-3.2229,-3.2773,-3.3184,-3.3437,-3.4297,-3.4707,-3.4726,-3.5625,-3.6016,-3.6035,-3.6269,-3.6719,-3.7324,-3.7539,-3.8008,-3.8535,-3.8086,-3.834,-3.8945,-3.9141,-3.9648,-4.0332,-2.0288,-1.9427,-1.8668,-1.8668,-1.8705,-1.8729,-1.8729,-1.9614,-2.0347,-2.0307,-2.0111,-1.9096,-1.6825,-1.6269,-1.5105,-1.2708,-1.2968,-1.3622,-1.45,-1.5347,-1.6555,-1.8127,-1.8195,-1.8343,-1.8557,-1.8154,-1.6976,-1.4861,-1.2824,-1.1776,-1.1776,-1.1776,-1.1776,-1.1776,-1.1776,-1.1776,-1.1776,-1.1776,-1.1776,-1.1776,-1.1776,-1.1776,-1.1776,-1.1776,-1.1776,-1.1776,-1.1776,-1.1776,-1.1837,-1.201,-1.1957,-1.201,-1.3315,-1.3844,-1.4441,-1.6562,-1.675,-1.6397,-1.7513,-1.7806,-1.8052,-1.9127,-1.943,-1.943,-1.943,-1.943,-1.943,-1.943,-1.943,-1.943,-1.943,-1.943,-1.9319,-1.9185,-1.9336,-1.9377,-1.9185,-1.9279,-1.943,-1.943,-1.943,-1.9641,-2.0178,-2.0559,-2.1024,-2.1873,-2.3561,-2.5201,-2.6675,-2.811,-2.9699,-3.1347,-3.1426,-3.166,-3.2168,-3.3008,-3.3418,-3.3437,-3.4219,-3.4629,-3.4726,-3.5547,-3.5957,-3.6016,-3.6016,-3.6465,-3.7207,-3.7266,-3.7754,-3.8437,-3.8144,-3.8242,-3.8633,-3.9043,-3.9492,-4.0,-2.0924,-2.0663,-2.0354,-2.0354,-2.049,-2.0648,-2.0648,-2.0836,-2.0882,-2.0641,-1.9709,-1.8741,-1.8067,-1.6977,-1.6143,-1.5731,-1.5689,-1.5526,-1.5174,-1.5292,-1.6539,-1.9088,-1.9158,-1.9065,-1.8865,-1.6722,-1.5046,-1.3915,-1.2475,-1.1776,-1.1776,-1.1776,-1.1776,-1.1776,-1.1776,-1.1776,-1.1776,-1.1776,-1.1776,-1.1776,-1.1776,-1.1776,-1.1776,-1.1776,-1.1776,-1.1776,-1.1776,-1.1776,-1.1957,-1.3015,-1.2664,-1.201,-1.3315,-1.4441,-1.5391,-1.5806,-1.7291,-1.8836,-1.9068,-1.9127,-1.9127,-1.9359,-1.943,-1.943,-1.943,-1.943,-1.943,-1.943,-1.943,-1.943,-1.943,-1.943,-1.9118,-1.8343,-1.8865,-1.9105,-1.8302,-1.8891,-1.943,-1.943,-1.943,-1.956,-1.9819,-2.0167,-2.1046,-2.2693,-2.3661,-2.5277,-2.7907,-2.8582,-2.9568,-3.0918,-3.0996,-3.1367,-3.2168,-3.3008,-3.3418,-3.3437,-3.3926,-3.4355,-3.4726,-3.5254,-3.5684,-3.6016,-3.6016,-3.6309,-3.6797,-3.7148,-3.7578,-3.8047,-3.8359,-3.8516,-3.8633,-3.9043,-3.9492,-3.9961,-2.1108,-2.1175,-2.1159,-2.0971,-2.1015,-2.1109,-2.1109,-2.1109,-2.1069,-2.0922,-2.0393,-1.9701,-1.8811,-1.8105,-1.7389,-1.664,-1.6422,-1.6497,-1.6862,-1.6656,-1.7453,-1.9527,-1.9599,-1.9533,-1.9399,-1.6903,-1.5294,-1.4738,-1.2784,-1.1776,-1.1776,-1.1776,-1.1776,-1.1776,-1.1776,-1.1776,-1.1776,-1.1776,-1.1776,-1.1776,-1.1776,-1.1776,-1.1776,-1.1776,-1.1776,-1.1897,-1.2603,-1.2844,-1.3015,-1.4262,-1.4321,-1.3973,-1.456,-1.5628,-1.6632,-1.6632,-1.7935,-1.943,-1.943,-1.943,-1.943,-1.943,-1.943,-1.943,-1.943,-1.943,-1.943,-1.943,-1.943,-1.943,-1.943,-1.943,-1.9239,-1.8811,-1.9092,-1.9225,-1.8811,-1.9105,-1.943,-1.943,-1.9533,-1.9707,-2.004,-2.0328,-2.1306,-2.3179,-2.4456,-2.6104,-2.8239,-2.9364,-3.0274,-3.0898,-3.1348,-3.1758,-3.2229,-3.3242,-3.3652,-3.3437,-3.4101,-3.4512,-3.4726,-3.5176,-3.5625,-3.6016,-3.6016,-3.6269,-3.6699,-3.7129,-3.7539,-3.7969,-3.8398,-3.8574,-3.8594,-3.8789,-3.9297,-3.9922,-2.1273,-2.1395,-2.1488,-2.1172,-2.1109,-2.1109,-2.1109,-2.1109,-2.1109,-2.1109,-2.1109,-2.0716,-1.9623,-1.9424,-1.8923,-1.784,-1.7605,-1.7925,-1.8865,-1.8603,-1.886,-1.994,-2.0,-1.9973,-1.9907,-1.7348,-1.5866,-1.5569,-1.3024,-1.1776,-1.1776,-1.1776,-1.1776,-1.1776,-1.1776,-1.1776,-1.1776,-1.1776,-1.1776,-1.1776,-1.1776,-1.1776,-1.1776,-1.1776,-1.1957,-1.2371,-1.3375,-1.3904,-1.4321,-1.5628,-1.5865,-1.5628,-1.5924,-1.6691,-1.7513,-1.7513,-1.8402,-1.943,-1.943,-1.943,-1.943,-1.943,-1.943,-1.943,-1.943,-1.943,-1.943,-1.943,-1.943,-1.943,-1.943,-1.943,-1.9305,-1.9092,-1.9239,-1.9292,-1.9092,-1.9239,-1.943,-1.943,-1.9649,-2.004,-2.0673,-2.0945,-2.2036,-2.4252,-2.5669,-2.7146,-2.876,-3.0161,-3.0898,-3.0898,-3.1719,-3.2229,-3.2229,-3.334,-3.3809,-3.3574,-3.4238,-3.4668,-3.4863,-3.5234,-3.5625,-3.6016,-3.6016,-3.6211,-3.6562,-3.709,-3.748,-3.7832,-3.8359,-3.8574,-3.8555,-3.8457,-3.8984,-3.9726,-2.1642,-2.1583,-2.1488,-2.1172,-2.1109,-2.1109,-2.1109,-2.1109,-2.1109,-2.1109,-2.1109,-2.1046,-2.0982,-2.0956,-2.0879,-2.0753,-2.074,-2.079,-2.0916,-2.0876,-2.0806,-2.0615,-2.0615,-2.0481,-2.0214,-1.743,-1.5866,-1.5569,-1.3024,-1.1776,-1.1776,-1.1776,-1.1776,-1.1776,-1.1776,-1.1776,-1.1776,-1.1776,-1.1776,-1.1776,-1.1776,-1.1776,-1.1776,-1.1776,-1.2543,-1.3545,-1.3665,-1.4441,-1.5628,-1.6926,-1.6573,-1.5806,-1.6985,-1.7396,-1.7513,-1.7513,-1.8402,-1.943,-1.943,-1.943,-1.943,-1.943,-1.943,-1.943,-1.943,-1.943,-1.943,-1.943,-1.943,-1.943,-1.943,-1.943,-1.9105,-1.8222,-1.8838,-1.9078,-1.8209,-1.8851,-1.943,-1.943,-1.9649,-2.0385,-2.1858,-2.2184,-2.361,-2.6696,-2.7377,-2.835,-3.0005,-3.0587,-3.0898,-3.0898,-3.1719,-3.2229,-3.2229,-3.3027,-3.3652,-3.4023,-3.4082,-3.4551,-3.5351,-3.5371,-3.5625,-3.6016,-3.6016,-3.6035,-3.6133,-3.6953,-3.7324,-3.7422,-3.8262,-3.8574,-3.8535,-3.8125,-3.8516,-3.9258,-2.2053,-2.1894,-2.1803,-2.1488,-2.1235,-2.1109,-2.1109,-2.1109,-2.1109,-2.1109,-2.1109,-2.1109,-2.1109,-2.1109,-2.1109,-2.1109,-2.1109,-2.1029,-2.0855,-2.1002,-2.1056,-2.0949,-2.0949,-2.0802,-2.0508,-1.8472,-1.6933,-1.5845,-1.3911,-1.2543,-1.1776,-1.1776,-1.1776,-1.1776,-1.1776,-1.1776,-1.1776,-1.1776,-1.1776,-1.1776,-1.1776,-1.1776,-1.1897,-1.2664,-1.3255,-1.3904,-1.5499,-1.6397,-1.6985,-1.8227,-1.8357,-1.8064,-1.8532,-1.8706,-1.8706,-1.8706,-1.901,-1.943,-1.943,-1.943,-1.943,-1.943,-1.943,-1.943,-1.943,-1.943,-1.943,-1.943,-1.943,-1.943,-1.943,-1.943,-1.9252,-1.8918,-1.9145,-1.931,-1.8918,-1.9158,-1.9475,-1.9649,-1.9938,-2.0716,-2.2184,-2.2824,-2.439,-2.7359,-2.7932,-2.8914,-3.0548,-3.0801,-3.0898,-3.0898,-3.1719,-3.2229,-3.2229,-3.3535,-3.416,-3.4082,-3.4629,-3.5059,-3.5391,-3.5391,-3.5625,-3.6016,-3.6016,-3.6016,-3.6094,-3.6953,-3.7305,-3.7383,-3.8242,-3.8574,-3.8516,-3.8086,-3.8457,-3.9199,-2.1944,-2.1894,-2.1866,-2.1488,-2.1235,-2.1109,-2.1109,-2.1109,-2.1109,-2.1109,-2.1109,-2.1109,-2.1109,-2.1109,-2.1109,-2.1109,-2.1109,-2.1029,-2.0828,-2.1002,-2.1109,-2.1109,-2.1109,-2.0935,-2.0548,-1.9161,-1.7824,-1.6578,-1.5152,-1.401,-1.3114,-1.3051,-1.2964,-1.2964,-1.2603,-1.2603,-1.2964,-1.213,-1.2018,-1.2371,-1.1957,-1.1776,-1.1957,-1.3195,-1.3963,-1.456,-1.675,-1.7747,-1.8227,-1.9127,-1.943,-1.943,-1.943,-1.943,-1.943,-1.943,-1.943,-1.943,-1.943,-1.943,-1.943,-1.943,-1.943,-1.943,-1.943,-1.943,-1.943,-1.943,-1.943,-1.943,-1.943,-1.943,-1.943,-1.943,-1.9439,-1.9466,-1.9386,-1.9555,-1.9699,-1.9764,-2.05,-2.1603,-2.3101,-2.4236,-2.5921,-2.8388,-2.8933,-2.9716,-3.082,-3.0898,-3.0898,-3.0898,-3.1719,-3.2226,-3.2363,-3.3789,-3.4492,-3.4492,-3.5098,-3.5469,-3.5586,-3.5586,-3.5742,-3.6016,-3.6016,-3.6016,-3.6094,-3.6953,-3.7305,-3.7383,-3.8242,-3.8574,-3.8516,-3.8086,-3.8379,-3.9004,-2.1279,-2.1395,-2.1488,-2.1172,-2.1109,-2.1109,-2.1109,-2.1109,-2.1109,-2.1109,-2.1109,-2.1109,-2.1109,-2.1109,-2.1109,-2.1109,-2.1109,-2.1109,-2.1109,-2.1109,-2.1109,-2.1109,-2.1109,-2.0842,-2.0193,-1.9323,-1.8507,-1.7913,-1.665,-1.5985,-1.5974,-1.5747,-1.558,-1.551,-1.4262,-1.4441,-1.5451,-1.2904,-1.2543,-1.3605,-1.2311,-1.1837,-1.1957,-1.3255,-1.45,-1.5806,-1.7044,-1.8344,-1.943,-1.943,-1.943,-1.943,-1.943,-1.943,-1.943,-1.943,-1.943,-1.943,-1.943,-1.943,-1.943,-1.943,-1.943,-1.943,-1.943,-1.943,-1.943,-1.943,-1.943,-1.943,-1.943,-1.943,-1.943,-1.943,-1.9613,-1.9693,-1.947,-1.9906,-2.0151,-1.985,-2.1388,-2.3142,-2.4731,-2.6679,-2.8464,-3.0062,-3.0625,-3.0898,-3.0898,-3.0898,-3.0898,-3.0898,-3.1719,-3.2383,-3.2793,-3.3652,-3.4512,-3.5391,-3.5391,-3.5605,-3.6016,-3.6016,-3.6016,-3.6016,-3.6016,-3.6016,-3.6094,-3.6953,-3.7285,-3.7383,-3.8242,-3.8574,-3.8516,-3.8086,-3.8203,-3.8574,-2.1929,-2.1672,-2.1551,-2.1488,-2.1235,-2.1109,-2.1109,-2.1109,-2.1109,-2.1109,-2.1109,-2.1109,-2.1109,-2.1109,-2.1109,-2.1109,-2.1109,-2.1109,-2.1109,-2.1109,-2.1109,-2.1109,-2.1109,-2.1029,-2.0855,-2.0349,-1.9634,-1.852,-1.7909,-1.7051,-1.5974,-1.5909,-1.5791,-1.5569,-1.5213,-1.5213,-1.551,-1.3854,-1.3375,-1.3605,-1.2311,-1.2371,-1.3255,-1.456,-1.5806,-1.7103,-1.8357,-1.9068,-1.943,-1.943,-1.943,-1.943,-1.943,-1.943,-1.943,-1.943,-1.943,-1.943,-1.943,-1.943,-1.943,-1.943,-1.943,-1.943,-1.943,-1.943,-1.943,-1.943,-1.943,-1.943,-1.943,-1.943,-1.943,-1.943,-1.9497,-1.9533,-1.9653,-1.9852,-2.0045,-2.0403,-2.165,-2.3214,-2.5048,-2.7043,-2.8894,-3.0587,-3.1309,-3.1683,-3.1683,-3.1386,-3.1308,-3.1663,-3.1995,-3.2656,-3.3691,-3.4238,-3.4805,-3.5391,-3.5684,-3.5898,-3.6016,-3.6016,-3.6016,-3.6016,-3.6016,-3.6016,-3.6055,-3.6621,-3.7031,-3.7344,-3.791,-3.8301,-3.8555,-3.8418,-3.8457,-3.8613,-2.1978,-2.1614,-2.1425,-2.1425,-2.1235,-2.1109,-2.1109,-2.1109,-2.1109,-2.1109,-2.1109,-2.1109,-2.1109,-2.1109,-2.1109,-2.1109,-2.1109,-2.1109,-2.1109,-2.1109,-2.1109,-2.1109,-2.1109,-2.1056,-2.0935,-2.0882,-2.0401,-1.9524,-1.936,-1.8754,-1.7862,-1.7694,-1.7505,-1.7268,-1.6722,-1.6724,-1.6997,-1.5213,-1.4738,-1.5084,-1.3794,-1.3734,-1.4619,-1.5865,-1.6809,-1.7689,-1.8952,-1.943,-1.943,-1.943,-1.943,-1.943,-1.943,-1.943,-1.943,-1.943,-1.943,-1.943,-1.943,-1.943,-1.943,-1.943,-1.943,-1.943,-1.943,-1.943,-1.943,-1.943,-1.943,-1.943,-1.943,-1.943,-1.943,-1.943,-1.9466,-1.9618,-1.9789,-2.0027,-2.0305,-2.0653,-2.2291,-2.3997,-2.5497,-2.7758,-2.9813,-3.1505,-3.1524,-3.1504,-3.1623,-3.1094,-3.0937,-3.1444,-3.1934,-3.2773,-3.4062,-3.4492,-3.5019,-3.5644,-3.5898,-3.6016,-3.6016,-3.6016,-3.6016,-3.6016,-3.6016,-3.6016,-3.6055,-3.6484,-3.6914,-3.7324,-3.7578,-3.8047,-3.8555,-3.8379,-3.8418,-3.8613,-2.174,-2.1425,-2.1172,-2.1172,-2.1172,-2.1109,-2.1109,-2.1109,-2.1109,-2.1109,-2.1109,-2.1109,-2.1109,-2.1109,-2.1109,-2.1109,-2.1109,-2.1109,-2.1109,-2.1109,-2.1109,-2.1109,-2.1109,-2.0989,-2.0722,-2.0975,-2.0975,-2.0722,-2.0722,-2.0695,-2.0668,-2.0401,-2.012,-1.978,-1.8583,-1.8564,-1.9283,-1.682,-1.6455,-1.7396,-1.6101,-1.5688,-1.5924,-1.7044,-1.7572,-1.7806,-1.901,-1.943,-1.943,-1.943,-1.943,-1.943,-1.943,-1.943,-1.943,-1.943,-1.943,-1.943,-1.943,-1.943,-1.943,-1.943,-1.943,-1.943,-1.943,-1.943,-1.943,-1.943,-1.943,-1.943,-1.943,-1.943,-1.943,-1.943,-1.9645,-1.9784,-1.9833,-2.0347,-2.0709,-2.073,-2.3127,-2.5091,-2.5979,-2.8706,-3.1112,-3.2674,-3.1554,-3.0882,-3.1204,-3.0325,-3.0109,-3.0664,-3.153,-3.2731,-3.4121,-3.4512,-3.5137,-3.6016,-3.6016,-3.6016,-3.6016,-3.6016,-3.6016,-3.6016,-3.6016,-3.6016,-3.6055,-3.6445,-3.6855,-3.7246,-3.7285,-3.7793,-3.8476,-3.8105,-3.8223,-3.8574,-2.2041,-2.1915,-2.1803,-2.1551,-2.1488,-2.1425,-2.1172,-2.1109,-2.1109,-2.1109,-2.1109,-2.1109,-2.1109,-2.1109,-2.1109,-2.1109,-2.1109,-2.1109,-2.1109,-2.1109,-2.1109,-2.1109,-2.1109,-2.1082,-2.1015,-2.1082,-2.1082,-2.1015,-2.1015,-2.0895,-2.0681,-2.0615,-2.0428,-2.0073,-1.9595,-1.9523,-1.9575,-1.7846,-1.7279,-1.7396,-1.6101,-1.622,-1.7103,-1.7396,-1.811,-1.901,-1.9301,-1.943,-1.943,-1.943,-1.943,-1.943,-1.943,-1.943,-1.943,-1.943,-1.943,-1.943,-1.943,-1.943,-1.943,-1.943,-1.943,-1.943,-1.943,-1.943,-1.943,-1.943,-1.943,-1.943,-1.943,-1.943,-1.943,-1.943,-1.9645,-1.9914,-2.0151,-2.048,-2.0772,-2.103,-2.3473,-2.5426,-2.6306,-3.006,-3.2755,-3.3537,-3.2743,-3.216,-3.1951,-3.0181,-2.9902,-3.1427,-3.0893,-3.1891,-3.4551,-3.4648,-3.5137,-3.6016,-3.6016,-3.6016,-3.6016,-3.6016,-3.6016,-3.6016,-3.6016,-3.6016,-3.6035,-3.6113,-3.6406,-3.6836,-3.7168,-3.7617,-3.8086,-3.834,-3.8496,-3.8574,-2.2355,-2.223,-2.1978,-2.1677,-2.1614,-2.1488,-2.1172,-2.1109,-2.1109,-2.1109,-2.1109,-2.1109,-2.1109,-2.1109,-2.1109,-2.1109,-2.1109,-2.1109,-2.1109,-2.1109,-2.1109,-2.1109,-2.1109,-2.1109,-2.1109,-2.1109,-2.1109,-2.1109,-2.1109,-2.1029,-2.0882,-2.0882,-2.0722,-2.0441,-2.0111,-1.9826,-1.9476,-1.8551,-1.8059,-1.7877,-1.7396,-1.7572,-1.8169,-1.8344,-1.8823,-1.943,-1.943,-1.943,-1.943,-1.943,-1.943,-1.9399,-1.9533,-1.9479,-1.9457,-1.9533,-1.9479,-1.943,-1.943,-1.943,-1.943,-1.943,-1.943,-1.943,-1.943,-1.943,-1.943,-1.943,-1.943,-1.943,-1.943,-1.943,-1.943,-1.943,-1.9649,-1.9921,-2.0261,-2.0758,-2.1247,-2.1611,-2.3987,-2.6388,-2.8258,-3.1035,-3.2855,-3.2991,-3.2409,-3.1588,-3.0581,-2.9133,-2.8685,-2.9511,-2.9324,-3.0329,-3.2666,-3.335,-3.3782,-3.39,-3.5314,-3.6016,-3.6016,-3.6016,-3.6016,-3.6016,-3.6016,-3.6016,-3.6016,-3.6016,-3.6269,-3.6699,-3.6914,-3.7383,-3.7949,-3.8184,-3.8398,-3.8574,-2.2668,-2.248,-2.2167,-2.174,-2.174,-2.1614,-2.1172,-2.1172,-2.1172,-2.1109,-2.1109,-2.1109,-2.1109,-2.1109,-2.1109,-2.1109,-2.1109,-2.1109,-2.1109,-2.1109,-2.1109,-2.1109,-2.1109,-2.1109,-2.1109,-2.1109,-2.1109,-2.1109,-2.1109,-2.1109,-2.1109,-2.1109,-2.0926,-2.0686,-2.0335,-1.9911,-1.9335,-1.8984,-1.8686,-1.8491,-1.8842,-1.892,-1.8939,-1.9185,-1.9359,-1.9372,-1.9359,-1.9359,-1.943,-1.943,-1.943,-1.947,-1.9653,-1.9559,-1.9412,-1.9653,-1.9559,-1.9417,-1.9475,-1.9488,-1.9488,-1.9488,-1.9533,-1.9533,-1.943,-1.943,-1.943,-1.943,-1.943,-1.943,-1.943,-1.943,-1.943,-1.9475,-1.9707,-1.9982,-2.0328,-2.106,-2.1744,-2.2271,-2.4812,-2.7544,-3.0279,-3.1799,-3.2414,-3.2072,-3.1694,-3.0644,-2.878,-2.7912,-2.7349,-2.7203,-2.7634,-2.8663,-3.0378,-3.1612,-3.2004,-3.1508,-3.4333,-3.5606,-3.5606,-3.5879,-3.6016,-3.6016,-3.6016,-3.6016,-3.6016,-3.6016,-3.623,-3.6582,-3.6719,-3.7207,-3.7832,-3.7988,-3.8262,-3.8574,-2.3043,-2.2981,-2.2793,-2.2167,-2.2292,-2.2167,-2.1235,-2.1362,-2.1425,-2.1172,-2.1109,-2.1109,-2.1109,-2.1109,-2.1109,-2.1109,-2.1109,-2.1109,-2.1109,-2.1109,-2.1109,-2.1109,-2.1109,-2.1109,-2.1109,-2.1109,-2.1109,-2.1109,-2.1109,-2.1109,-2.1109,-2.1109,-2.0906,-2.06,-2.0289,-2.0022,-1.9621,-1.9292,-1.8965,-1.8771,-1.9081,-1.9116,-1.8881,-1.8939,-1.9127,-1.9372,-1.9055,-1.9127,-1.943,-1.943,-1.943,-1.943,-1.9412,-1.9457,-1.943,-1.9412,-1.9457,-1.9417,-1.9707,-1.9764,-1.9764,-1.9764,-1.9982,-2.004,-1.9546,-1.943,-1.943,-1.943,-1.943,-1.943,-1.943,-1.943,-1.9475,-1.9707,-2.004,-2.0328,-2.0601,-2.1017,-2.1759,-2.3055,-2.6168,-2.8848,-3.0491,-3.2241,-3.2863,-3.1979,-3.2161,-3.1191,-2.886,-2.7532,-2.6923,-2.7156,-2.6987,-2.8015,-3.0378,-3.0599,-3.0978,-3.1508,-3.3276,-3.4126,-3.4126,-3.5382,-3.6016,-3.6016,-3.6016,-3.6016,-3.6016,-3.6016,-3.6055,-3.6191,-3.6914,-3.7285,-3.7461,-3.8223,-3.8516,-3.8574,-2.3106,-2.3106,-2.2918,-2.248,-2.248,-2.2292,-2.1488,-2.1488,-2.1488,-2.1172,-2.1109,-2.1109,-2.1109,-2.1109,-2.1109,-2.1109,-2.1109,-2.1109,-2.1109,-2.1109,-2.1109,-2.1109,-2.1109,-2.1109,-2.1109,-2.1109,-2.1109,-2.1109,-2.1109,-2.1109,-2.1109,-2.0919,-2.0729,-2.0602,-2.0093,-1.9701,-1.9424,-1.9051,-1.8778,-1.8519,-1.8731,-1.883,-1.8808,-1.8712,-1.8823,-1.9113,-1.8939,-1.9127,-1.943,-1.943,-1.943,-1.9457,-1.9559,-1.9492,-1.9457,-1.9559,-1.9609,-1.9649,-1.9764,-1.9924,-2.0097,-2.0097,-2.0213,-2.0155,-1.9707,-1.9649,-1.9591,-1.9417,-1.943,-1.943,-1.943,-1.943,-1.9529,-1.9983,-2.0208,-2.0442,-2.0901,-2.1421,-2.2539,-2.4875,-2.7028,-2.9129,-3.09,-3.225,-3.27,-3.1977,-3.1859,-3.0656,-2.8043,-2.6584,-2.5714,-2.5494,-2.531,-2.6008,-2.7626,-2.9528,-3.0308,-3.0008,-3.3444,-3.4609,-3.3831,-3.5314,-3.6016,-3.6016,-3.6016,-3.6016,-3.6016,-3.6016,-3.6152,-3.6445,-3.7051,-3.7598,-3.8066,-3.8437,-3.8574,-3.8574]},{"header":{"parameterUnit":"m.s-1","parameterCategory":1,"la1":30.6,"la2":28.766,"lo1":-90.7593,"lo2":-88.6598,"dx":0.0162,"dy":0.0183,"nx":116,"ny":114,"refTime":"2022-12-01T06:00:00:Z","depth":0,"parameterNumber":3,"parameterNumberName":"V-component_of_WINDS"},"data":[0.0,0.0,0.0,0.0,0.0,0.0,0.0,0.0,0.0,0.0,0.0,0.0,0.0,0.0,0.0,0.0,0.0,0.0,0.0,0.0,0.0,0.0,0.0,0.0,0.0,0.0,0.0,0.0,0.0,0.0,0.0,0.0,0.0,0.0,0.0,0.0,0.0,0.0,0.0,0.0,0.0,0.0,0.0,0.0,0.0,0.0,0.0,0.0,0.0,0.0,0.0,0.0,0.0,0.0,0.0,0.0,0.0,0.0,0.0,0.0,0.0,0.0,0.0,0.0,0.0,0.0,0.0,0.0,0.0,0.0,0.0,0.0,0.0,0.0,0.0,0.0,0.0,0.0,0.0,0.0,0.0,0.0,0.0,0.0,0.0,0.0,0.0,0.0,0.0,0.0,0.0,0.0,0.0,0.0,0.0,0.0,0.0,0.0,0.0,0.0,0.0,0.0,0.0,0.0,0.0,0.0,0.0,0.0,0.0,0.0,0.0,0.0,0.0,0.0,0.0,0.0,0.0,0.0,0.0,0.0,0.0,0.0,0.0,0.0,0.0,0.0,0.0,0.0,0.0,0.0,0.0,0.0,0.0,0.0,0.0,0.0,0.0,0.0,0.0,0.0,0.0,0.0,0.0,0.0,0.0,0.0,0.0,0.0,0.0,0.0,0.0,0.0,0.0,0.0,0.0,0.0,0.0,0.0,0.0,0.0,0.0,0.0,0.0,0.0,0.0,0.0,0.0,0.0,0.0,0.0,0.0,0.0,0.0,0.0,0.0,0.0,0.0,0.0,0.0,0.0,0.0,0.0,0.0,0.0,0.0,0.0,0.0,0.0,0.0,0.0,0.0,0.0,0.0,0.0,0.0,0.0,0.0,0.0,0.0,0.0,0.0,0.0,0.0,0.0,0.0,0.0,0.0,0.0,0.0,0.0,0.0,0.0,0.0,0.0,0.0,0.0,0.0,0.0,0.0,0.0,0.0,0.0,0.0,0.0,0.0,0.0,0.0,0.0,0.0,0.0,0.0,0.0,0.0,0.0,0.0,0.0,0.0,0.0,0.0,0.0,0.0,0.0,0.0,0.0,0.0,0.0,0.0,0.0,0.0,0.0,0.0,0.0,0.0,0.0,0.0,0.0,0.0,0.0,0.0,0.0,0.0,0.0,0.0,0.0,0.0,0.0,0.0,0.0,0.0,0.0,0.0,0.0,0.0,0.0,0.0,0.0,0.0,0.0,0.0,0.0,0.0,0.0,0.0,0.0,0.0,0.0,0.0,0.0,0.0,0.0,0.0,0.0,0.0,0.0,0.0,0.0,0.0,0.0,0.0,0.0,0.0,0.0,0.0,0.0,0.0,0.0,0.0,0.0,0.0,0.0,0.0,0.0,0.0,0.0,0.0,0.0,0.0,0.0,0.0,0.0,0.0,0.0,0.0,0.0,0.0,0.0,0.0,0.0,0.0,0.0,0.0,0.0,0.0,0.0,0.0,0.0,0.0,0.0,0.0,0.0,0.0,0.0,0.0,0.0,0.0,0.0,0.0,0.0,0.0,0.0,0.0,0.0,0.0,0.0,0.0,0.0,0.0,0.0,0.0,0.0,0.0,0.0,0.0,0.0,0.0,0.0,0.0,0.0,0.0,0.0,0.0,0.0,0.0,0.0,0.0,0.0,0.0,0.0,0.0,0.0,0.0,0.0,0.0,0.0,0.0,0.0,0.0,0.0,0.0,0.0,0.0,0.0,0.0,0.0,0.0,0.0,0.0,0.0,0.0,0.0,0.0,0.0,0.0,0.0,0.0,0.0,0.0,0.0,0.0,0.0,0.0,0.0,0.0,0.0,0.0,0.0,0.0,0.0,0.0,0.0,0.0,0.0,0.0,0.0,0.0,0.0,0.0,0.0,0.0,0.0,0.0,0.0,0.0,0.0,0.0,0.0,0.0,0.0,0.0,0.0,0.0,0.0,0.0,0.0,0.0,0.0,0.0,0.0,0.0,0.0,0.0,0.0,0.0,0.0,0.0,0.0,0.0,0.0,0.0,0.0,0.0,0.0,0.0,0.0,0.0,0.0,0.0,0.0,0.0,0.0,0.0,0.0,0.0,0.0,0.0,0.0,0.0,0.0,0.0,0.0,0.0,0.0,0.0,0.0,0.0,0.0,0.0,0.0,0.0,0.0,0.0,0.0,0.0,0.0,0.0,0.0,0.0,0.0,0.0,0.0,0.0,0.0,0.0,0.0,0.0,0.0,0.0,0.0,0.0,0.0,0.0,0.0,0.0,0.0,0.0,0.0,0.0,0.0,0.0,0.0,0.0,0.0,0.0,0.0,0.0,0.0,0.0,0.0,0.0,0.0,0.0,0.0,0.0,0.0,0.0,0.0,0.0,0.0,0.0,0.0,0.0,0.0,0.0,0.0,0.0,0.0,0.0,0.0,0.0,0.0,0.0,0.0,0.0,0.0,0.0,0.0,0.0,0.0,0.0,0.0,0.0,0.0,0.0,0.0,0.0,0.0,0.0,0.0,0.0,0.0,0.0,0.0,0.0,0.0,0.0,0.0,0.0,0.0,0.0,0.0,0.0,0.0,0.0,0.0,0.0,0.0,0.0,0.0,0.0,0.0,0.0,0.0,0.0,0.0,0.0,0.0,0.0,0.0,0.0,0.0,0.0,0.0,0.0,0.0,0.0,0.0,0.0,0.0,0.0,0.0,0.0,0.0,0.0,0.0,0.0,0.0,0.0,0.0,0.0,0.0,0.0,0.0,0.0,0.0,0.0,0.0,0.0,0.0,0.0,0.0,0.0,0.0,0.0,0.0,0.0,0.0,0.0,0.0,0.0,0.0,0.0,0.0,0.0,0.0,0.0,0.0,0.0,0.0,0.0,0.0,0.0,0.0,0.0,0.0,0.0,0.0,0.0,0.0,0.0,0.0,0.0,0.0,0.0,0.0,0.0,0.0,0.0,0.0,0.0,0.0,0.0,0.0,0.0,0.0,0.0,0.0,0.0,0.0,0.0,0.0,0.0,0.0,0.0,0.0,0.0,0.0,0.0,0.0,0.0,0.0,0.0,0.0,0.0,0.0,0.0,0.0,0.0,0.0,0.0,0.0,0.0,0.0,0.0,0.0,0.0,0.0,0.0,0.0,0.0,0.0,0.0,0.0,0.0,0.0,0.0,0.0,0.0,0.0,0.0,0.0,0.0,0.0,0.0,0.0,0.0,0.0,0.0,0.0,0.0,0.0,0.0,0.0,0.0,0.0,0.0,0.0,0.0,0.0,0.0,0.0,0.0,0.0,0.0,0.0,0.0,0.0,0.0,0.0,0.0,0.0,0.0,0.0,0.0,0.0,0.0,0.0,0.0,0.0,0.0,0.0,0.0,0.0,0.0,0.0,0.0,0.0,0.0,0.0,0.0,0.0,0.0,0.0,0.0,0.0,0.0,0.0,0.0,0.0,0.0,0.0,0.0,0.0,0.0,0.0,0.0,0.0,0.0,0.0,0.0,0.0,0.0,0.0,0.0,0.0,0.0,0.0,0.0,0.0,0.0,0.0,0.0,0.0,0.0,0.0,0.0,0.0,0.0,0.0,0.0,0.0,0.0,0.0,0.0,0.0,0.0,0.0,0.0,0.0,0.0,0.0,0.0,0.0,0.0,0.0,0.0,0.0,0.0,0.0,0.0,0.0,0.0,0.0,0.0,0.0,0.0,0.0,0.0,0.0,0.0,0.0,0.0,0.0,0.0,0.0,0.0,0.0,0.0,0.0,0.0,0.0,0.0,0.0,0.0,0.0,0.0,0.0,0.0,0.0,0.0,0.0,0.0,0.0,0.0,0.0,0.0,0.0,0.0,0.0,0.0,0.0,0.0,0.0,0.0,0.0,0.0,0.0,0.0,0.0,0.0,0.0,0.0,0.0,0.0,0.0,0.0,0.0,0.0,0.0,0.0,0.0,0.0,0.0,0.0,0.0,0.0,0.0,0.0,0.0,0.0,0.0,0.0,0.0,0.0,0.0,0.0,0.0,0.0,0.0,0.0,0.0,0.0,0.0,0.0,0.0,0.0,0.0,0.0,0.0,0.0,0.0,0.0,0.0,0.0,0.0,0.0,0.0,0.0,0.0,0.0,0.0,0.0,0.0,0.0,0.0,0.0,0.0,0.0,0.0,0.0,0.0,0.0,0.0,0.0,0.0,0.0,0.0,0.0,0.0,0.0,0.0,0.0,0.0,0.0,0.0,0.0,0.0,0.0,0.0,0.0,0.0,0.0,0.0,0.0,0.0,0.0,0.0,0.0,0.0,0.0,0.0,0.0,0.0,0.0,0.0,0.0,0.0,0.0,0.0,0.0,0.0,0.0,0.0,0.0,0.0,0.0,0.0,0.0,0.0,0.0,0.0,0.0,0.0,0.0,0.0,0.0,0.0,0.0,0.0,0.0,0.0,0.0,0.0,0.0,0.0,0.0,0.0,0.0,0.0,0.0,0.0,0.0,0.0,0.0,0.0,0.0,0.0,0.0,0.0,0.0,0.0,0.0,0.0,0.0,0.0,0.0,0.0,0.0,0.0,0.0,0.0,0.0,0.0,0.0,0.0,0.0,0.0,0.0,0.0,0.0,0.0,0.0,0.0,0.0,0.0,0.0,0.0,0.0,0.0,0.0,0.0,0.0,0.0,0.0,0.0,0.0,0.0,0.0,0.0,0.0,0.0,0.0,0.0,0.0,0.0,0.0,0.0,0.0,0.0,0.0,0.0,0.0,0.0,0.0,0.0,0.0,0.0,0.0,0.0,0.0,0.0,0.0,0.0,0.0,0.0,0.0,0.0,0.0,0.0,0.0,0.0,0.0,0.0,0.0,0.0,0.0,0.0,0.0,0.0,0.0,0.0,0.0,0.0,0.0,0.0,0.0,0.0,0.0,0.0,0.0,0.0,0.0,0.0,0.0,0.0,0.0,0.0,0.0,0.0,0.0,0.0,0.0,0.0,0.0,0.0,0.0,0.0,0.0,0.0,0.0,0.0,0.0,0.0,0.0,0.0,0.0,0.0,0.0,0.0,0.0,0.0,0.0,0.0,0.0,0.0,0.0,0.0,0.0,0.0,0.0,0.0,0.0,0.0,0.0,0.0,0.0,0.0,0.0,0.0,0.0,0.0,0.0,0.0,0.0,0.0,0.0,0.0,0.0,0.0,0.0,0.0,0.0,0.0,0.0,0.0,0.0,0.0,0.0,0.0,0.0,0.0,0.0,0.0,0.0,0.0,0.0,0.0,0.0,0.0,0.0,0.0,0.0,0.0,0.0,0.0,0.0,0.0,0.0,0.0,0.0,0.0,0.0,0.0,0.0,0.0,0.0,0.0,0.0,0.0,0.0,0.0,0.0,0.0,0.0,0.0,0.0,0.0,0.0,0.0,0.0,0.0,0.0,0.0,0.0,0.0,0.0,0.0,0.0,0.0,0.0,0.0,0.0,0.0,0.0,0.0,0.0,0.0,0.0,0.0,0.0,0.0,0.0,0.0,0.0,0.0,0.0,0.0,0.0,0.0,0.0,0.0,0.0,0.0,0.0,0.0,0.0,0.0,0.0,0.0,0.0,0.0,0.0,0.0,0.0,0.0,0.0,0.0,0.0,0.0,0.0,0.0,0.0,0.0,0.0,0.0,0.0,0.0,0.0,0.0,0.0,0.0,0.0,0.0,0.0,0.0,0.0,0.0,0.0,0.0,0.0,0.0,0.0,0.0,0.0,0.0,0.0,0.0,0.0,0.0,0.0,0.0,0.0,0.0,0.0,0.0,0.0,0.0,0.0,0.0,0.0,0.0,0.0,0.0,0.0,0.0,0.0,0.0,0.0,0.0,0.0,0.0,0.0,0.0,0.0,0.0,0.0,0.0,0.0,0.0,0.0,0.0,0.0,0.0,0.0,0.0,0.0,0.0,0.0,0.0,0.0,0.0,0.0,0.0,0.0,0.0,0.0,0.0,0.0,0.0,0.0,0.0,0.0,0.0,0.0,0.0,0.0,0.0,0.0,0.0,0.0,0.0,0.0,0.0,0.0,0.0,0.0,0.0,0.0,0.0,0.0,0.0,0.0,0.0,0.0,0.0,0.0,0.0,0.0,0.0,0.0,0.0,5.0493,4.7914,0.0,0.0,0.0,0.0,0.0,0.0,0.0,0.0,0.0,0.0,0.0,0.0,0.0,0.0,0.0,0.0,0.0,0.0,0.0,0.0,0.0,0.0,0.0,2.4458,2.4976,2.6252,2.6062,0.0,0.0,0.0,0.0,0.0,0.0,0.0,0.0,0.0,2.564,2.7417,2.7357,2.8658,3.1116,2.949,2.7238,2.4495,0.0,0.0,0.0,0.0,0.0,0.0,0.0,0.0,0.0,0.0,0.0,0.0,0.0,0.0,0.0,0.0,0.0,0.0,0.0,0.0,0.0,0.0,0.0,0.0,0.0,0.0,0.0,0.0,0.0,0.0,0.0,0.0,0.0,0.0,0.0,0.0,0.0,0.0,0.0,0.0,0.0,0.0,0.0,0.0,0.0,0.0,0.0,0.0,0.0,0.0,0.0,0.0,0.0,0.0,0.0,0.0,0.0,0.0,0.0,0.0,0.0,0.0,0.0,0.0,0.0,0.0,0.0,0.0,0.0,0.0,5.3139,5.1572,0.0,0.0,0.0,0.0,0.0,0.0,0.0,0.0,0.0,0.0,0.0,0.0,0.0,0.0,0.0,0.0,0.0,0.0,0.0,0.0,0.0,2.4324,2.602,2.6191,2.695,2.8962,2.8423,2.8429,2.9468,2.8669,0.0,0.0,0.0,0.0,2.9021,2.8965,3.0254,3.2977,3.3682,3.4833,3.6411,3.6463,3.4197,3.0021,2.7491,0.0,0.0,0.0,0.0,0.0,0.0,0.0,0.0,0.0,0.0,0.0,0.0,0.0,0.0,0.0,0.0,0.0,0.0,0.0,0.0,0.0,0.0,0.0,0.0,0.0,0.0,0.0,0.0,0.0,0.0,0.0,0.0,0.0,0.0,0.0,0.0,0.0,0.0,0.0,0.0,0.0,0.0,0.0,0.0,0.0,0.0,0.0,0.0,0.0,0.0,0.0,0.0,0.0,0.0,0.0,0.0,0.0,0.0,0.0,0.0,0.0,0.0,0.0,5.636,5.6602,5.6709,5.6875,5.6951,5.6875,5.603,5.5712,5.5573,5.2679,0.0,0.0,0.0,0.0,0.0,0.0,0.0,0.0,0.0,0.0,0.0,0.0,0.0,0.0,0.0,0.0,0.0,0.0,0.0,2.5744,2.8298,2.8509,2.9433,3.1833,3.1254,3.1132,3.1957,3.0635,0.0,0.0,0.0,2.8989,2.9168,2.9867,3.1469,3.3992,3.8079,4.019,4.0427,4.0671,4.0438,3.9554,3.4966,3.2942,3.2783,0.0,0.0,0.0,0.0,0.0,0.0,0.0,0.0,0.0,0.0,0.0,0.0,0.0,0.0,0.0,0.0,0.0,0.0,0.0,0.0,0.0,0.0,0.0,0.0,0.0,0.0,0.0,0.0,0.0,0.0,0.0,0.0,0.0,0.0,0.0,0.0,0.0,0.0,0.0,0.0,0.0,4.7384,4.8602,0.0,0.0,0.0,0.0,0.0,0.0,0.0,0.0,0.0,0.0,0.0,0.0,0.0,5.4442,5.5723,5.6389,5.7151,5.7958,5.9464,6.0547,6.1197,6.1925,6.2296,6.2257,6.1423,0.0,5.6621,5.6076,0.0,0.0,0.0,0.0,0.0,0.0,0.0,0.0,0.0,0.0,0.0,0.0,0.0,0.0,0.0,0.0,0.0,0.0,0.0,0.0,0.0,3.1322,3.2674,3.5274,3.515,3.4806,3.4474,3.3358,0.0,0.0,3.095,3.1195,3.1735,3.3295,3.6181,4.0474,4.3648,4.5433,4.5906,4.5986,4.555,4.4582,4.2431,3.9445,3.597,3.4426,0.0,0.0,0.0,0.0,0.0,0.0,0.0,0.0,0.0,0.0,0.0,0.0,0.0,0.0,0.0,0.0,0.0,0.0,0.0,0.0,0.0,0.0,0.0,0.0,0.0,0.0,0.0,0.0,0.0,0.0,0.0,0.0,0.0,0.0,0.0,0.0,0.0,0.0,0.0,4.656,4.8487,5.0283,5.0144,4.9426,0.0,0.0,0.0,0.0,0.0,0.0,0.0,0.0,0.0,5.6315,5.6721,5.7761,5.956,6.0024,6.0616,6.1354,6.2056,6.2828,6.3582,6.399,6.4386,6.4756,6.4987,6.4143,6.2362,5.942,5.7822,5.7055,0.0,0.0,0.0,0.0,5.6582,5.709,0.0,0.0,0.0,0.0,0.0,0.0,0.0,0.0,0.0,0.0,0.0,0.0,3.3388,3.4545,3.629,3.9012,3.9409,3.9043,3.7953,3.6915,3.5564,3.3794,3.346,3.3547,3.3991,3.7223,4.1504,4.6785,4.8629,4.9884,5.0508,5.0472,4.9701,4.8323,4.814,4.4929,3.9585,3.8358,3.6303,3.366,0.0,0.0,0.0,0.0,0.0,0.0,0.0,0.0,0.0,0.0,0.0,0.0,0.0,0.0,0.0,0.0,0.0,0.0,0.0,0.0,0.0,0.0,0.0,0.0,0.0,0.0,0.0,0.0,0.0,0.0,0.0,0.0,0.0,0.0,0.0,0.0,0.0,4.8903,4.9904,5.1804,5.1767,5.1077,0.0,0.0,0.0,0.0,0.0,0.0,5.4866,5.609,5.7702,5.9664,5.9703,6.0714,6.288,6.3157,6.369,6.444,6.4621,6.5088,6.5847,6.5905,6.6205,6.6692,6.7454,6.7704,6.7248,6.3281,6.144,6.0966,5.9599,5.883,5.8719,6.0404,6.1106,6.1701,0.0,0.0,0.0,0.0,0.0,0.0,0.0,0.0,0.0,0.0,0.0,3.3862,3.6667,3.8287,4.0248,4.2883,4.3743,4.3834,4.31,4.1441,3.9438,3.7082,3.6303,3.5564,3.4847,4.1062,4.636,5.0525,5.2139,5.2983,5.3041,5.3041,5.2564,5.172,5.0949,4.871,4.5333,4.2983,4.1479,4.0215,3.5459,0.0,0.0,0.0,0.0,0.0,0.0,0.0,0.0,0.0,0.0,0.0,0.0,0.0,0.0,0.0,0.0,0.0,0.0,0.0,0.0,0.0,0.0,0.0,0.0,0.0,0.0,0.0,0.0,0.0,0.0,0.0,0.0,0.0,0.0,0.0,0.0,0.0,0.0,5.3194,5.3906,0.0,0.0,0.0,0.0,5.3288,5.4318,5.6022,5.851,5.8835,6.0123,6.2686,6.274,6.3169,6.4172,6.5031,6.5776,6.6468,6.7286,6.804,6.8684,6.8684,6.8723,6.8754,6.8801,6.8839,6.876,6.8126,6.6921,6.5461,6.5304,6.4409,6.3348,6.491,6.5596,6.6,0.0,0.0,0.0,2.7812,2.721,2.7463,2.9769,2.9913,3.0545,3.2704,3.4164,3.5954,3.8458,4.0696,4.3012,4.5498,4.6412,4.6596,4.5828,4.2788,4.1066,4.1266,3.9009,3.9559,4.3426,4.6892,5.0362,5.3885,5.4473,5.5023,5.5537,5.5537,5.4803,5.3518,5.3225,5.1903,4.9627,4.6654,4.4048,4.1662,3.9407,3.6097,0.0,0.0,0.0,0.0,0.0,0.0,0.0,0.0,0.0,0.0,0.0,0.0,0.0,0.0,0.0,0.0,0.0,0.0,0.0,0.0,0.0,0.0,0.0,0.0,0.0,0.0,0.0,0.0,0.0,0.0,0.0,0.0,0.0,0.0,0.0,0.0,0.0,5.4088,5.5052,0.0,5.368,5.5181,5.6741,5.786,5.8786,6.0207,6.2275,6.2404,6.3352,6.539,6.5421,6.6123,6.7576,6.7888,6.815,6.8401,6.8622,6.9112,6.9882,6.9889,7.0109,7.0565,7.0667,7.0654,7.0541,7.0428,6.9362,6.7765,6.7663,6.7625,6.7652,6.8129,6.8681,6.927,0.0,0.0,0.0,2.8098,2.7355,2.7598,3.0499,3.0706,3.1479,3.4146,3.6135,3.8146,4.0288,4.3194,4.5791,4.7716,4.8869,4.9255,4.88,4.5205,4.337,4.3864,4.1751,4.355,5.0007,5.1224,5.3318,5.6381,5.6381,5.6675,5.7189,5.7189,5.6492,5.5207,5.4913,5.4069,5.2637,5.0215,4.759,4.5039,4.3422,4.0567,3.6924,0.0,0.0,0.0,0.0,0.0,0.0,0.0,0.0,0.0,0.0,0.0,0.0,0.0,0.0,0.0,0.0,0.0,0.0,0.0,0.0,0.0,0.0,0.0,0.0,0.0,0.0,0.0,0.0,0.0,0.0,0.0,0.0,0.0,0.0,5.2764,5.3829,5.5557,5.6586,5.7069,5.6843,5.8478,6.0026,6.1174,6.2071,6.3321,6.5041,6.5158,6.5939,6.7615,6.7693,6.8239,6.9372,6.9684,6.984,6.984,7.0033,7.0433,7.0931,7.094,7.1214,7.1686,7.1765,7.1755,7.168,7.168,7.0953,6.9802,6.9634,6.9913,7.0408,7.0195,7.0503,7.0992,0.0,0.0,2.7719,2.8794,2.8338,2.8606,3.1029,3.1433,3.2608,3.5826,3.8282,4.0374,4.2159,4.5901,4.8612,4.961,5.1116,5.2034,5.2018,4.8913,4.6397,4.4854,4.4591,4.7462,5.3758,5.3944,5.5306,5.8042,5.8042,5.8042,5.8042,5.8042,5.7616,5.6844,5.6037,5.5207,5.4436,5.3665,5.2417,5.0655,4.7537,4.5308,4.3332,0.0,0.0,0.0,0.0,0.0,0.0,0.0,0.0,0.0,0.0,0.0,0.0,0.0,0.0,0.0,0.0,0.0,0.0,0.0,0.0,0.0,0.0,0.0,0.0,0.0,0.0,0.0,0.0,0.0,0.0,0.0,0.0,0.0,5.2495,5.4017,5.5825,5.7616,5.8637,5.9508,6.039,6.2032,6.3047,6.3125,6.3906,6.5119,6.6795,6.6873,6.7654,6.9372,6.945,6.945,6.9489,7.0309,7.0738,7.0738,7.1597,7.1987,7.1987,7.1987,7.1987,7.1987,7.1987,7.1987,7.1984,7.1984,7.1901,7.171,7.1349,7.131,7.143,7.1055,7.1068,7.1236,2.8137,2.7357,2.7259,2.8755,2.8338,2.8606,3.1029,3.1898,3.3023,3.5078,3.7961,4.0932,4.3737,4.7149,4.9892,5.1546,5.2418,5.281,5.2732,4.8873,4.6517,4.6367,5.082,5.4153,5.5917,5.7135,5.8109,5.887,5.887,5.887,5.887,5.8566,5.8344,5.8063,5.7567,5.6895,5.6124,5.5904,5.5207,5.4054,5.1474,4.8827,4.617,0.0,0.0,0.0,0.0,0.0,0.0,0.0,0.0,0.0,0.0,0.0,0.0,0.0,0.0,0.0,0.0,0.0,0.0,0.0,0.0,0.0,0.0,0.0,0.0,0.0,0.0,0.0,0.0,0.0,0.0,0.0,5.3436,5.5213,5.4511,5.5435,5.6821,5.8546,6.0071,6.1322,6.2189,6.3282,6.4453,6.5663,6.5975,6.6873,6.8591,6.8708,6.9176,7.0309,7.0348,7.066,7.1285,7.1519,7.1636,7.1636,7.187,7.1987,7.1987,7.1987,7.1987,7.1987,7.1987,7.192,7.1785,7.1726,7.1952,7.2266,7.155,7.1261,7.1242,7.1514,7.2054,7.2635,2.8411,2.764,2.7493,2.8767,2.862,2.8888,3.0613,3.1861,3.3426,3.5752,3.8693,4.1994,4.556,4.8569,5.0954,5.2618,5.2844,5.2789,5.2503,4.9749,4.8984,5.077,5.4532,5.7029,5.8014,5.8977,5.9379,5.9215,5.9215,5.9215,5.9197,5.8968,5.887,5.885,5.8586,5.8259,5.7814,5.7819,5.7311,5.6351,5.5191,5.281,4.9806,4.8331,4.7026,4.5935,4.5112,4.4683,4.4508,4.4652,0.0,0.0,0.0,0.0,0.0,0.0,0.0,0.0,0.0,0.0,0.0,0.0,0.0,0.0,0.0,0.0,0.0,0.0,0.0,0.0,0.0,0.0,0.0,0.0,5.5575,5.7577,5.7409,5.7848,5.8831,6.0549,6.1954,6.3243,6.4453,6.539,6.6288,6.7264,6.7693,6.8474,6.9879,6.9957,7.0348,7.1206,7.1245,7.148,7.1987,7.1987,7.1987,7.1987,7.1987,7.1972,7.1866,7.1858,7.1984,7.2251,7.224,7.2342,7.2531,7.2508,7.2664,7.2893,0.0,0.0,0.0,0.0,7.2763,7.3185,2.8877,2.8301,2.8044,2.8877,2.8987,2.928,3.0099,3.158,3.3787,3.7,3.9791,4.3066,4.7132,4.974,5.1705,5.2881,5.2728,5.2341,5.1818,5.1538,5.2885,5.6101,5.6496,5.7696,5.9836,5.9874,5.9673,5.9343,5.9343,5.9343,5.9343,5.9289,5.927,5.927,5.9234,5.9215,5.9215,5.925,5.8728,5.7844,5.8244,5.6514,5.3474,5.1321,5.0472,5.0187,4.8475,4.7866,4.7778,4.6894,0.0,0.0,0.0,0.0,0.0,0.0,0.0,0.0,0.0,0.0,0.0,0.0,0.0,0.0,0.0,0.0,0.0,0.0,0.0,0.0,0.0,0.0,0.0,0.0,5.7621,5.9534,6.0432,6.0705,6.1408,6.2969,6.3906,6.508,6.6639,6.7576,6.8083,6.8083,6.8981,6.9879,7.066,7.0777,0.0,0.0,0.0,7.1987,7.1987,7.1984,7.1982,7.1982,7.1972,7.1854,7.1683,7.1608,7.194,7.2588,7.2551,7.2938,7.3672,7.3672,7.3605,7.3484,7.2649,7.2803,7.3573,7.3377,7.3383,7.346,2.8154,2.7908,2.8044,2.8877,2.8987,2.928,3.0099,3.1751,3.3858,3.6506,3.921,4.2435,4.6518,4.9177,5.112,5.2363,5.2726,5.2698,5.2212,5.489,5.6505,5.6521,5.8481,5.9803,6.0246,6.0285,6.0256,6.0159,6.0159,6.0159,6.0159,5.9842,5.9673,5.9656,5.9361,5.9215,5.9215,5.925,5.9174,5.895,5.8535,5.7044,5.5023,5.485,5.4586,5.4193,5.3797,5.3809,5.3857,5.3049,5.1856,5.0471,4.9086,4.7509,0.0,0.0,0.0,0.0,0.0,0.0,0.0,0.0,0.0,0.0,0.0,0.0,0.0,0.0,0.0,0.0,0.0,0.0,0.0,5.7192,5.8909,6.0432,6.133,6.2657,6.3674,6.4026,6.4804,6.5741,6.6717,6.7576,6.8083,6.8083,6.9567,7.0504,7.0699,7.1363,7.1831,7.1987,7.1987,7.1987,7.1987,7.1959,7.1905,7.1905,7.1683,0.0,7.1534,7.1348,7.1735,7.2502,7.2492,7.2883,7.3548,7.3408,7.3654,7.4008,7.323,7.3367,7.4068,7.4002,7.4444,7.5056,2.8484,2.8411,2.8521,2.8913,2.9421,2.9758,2.9769,3.1329,3.3374,3.5885,3.8235,4.1266,4.5364,4.6883,4.8102,4.9277,5.0009,5.1006,5.2473,5.5134,5.7199,5.8473,5.972,6.0422,6.0422,6.0422,6.0422,6.0422,6.0422,6.0422,6.0408,6.0173,6.0099,6.0099,5.989,5.9809,5.9826,5.9915,5.983,5.9701,5.9625,5.8652,5.7125,5.6487,5.6085,5.5887,5.5603,5.5604,5.5626,5.5241,5.4511,5.3664,5.2818,5.1395,4.9548,0.0,0.0,0.0,0.0,0.0,0.0,0.0,0.0,0.0,0.0,0.0,0.0,0.0,0.0,5.4364,5.5652,0.0,5.8269,5.9557,6.0835,6.2149,6.3477,6.4414,6.496,6.496,6.5702,6.6366,6.6756,6.7966,6.8747,6.8747,7.0387,7.1363,7.1363,7.1753,7.1982,7.1963,7.1963,7.1913,7.1893,7.1872,7.1799,7.1716,7.1549,7.1426,7.1223,7.107,7.1668,7.2816,7.2777,7.3413,7.4497,7.4413,7.4593,7.4813,7.4444,7.4503,7.4851,7.4851,7.5119,7.5556,2.8987,2.8987,2.8987,2.8987,2.9695,3.0044,2.9386,3.0747,3.2698,3.5012,3.6893,3.9454,4.3266,4.3914,4.468,4.6135,4.7494,4.9519,5.2384,5.4639,5.716,6.0026,6.0293,6.0422,6.0422,6.0422,6.0422,6.0422,6.0422,6.0422,6.0422,6.0422,6.0422,6.0422,6.0422,6.0422,6.0422,6.0506,6.0439,6.0217,6.0635,6.0111,5.8922,5.743,5.6741,5.6511,5.5907,5.5703,5.5703,5.5703,5.5703,5.5703,5.5703,5.478,5.3203,5.0856,5.0358,0.0,0.0,0.0,0.0,0.0,0.0,0.0,0.0,5.2936,5.3526,5.4742,5.5656,5.664,5.8047,5.9023,6.0117,6.1678,6.2525,6.3601,6.5351,6.5585,6.566,6.5811,6.6402,6.6873,6.7029,6.8474,6.9447,6.9637,7.1081,7.1976,7.1969,7.1969,7.1955,7.1881,7.1881,7.1862,7.1817,7.1749,7.1654,7.1482,7.137,7.1193,7.094,7.0939,7.1756,7.3117,7.3357,7.424,7.5518,7.5518,7.5518,7.5518,7.5518,7.5518,7.5518,7.5518,7.5518,7.5633,2.8987,2.8987,2.8987,2.8987,2.9226,2.9386,2.9312,3.0415,3.1934,3.3677,3.4902,3.6646,3.9356,4.096,4.2802,4.5239,4.8258,5.0512,5.1658,5.5441,5.8116,5.9224,5.9988,6.0422,6.0422,6.0422,6.0422,6.0422,6.0422,6.0422,6.0422,6.0422,6.0422,6.0422,6.0422,6.0422,6.0384,6.0466,6.0506,6.0546,6.066,6.0222,5.935,5.8427,5.7631,5.6824,5.6011,5.5703,5.5703,5.5703,5.5703,5.5703,5.5703,5.5549,5.5049,5.3318,5.3406,5.3399,5.0099,4.9629,5.0471,5.2156,5.196,5.239,0.0,5.602,5.5679,5.8042,5.9216,5.9882,6.0073,6.0774,6.1677,6.2694,6.2926,6.3623,6.5355,6.5585,6.5887,6.6599,6.6739,6.7107,6.7888,6.8825,6.9712,7.0423,7.1355,7.1881,7.1838,7.1838,7.1833,7.1827,7.1827,7.1822,7.1817,7.1551,7.1448,7.143,7.0988,7.0769,7.0738,7.1321,7.2112,7.3072,7.4601,7.531,7.5518,7.5518,7.5518,7.5518,7.5518,7.5518,7.5518,7.5518,7.5518,7.5633,2.8987,2.8987,2.8987,2.8987,2.9163,2.9322,2.9322,2.9935,3.105,3.2727,3.3405,3.4533,3.6566,3.7406,3.8476,4.0043,4.4131,4.7406,4.9278,5.3339,5.6052,5.6918,5.823,5.8956,5.8956,5.9911,6.0422,6.0422,6.0422,6.0141,5.9644,5.9644,5.9376,5.8956,5.8956,5.8956,5.897,5.9037,5.9038,5.9077,5.9152,5.9022,5.8646,5.7812,5.7297,5.683,5.5472,5.5011,0.0,5.5011,5.5011,5.5088,5.5549,5.5395,5.4773,5.3667,5.3677,5.389,5.3178,5.271,5.2897,5.5123,5.5396,5.5747,5.8011,5.8417,5.8586,5.9646,6.0505,6.1115,6.1102,6.1373,6.2049,6.3475,6.371,6.4325,6.6037,6.6301,6.6404,6.6711,6.672,6.6888,6.7239,6.8492,6.9419,6.9748,7.1073,7.1843,7.1778,7.1817,7.1761,7.1725,7.1725,7.1706,7.1665,7.146,7.128,7.1175,7.085,7.0637,7.054,7.1347,7.2406,7.3781,7.4966,7.5518,7.5518,7.5518,7.5518,7.5518,7.5518,7.5518,7.5518,7.5518,7.5806,7.6303,2.8975,2.8987,2.8987,2.8987,2.9134,2.9238,2.9312,2.9579,3.0263,3.1535,3.1841,3.25,3.3998,3.438,3.4838,3.5717,3.9995,4.3815,4.6566,5.0703,5.3645,5.4982,5.6434,5.7199,5.7199,5.8383,5.9109,5.9352,5.9352,5.9147,5.8765,5.8765,5.8459,5.7886,5.7886,5.7886,5.7886,5.7939,5.7979,5.7992,5.8055,5.7963,5.7743,5.709,5.6329,5.5462,5.4451,5.4115,5.4049,5.3308,5.3231,5.351,5.3857,5.3741,5.3407,5.3099,5.3145,5.3589,5.4945,5.4849,5.4851,5.693,5.7791,5.8378,5.9244,5.9958,6.0469,6.0702,6.119,6.1618,6.1602,6.1612,6.2147,6.39,6.4179,6.4791,6.6545,6.6775,6.6763,6.6696,6.6686,6.668,6.6663,6.8177,6.9278,6.9496,7.0937,7.1743,7.177,7.1725,7.1706,7.169,7.1683,7.1606,7.1508,7.1309,7.1136,7.0902,7.0724,7.0555,7.0457,7.1565,7.2826,7.424,7.5119,7.5518,7.5518,7.5518,7.5518,7.5518,7.5518,7.5518,7.5518,7.5518,7.5997,7.6838,2.894,2.8987,2.8987,2.8987,2.9023,2.9078,2.928,2.9465,2.9699,2.9948,2.9972,3.0386,3.1508,3.2317,3.3119,3.4014,3.7177,4.0578,4.3892,4.8067,5.1544,5.4027,5.5021,5.5479,5.5479,5.5517,5.5938,5.6715,5.6715,5.7122,5.7925,5.7925,5.7925,5.7886,5.7886,5.7886,5.7886,5.7886,5.7926,5.7992,5.7992,5.7544,5.6839,5.6801,5.4802,5.2043,5.286,5.32,5.2846,5.0307,5.0048,5.0673,4.9856,5.0164,5.0981,5.1893,5.2343,5.2925,5.4797,5.5281,5.5482,5.6324,5.7811,5.9296,6.0151,6.0381,6.061,6.1398,6.1582,6.1605,6.1586,6.1584,6.2152,6.3828,6.4178,6.4786,6.6464,6.6755,6.675,6.66,6.6588,6.6601,6.6524,6.8124,6.9535,7.0292,7.1219,7.169,7.1614,7.1606,7.1606,7.1606,7.1606,7.1499,7.1309,7.1124,7.0889,7.0724,7.0508,7.0419,7.0457,7.2176,7.3399,7.424,7.5119,7.5518,7.5518,7.5518,7.5518,7.5518,7.5518,7.5518,7.5518,7.5518,7.5997,7.6838,2.8964,2.8987,2.8987,2.8987,2.8987,2.901,2.91,2.928,2.9416,2.9485,2.9753,0.0,0.0,0.0,0.0,0.0,3.5717,3.8544,4.1371,4.4427,4.7253,4.9824,5.1811,5.3148,5.3645,5.483,5.5517,5.5785,5.5785,5.567,5.5365,5.5365,5.5059,5.4524,5.4524,5.4524,5.4524,5.4524,5.4842,5.5403,5.5403,5.5593,5.5808,5.5272,5.3721,5.1544,0.0,4.8558,4.7932,4.6453,4.6192,4.6613,4.7524,4.802,4.8663,5.0847,5.2052,5.3155,5.5455,5.6086,5.6597,5.8593,5.9528,6.0192,6.1007,6.1188,6.1286,6.1546,6.206,6.2469,6.2453,6.2449,6.2799,6.3979,6.365,6.3845,6.555,6.5779,6.5995,6.6482,6.6546,6.6538,6.6508,6.7571,6.8603,6.9468,7.0316,7.1008,7.1559,7.1598,7.1556,7.1417,7.1417,7.1299,7.1085,7.0889,7.078,7.071,7.0493,7.0686,7.1298,7.2482,7.3437,7.424,7.5119,7.5518,7.5518,7.5518,7.5518,7.5518,7.5518,7.5518,7.5539,7.6112,7.6838,7.7602,2.9318,2.9207,2.9097,2.939,2.9207,0.0,0.0,0.0,0.0,0.0,0.0,0.0,0.0,0.0,0.0,0.0,0.0,3.6099,3.8315,4.053,4.2908,4.543,4.6833,4.7952,4.8754,4.9595,5.0588,5.1773,5.1773,5.2117,5.2728,5.2728,5.2422,5.1926,5.1926,5.1926,5.1926,5.1926,5.2422,5.3148,5.2537,5.2638,5.3018,5.1882,5.0074,0.0,4.5333,4.3576,4.2439,4.2471,4.2919,4.3582,4.4491,4.5854,4.7606,5.004,5.1698,5.3268,5.5817,5.6718,5.7499,5.9787,6.0602,6.0954,6.1461,6.1601,6.159,6.1612,6.2067,6.241,6.2404,6.2614,6.3201,6.4411,6.4379,6.4675,6.5985,6.6218,6.6283,6.6477,6.6508,6.6508,6.6508,6.7014,6.7829,6.8995,6.9849,7.0665,7.1559,7.1517,7.1445,7.1299,7.1236,7.1112,7.0876,7.0742,7.0666,7.0578,7.0461,7.0686,7.1259,7.2444,7.3284,7.3858,7.5004,7.5518,7.5518,7.5518,7.5518,7.5518,7.5518,7.5518,7.5594,7.6379,7.7258,7.8061,2.9905,2.9525,2.9244,0.0,0.0,0.0,0.0,0.0,0.0,0.0,0.0,0.0,0.0,0.0,0.0,0.0,0.0,0.0,3.5037,3.6642,3.8629,4.1189,4.0616,4.0616,4.1418,4.0692,4.1877,4.5097,4.5097,4.6768,4.9939,4.9939,4.9939,4.9939,4.9977,5.0015,5.0054,5.0092,5.0588,5.12,4.9595,4.8957,4.8804,4.7035,4.4411,4.1548,4.0637,3.8815,3.7021,3.8691,4.0507,4.1937,4.1373,4.4128,4.7905,4.9662,5.1412,5.3319,5.5937,5.7225,5.8263,5.9948,6.099,6.1618,6.1582,6.1585,6.1564,6.1522,6.1562,6.1562,6.1437,6.2191,6.3318,6.4909,6.5933,6.6774,6.7541,6.7695,6.7404,6.6594,6.6508,6.6508,6.6508,6.6508,6.72,6.894,6.9803,7.0626,7.1551,7.1378,7.1288,7.1268,7.1062,7.0876,7.0695,7.0695,7.0578,7.0419,7.0419,7.0419,7.0457,7.2215,7.2979,7.3093,7.4792,7.5518,7.5518,7.5518,7.5518,7.5518,7.5518,7.5518,7.5577,7.6456,7.7296,7.8137,0.0,0.0,0.0,0.0,0.0,0.0,0.0,0.0,0.0,0.0,0.0,0.0,0.0,0.0,0.0,0.0,0.0,0.0,3.4159,3.4702,3.6077,3.8553,3.9088,3.9737,4.0578,4.0416,4.0998,4.245,4.245,4.3252,4.4704,4.4704,4.4704,4.4743,4.5343,4.5965,4.6615,4.7226,4.7608,4.7761,4.7341,4.715,4.6997,4.5267,4.3761,4.2276,4.0206,3.8661,3.776,3.8298,4.0995,4.4429,4.6162,4.7952,4.9871,5.2292,5.328,5.4289,5.7477,5.8519,5.9126,6.0832,6.1439,6.1576,6.1522,6.1534,6.1351,6.0702,6.1052,6.1321,6.0634,6.1729,6.289,6.3364,6.3612,6.422,6.5654,6.5358,6.5365,6.6392,6.6508,6.6508,6.6508,6.6508,6.7168,6.8762,6.9209,6.9994,7.1329,7.1319,7.1142,7.085,7.0783,7.0681,7.0477,7.0477,7.0445,7.0419,7.0419,7.0419,7.0457,7.2215,7.2979,7.3093,7.4792,7.5518,7.5518,7.5518,7.5518,7.5518,7.5518,7.5518,7.5671,7.7144,7.7831,7.8213,0.0,0.0,0.0,0.0,0.0,0.0,0.0,0.0,0.0,0.0,0.0,0.0,0.0,0.0,0.0,0.0,0.0,0.0,0.0,3.2516,3.3401,3.5804,3.5416,3.5683,3.6824,3.6218,3.6795,3.8744,3.8362,3.9202,4.1113,4.0731,4.0769,4.1151,4.16,4.2297,4.3138,4.3596,4.4208,0.0,0.0,4.3978,4.4093,4.203,4.0786,3.9908,3.8068,3.8705,4.0575,4.1779,4.395,4.6467,4.8634,4.9948,5.1093,5.332,5.421,5.5047,5.7721,5.8445,5.8769,6.0136,6.046,6.035,5.9945,6.0114,6.0038,5.8788,5.9511,5.9967,5.8702,6.0809,6.2713,6.2737,6.3662,6.4838,6.6159,6.5615,6.546,6.6392,6.6508,6.6508,6.6508,6.6422,6.7044,6.8665,6.8897,6.9614,7.1076,7.1074,7.0928,7.0724,7.0608,7.0524,7.0419,7.0419,7.0419,7.0419,7.0419,7.0419,7.0457,7.2215,7.2979,7.3093,7.4792,7.5518,7.5518,7.5518,7.5518,7.5518,7.5518,7.5518,7.5692,7.7373,7.8022,7.8252,0.0,0.0,0.0,0.0,0.0,0.0,0.0,0.0,0.0,2.9683,2.964,2.9672,2.9872,2.9897,0.0,0.0,0.0,0.0,0.0,0.0,3.1066,3.3013,3.1241,3.0784,3.2012,3.0792,3.1638,3.4628,3.395,3.5141,3.8097,3.7342,3.7427,3.8171,3.84,3.8973,3.9804,4.0034,4.096,4.2183,4.0721,4.054,4.0941,0.0,3.7206,3.6673,3.5928,3.8986,4.3839,4.6575,4.7908,4.8725,5.0426,5.1484,5.2344,5.3819,5.4769,5.5717,5.7356,5.7751,5.791,5.8763,5.9006,5.8788,5.7889,5.8276,5.8319,5.6583,5.7353,5.792,5.6421,5.936,6.2119,6.2468,6.4488,6.6431,6.7635,6.6936,6.6392,6.6664,6.6586,6.6501,6.6446,6.6299,6.6903,6.8594,6.871,6.938,7.0876,7.0769,7.0695,7.0666,7.0493,7.0419,7.0419,7.0419,7.0419,7.0419,7.0419,7.0419,7.0457,7.2215,7.2979,7.3093,7.4792,7.5518,7.5518,7.5518,7.5518,7.5518,7.5518,7.5518,7.5692,7.7258,7.7908,7.8213,0.0,0.0,0.0,0.0,0.0,0.0,0.0,0.0,0.0,0.0,3.0476,2.9475,0.0,0.0,0.0,0.0,0.0,0.0,0.0,0.0,0.0,3.0549,3.0327,3.0167,3.0095,3.0007,3.0524,3.1629,3.1516,3.2174,3.3539,3.3387,3.3494,3.3845,3.522,3.6328,3.7245,3.8629,3.9393,3.9623,3.9355,3.9344,3.9312,3.7428,0.0,0.0,3.7617,4.0123,4.3912,4.7291,5.0438,5.3176,5.4877,5.5508,5.5655,5.5942,5.6173,5.648,5.7455,5.7723,5.791,5.8763,5.9006,5.8755,5.7812,5.7793,5.7427,5.5619,5.5455,5.5566,5.5281,5.6991,5.9166,6.1264,6.2585,6.4411,6.7363,6.6431,6.5965,6.7402,6.6936,6.6431,6.6281,6.6205,6.6773,6.8193,6.8321,6.9038,7.0651,7.0724,7.0622,7.0445,7.0435,7.0419,7.0419,7.0419,7.0419,7.0419,7.0419,7.0419,7.0457,7.2215,7.2979,7.3093,7.4792,7.5518,7.5518,7.5518,7.5518,7.5518,7.5518,7.5518,7.5633,7.657,7.7373,7.8137,0.0,0.0,0.0,0.0,0.0,0.0,0.0,3.1445,3.2032,3.3647,3.3311,3.2425,3.0974,3.0452,3.0283,0.0,0.0,0.0,0.0,0.0,0.0,3.0865,3.0249,2.995,3.0051,2.9842,3.0132,3.0885,0.0,3.0706,3.1637,3.1736,3.2049,3.258,3.3966,3.5037,3.587,3.668,3.7521,3.8323,3.8323,3.8656,3.8967,3.7666,0.0,0.0,3.8501,4.0882,4.381,4.5946,4.9625,5.3684,5.5815,5.6484,5.6511,5.6519,5.6514,5.6585,5.6974,5.7091,5.7178,5.7595,5.7718,5.7331,5.5928,5.6004,5.5705,5.3491,5.3727,5.4077,5.3183,5.5514,5.8007,5.9205,6.1264,6.3595,6.6081,6.612,6.6198,6.7014,6.7066,6.6803,6.6235,6.6035,6.6574,6.8098,6.81,6.8793,7.044,7.0517,7.0508,7.0419,7.0419,7.0419,7.0419,7.0419,7.0419,7.0419,7.0419,7.0419,7.0457,7.1756,7.2559,7.3055,7.4278,7.508,7.5518,7.5518,7.5518,7.5518,7.5518,7.5518,7.5594,7.6379,7.6953,7.7449,0.0,0.0,0.0,0.0,0.0,0.0,0.0,3.2986,3.383,3.5775,3.6486,3.5749,3.3007,3.1707,3.0714,0.0,0.0,0.0,0.0,0.0,0.0,0.0,0.0,0.0,3.0154,0.0,0.0,3.0747,3.0241,0.0,0.0,0.0,0.0,0.0,3.3514,3.435,3.4961,3.5114,3.6184,0.0,0.0,3.8206,3.9291,0.0,0.0,0.0,0.0,4.1112,4.3231,4.4448,4.7718,5.1771,5.4326,5.5742,5.6477,5.6287,5.6365,5.6488,5.6488,5.6488,5.65,5.6511,5.6508,5.6015,5.4229,5.4323,5.4129,5.1692,5.2251,5.2795,5.1668,5.4349,5.6997,5.7735,6.0254,6.2934,6.5141,6.6081,6.6617,6.6935,6.7298,6.7203,6.6397,6.5946,6.6304,6.7759,6.8044,6.8814,7.0342,7.0419,7.0419,7.0419,7.0419,7.0419,7.0419,7.0419,7.0419,7.0419,7.0419,7.0419,7.0419,7.1298,7.2176,7.3055,7.3858,7.4698,7.5518,7.5518,7.5518,7.5518,7.5518,7.5518,7.5594,7.6188,7.6532,7.6782,0.0,0.0,0.0,0.0,0.0,0.0,0.0,3.4307,3.5885,3.9019,3.8872,3.7808,3.6074,3.3968,3.2128,0.0,0.0,0.0,0.0,0.0,0.0,0.0,0.0,0.0,0.0,0.0,0.0,3.0281,3.0906,0.0,0.0,0.0,0.0,0.0,0.0,3.4052,3.4167,3.4885,0.0,0.0,0.0,0.0,0.0,0.0,0.0,0.0,0.0,4.037,4.1626,4.4135,4.5828,4.7317,4.9893,5.3349,5.6328,5.5552,5.5879,5.65,5.65,5.65,5.6511,5.6506,5.6484,5.6037,5.4218,5.3872,5.3379,5.1564,5.1319,5.163,5.2173,5.3261,5.5054,5.8195,5.9632,6.173,6.5809,6.647,6.7005,6.8423,6.7939,6.7343,6.6885,6.6166,6.6019,6.6797,6.8218,6.9464,7.0342,7.0419,7.0419,7.0419,7.0419,7.0419,7.0419,7.0419,7.0419,7.0419,7.0419,7.0419,7.0419,7.1298,7.2176,7.3055,7.3858,7.4698,7.5518,7.5518,7.5518,7.5518,7.5518,7.5518,7.5518,7.5594,7.6074,7.6631,0.0,0.0,0.0,0.0,0.0,0.0,3.4046,3.4784,3.6362,4.012,4.0325,3.9717,3.8579,3.6366,3.3732,3.0709,0.0,0.0,0.0,0.0,0.0,0.0,0.0,0.0,0.0,0.0,3.0734,3.1629,3.1971,0.0,0.0,0.0,0.0,0.0,0.0,3.4732,3.477,3.5682,0.0,0.0,0.0,0.0,0.0,0.0,0.0,0.0,0.0,0.0,4.1205,4.2274,4.3918,4.5597,4.6105,4.9197,5.288,5.4139,5.5066,5.5837,5.6344,5.6893,5.7175,5.664,5.6866,5.6608,5.4309,5.3818,5.3296,5.1564,5.1202,5.1319,5.163,5.2368,5.3727,5.6136,5.769,5.971,6.2973,6.469,6.601,6.7106,6.7625,6.7667,6.6959,6.6552,6.6628,6.7378,6.8547,6.954,7.0381,7.0419,7.0419,7.0419,7.0419,7.0419,7.0419,7.0419,7.0419,7.0419,7.0419,7.0419,7.0419,7.0763,7.1374,7.2253,7.3093,7.3934,7.4775,7.5271,7.5518,7.5518,7.5518,7.5518,7.5445,7.5132,7.5532,7.61,0.0,0.0,0.0,0.0,0.0,3.1066,3.4179,3.5261,3.7022,4.0618,4.0875,4.0634,4.0304,3.7881,3.5128,3.2265,3.051,0.0,0.0,0.0,0.0,0.0,0.0,0.0,0.0,0.0,3.1715,3.2583,3.3096,3.3476,0.0,0.0,3.4905,3.4969,0.0,0.0,0.0,0.0,0.0,0.0,0.0,0.0,0.0,0.0,0.0,0.0,0.0,0.0,0.0,0.0,0.0,4.4114,4.3528,4.5753,4.9194,5.2301,5.3984,5.5075,5.6208,5.7108,5.7617,5.7047,5.7299,5.7073,5.4704,5.3963,5.3275,5.1558,5.1202,5.1202,5.1202,5.2057,5.3261,5.4776,5.6447,5.8506,6.1024,6.3244,6.4996,6.5982,6.7152,6.7585,6.6887,6.6498,6.6674,6.7477,6.8317,6.9196,6.9999,7.0266,7.0419,7.0419,7.0419,7.0419,7.0419,7.0419,7.0419,7.0419,7.0419,7.0419,7.0419,7.0419,7.0877,7.1718,7.2329,7.3208,7.424,7.4851,7.518,7.5263,7.5263,7.5304,7.5379,7.5002,7.5345,7.5922,0.0,0.0,0.0,0.0,0.0,0.0,3.3469,3.5913,3.8374,4.0765,4.0414,4.0194,4.0985,3.8212,3.6266,3.6229,3.2522,0.0,0.0,0.0,0.0,0.0,0.0,0.0,0.0,0.0,3.3366,3.2583,3.4197,3.4605,3.3926,3.5189,3.5873,3.601,0.0,0.0,0.0,0.0,0.0,0.0,0.0,0.0,0.0,0.0,0.0,0.0,0.0,0.0,0.0,0.0,0.0,0.0,0.0,4.3645,4.5875,5.0153,5.2655,5.4373,5.6052,5.7101,5.7705,5.7782,5.7706,5.7164,5.5452,5.4358,5.3228,5.1552,5.1202,5.1202,5.1202,5.2562,5.396,5.4854,5.6447,5.8506,6.1024,6.2749,6.4261,6.5743,6.6577,6.6915,6.6743,6.591,6.5757,6.6636,6.7477,6.8279,6.9158,6.996,7.0419,7.0419,7.0419,7.0419,7.0419,7.0419,7.0419,7.0419,7.0419,7.0419,7.0419,7.0419,7.0877,7.168,7.1735,7.2673,7.4201,7.4201,7.4389,7.4725,7.4725,7.4924,7.5187,7.5187,7.5713,7.6329,0.0,0.0,0.0,0.0,0.0,0.0,0.0,3.41,3.5826,3.8322,3.841,3.8778,4.012,3.8395,3.7331,3.7881,3.4688,0.0,0.0,0.0,0.0,0.0,0.0,0.0,0.0,3.2999,3.3954,3.595,3.645,3.7542,3.9133,3.7966,3.7909,3.8677,3.7233,3.7071,0.0,0.0,0.0,0.0,0.0,0.0,0.0,0.0,0.0,0.0,0.0,0.0,0.0,0.0,0.0,0.0,0.0,0.0,0.0,4.6272,4.9476,5.2326,5.2872,5.4461,5.5723,5.4546,5.4649,5.4708,5.3536,5.3007,5.2484,5.1435,5.1202,5.1358,5.1901,5.2018,5.2834,5.5476,5.5864,5.6886,5.9948,6.166,6.3158,6.4705,6.6005,6.6766,6.6713,6.591,6.5757,6.6636,6.7439,6.8279,6.9158,6.996,7.0419,7.0419,7.0419,7.0419,7.0419,7.0419,7.0419,7.0419,7.0419,7.0419,7.0419,7.0419,7.0572,7.0839,7.145,7.2329,7.342,7.3649,7.4104,7.4723,7.495,7.5102,7.5253,7.5445,7.6063,7.6617,0.0,0.0,0.0,0.0,0.0,0.0,0.0,3.308,3.4798,3.634,3.6817,3.7786,3.9696,3.8447,3.797,3.9056,3.7,0.0,0.0,0.0,0.0,0.0,0.0,0.0,3.377,3.3917,3.5165,3.7492,3.7823,3.9039,4.1162,4.014,3.9811,4.0005,3.8687,3.8385,0.0,0.0,0.0,0.0,0.0,0.0,4.0563,0.0,0.0,0.0,0.0,0.0,0.0,0.0,0.0,0.0,0.0,0.0,0.0,0.0,4.6378,4.9265,5.0545,5.2749,5.439,5.3334,5.34,5.3508,5.2613,5.2173,5.1707,5.0891,5.0969,5.1435,5.2251,5.2251,5.295,5.5398,5.5631,5.6523,5.9456,6.0886,6.2417,6.4509,6.5618,6.6216,6.6216,6.5719,6.5643,6.6178,6.698,6.7821,6.8661,6.9502,7.0113,7.0381,7.0419,7.0419,7.0419,7.0419,7.0419,7.0419,7.0419,7.0419,7.0419,7.0419,7.0419,7.0419,7.0954,7.1786,0.0,7.2946,7.3666,7.4636,7.4833,7.5184,7.5548,7.5792,7.6355,7.6926,0.0,0.0,0.0,0.0,0.0,0.0,0.0,3.2725,3.4889,3.4962,3.5738,3.7184,3.946,3.8447,3.819,3.968,0.0,0.0,0.0,0.0,0.0,0.0,0.0,0.0,3.3917,3.5532,3.6795,3.7603,3.8505,3.9623,4.0897,4.1794,4.1556,4.0404,4.0556,4.0515,0.0,0.0,0.0,0.0,4.2239,4.1931,0.0,0.0,0.0,0.0,0.0,0.0,0.0,0.0,0.0,0.0,0.0,0.0,0.0,0.0,0.0,0.0,0.0,5.1502,5.3407,5.3361,5.3269,5.3034,5.229,5.1552,0.0,5.0042,5.0542,5.1396,5.2329,5.3106,5.396,5.5009,5.5864,5.7215,5.9555,6.0537,6.2142,6.5038,6.5413,6.5413,6.549,6.5452,6.5413,6.5413,6.6216,6.7056,6.7859,6.8738,6.9578,7.0381,7.0419,7.0419,7.0419,7.0419,7.0419,7.0419,7.0419,7.0402,7.0369,7.0402,7.0386,7.0298,7.0331,7.1078,7.2238,7.2218,7.3116,7.4598,7.4582,7.5226,7.6093,7.6166,7.665,7.7279,0.0,0.0,0.0,0.0,0.0,0.0,0.0,0.0,0.0,0.0,3.5608,3.6743,3.7933,3.8285,3.8579,0.0,0.0,0.0,0.0,0.0,0.0,0.0,0.0,0.0,3.4747,3.634,3.7603,3.8432,4.0451,4.252,4.457,4.4105,4.3392,4.2381,4.1783,4.0769,0.0,0.0,0.0,0.0,4.0708,4.0862,0.0,0.0,0.0,0.0,4.104,4.1109,0.0,0.0,0.0,0.0,0.0,0.0,0.0,0.0,4.2073,4.4083,4.491,0.0,4.9753,4.908,4.8831,4.8949,0.0,4.9337,4.9337,4.9809,5.0042,5.0858,5.2995,5.3028,5.365,5.6531,5.7153,5.8086,6.0335,6.222,6.3886,6.5238,6.5413,6.5643,6.633,6.5796,6.5413,6.5413,6.6216,6.7056,6.7859,6.8738,6.9578,7.0381,7.0419,7.0419,7.0419,7.0419,7.0419,7.0419,7.0419,7.023,6.9965,7.0247,7.0035,6.9426,6.9778,7.0949,7.2522,7.2192,7.3391,7.5409,7.5629,7.5882,7.6166,7.679,7.7065,7.7155,0.0,0.0,0.0,0.0,0.0,0.0,0.0,0.0,0.0,0.0,0.0,3.6266,3.689,3.7991,0.0,0.0,0.0,0.0,0.0,0.0,0.0,0.0,0.0,3.6266,3.5041,3.7,3.8462,3.9301,4.1868,4.4266,4.6439,4.6114,4.4892,4.3047,4.1393,3.9931,0.0,0.0,0.0,3.9438,4.1054,0.0,0.0,0.0,0.0,0.0,4.0544,4.0469,0.0,4.0873,4.103,4.0953,0.0,0.0,0.0,0.0,4.1055,4.2707,4.3884,4.6395,4.8595,4.8074,4.7922,4.8017,4.8483,4.8289,4.8133,4.8599,4.9343,5.0548,5.2723,5.3378,5.4349,5.6647,5.7921,5.937,6.1593,6.3242,6.4511,6.5299,6.5413,6.5605,6.6063,6.5681,6.5413,6.5413,6.5834,6.6636,6.7821,6.8356,6.9158,7.0381,7.0419,7.0419,7.0419,7.0419,7.0298,7.0126,7.0126,6.989,6.9504,6.9683,6.9546,6.915,6.9758,7.0906,7.2408,7.2483,7.3892,7.59,7.6029,7.635,7.6686,7.7065,7.7155,7.7092,0.0,0.0,0.0,0.0,0.0,0.0,0.0,0.0,0.0,0.0,0.0,0.0,0.0,0.0,0.0,0.0,0.0,0.0,0.0,0.0,0.0,0.0,3.7676,3.7,3.5591,3.7624,3.9133,4.0043,4.2768,4.5143,4.7074,4.7705,4.639,4.3355,4.0669,3.8931,3.82,0.0,4.1085,3.9284,4.1431,0.0,0.0,0.0,0.0,0.0,0.0,0.0,0.0,4.1225,4.1303,4.0836,4.0446,0.0,0.0,0.0,0.0,0.0,4.3991,4.6558,4.8424,4.8261,4.8289,4.8366,4.8211,4.7628,4.7123,4.7273,4.8677,5.047,5.2251,5.4038,5.5514,5.6524,5.8537,6.0606,6.2477,6.3441,6.4305,6.5108,6.5222,6.5337,6.5566,6.549,6.5413,6.5413,6.5413,6.6139,6.7821,6.7897,6.8661,7.0342,7.0315,7.0298,7.0298,7.0298,7.0109,6.9682,6.9682,6.9463,6.8981,6.9069,6.9078,6.9095,6.9874,7.0965,7.2325,7.3003,7.4468,7.6276,7.6276,7.6686,7.7279,7.7155,7.7061,7.6966,0.0,0.0,0.0,0.0,0.0,0.0,0.0,0.0,0.0,0.0,0.0,0.0,0.0,0.0,0.0,0.0,0.0,0.0,0.0,0.0,0.0,3.8505,3.8505,3.8395,3.8138,3.8566,3.9283,4.0262,4.2901,4.4958,4.6481,4.8688,4.8122,4.5056,4.1785,3.9438,3.8046,3.8546,3.8546,3.8238,3.8623,0.0,0.0,0.0,0.0,0.0,0.0,0.0,0.0,3.8453,3.8921,3.9624,3.7476,0.0,0.0,0.0,0.0,0.0,4.3016,4.5575,4.7328,4.6585,4.6968,4.7317,4.6579,4.6313,4.6424,4.7162,4.8677,5.0625,5.3073,5.4932,5.6602,5.8156,5.9732,6.079,6.094,6.223,6.3427,6.4267,6.4382,6.4917,6.6369,6.5834,6.5413,6.5413,6.5413,6.6139,6.7821,6.7897,6.8661,7.0342,7.0073,6.991,6.991,6.991,6.9662,6.9198,6.9198,6.8959,6.8538,6.8915,6.9052,6.8947,6.9484,7.1124,7.3448,7.3595,7.5007,7.709,7.709,7.7138,7.7124,7.7124,7.6902,7.668,0.0,0.0,0.0,0.0,0.0,0.0,0.0,0.0,0.0,0.0,0.0,0.0,0.0,0.0,0.0,0.0,0.0,0.0,0.0,0.0,3.9093,3.9958,3.957,3.916,3.8765,4.0047,4.1089,4.1805,4.4937,4.6896,4.7739,4.6776,4.5582,4.4085,4.0162,3.8007,3.7315,3.7815,3.7738,3.7353,0.0,0.0,0.0,0.0,0.0,0.0,0.0,0.0,0.0,0.0,3.8804,3.9507,3.7906,0.0,0.0,0.0,0.0,0.0,4.2144,4.436,4.6191,4.7162,4.8755,4.9959,4.9532,4.9104,4.891,4.9337,5.0386,5.1901,5.3999,5.5437,5.7105,5.9555,6.0075,6.058,6.1709,6.2032,6.2701,6.4053,6.4206,6.4649,6.5872,6.5643,6.5413,6.5413,6.5413,6.5948,6.7171,6.7398,6.8095,6.9312,6.9398,6.9282,6.9047,6.9047,6.8937,6.8711,6.8711,6.8714,6.8672,6.889,6.9193,6.9559,7.0236,7.1444,7.3003,7.3971,7.5225,7.6594,7.7034,7.7155,7.7092,7.6902,7.6643,7.6445,0.0,0.0,0.0,0.0,0.0,0.0,0.0,0.0,0.0,0.0,0.0,0.0,0.0,0.0,0.0,0.0,0.0,0.0,0.0,3.8689,3.935,4.0781,4.0414,4.0205,4.0225,4.1493,4.2631,4.3676,4.6406,4.8301,4.9197,4.5554,4.3688,4.3201,3.9123,3.7084,3.6731,3.7199,3.7161,3.6731,0.0,0.0,0.0,0.0,0.0,0.0,0.0,0.0,0.0,0.0,0.0,0.0,0.0,0.0,0.0,3.7639,3.7639,3.8715,4.1509,4.3345,4.5142,4.79,4.992,5.1358,5.1979,5.1319,5.0775,5.1358,5.2135,5.3222,5.4971,5.633,5.7923,6.0218,6.0215,6.0481,6.207,6.1745,6.1975,6.3694,6.3885,6.4267,6.5299,6.5413,6.5413,6.5413,6.5413,6.5727,6.6488,6.6964,6.7543,6.8319,6.8725,6.8757,6.8394,6.8272,6.826,6.826,6.8445,6.8661,6.8935,6.9054,6.9577,7.0384,7.0914,7.1699,7.2635,7.4152,7.5214,7.5927,7.67,7.7029,7.6934,7.6643,7.6445,7.6275,0.0,0.0,0.0,0.0,0.0,0.0,0.0,0.0,0.0,0.0,0.0,0.0,0.0,0.0,0.0,0.0,0.0,0.0,0.0,3.8689,3.9093,3.9937,4.0671,4.2099,4.4407,4.2426,4.2662,4.535,4.5721,4.7324,5.0054,4.7417,4.5466,4.4047,4.0623,3.82,3.6654,3.5962,3.6077,3.6654,3.5962,0.0,0.0,0.0,0.0,0.0,0.0,0.0,0.0,0.0,0.0,0.0,0.0,0.0,3.8417,3.7459,3.719,3.793,4.1276,4.2894,4.4404,4.7745,4.8133,4.8289,5.0736,4.9998,4.9454,5.1824,5.2989,5.4161,5.5903,5.8195,5.9786,5.9688,6.0303,6.0762,6.0592,6.0537,6.1096,6.2777,6.3006,6.3618,6.5222,6.5413,6.5413,6.5413,6.5413,6.5579,6.6021,6.6783,6.7429,6.7936,6.8278,6.8442,6.8394,6.7993,6.7767,6.7767,6.8512,6.8889,6.8935,6.953,7.0279,7.1019,7.0873,7.1726,7.3222,7.4097,7.49,7.5703,7.6542,7.6741,7.6614,7.6412,7.6309,7.6275,0.0,0.0,0.0,0.0,0.0,0.0,0.0,0.0,0.0,0.0,0.0,0.0,0.0,0.0,0.0,0.0,0.0,0.0,0.0,3.8689,3.9276,4.0598,4.0976,4.2108,4.416,4.4512,4.5469,4.714,4.7782,4.8539,4.9258,4.5676,4.3837,4.3355,3.8931,3.7469,3.82,3.6308,3.6269,3.7437,3.6691,3.6764,0.0,0.0,0.0,0.0,0.0,0.0,0.0,0.0,3.6852,3.7204,3.6657,3.7035,3.7522,3.6637,3.6375,3.6996,3.9872,4.2034,4.4326,4.7745,4.9182,5.027,5.229,5.2678,5.3145,5.5204,5.5482,5.5514,5.6175,5.8389,5.9824,5.8915,5.9994,6.0762,6.0439,6.0422,6.1019,6.2701,6.2892,6.3579,6.5222,6.5413,6.5413,6.5413,6.5413,6.535,6.5265,6.5748,6.622,6.665,6.7025,6.7425,6.7863,6.8137,6.8229,6.8145,6.8669,6.9394,7.0299,7.0535,7.0997,7.164,7.158,7.1818,7.2418,7.3822,7.4551,7.4856,7.6166,7.6578,7.6412,7.6345,7.6275,7.6275,0.0,0.0,0.0,0.0,0.0,0.0,0.0,0.0,0.0,0.0,0.0,0.0,0.0,0.0,0.0,0.0,0.0,0.0,3.8673,3.8689,3.9313,4.0671,4.1045,4.2025,4.3767,4.5696,4.6965,4.7526,4.8693,4.9051,4.8593,4.4896,4.3431,4.3701,3.9123,3.82,3.9931,3.7392,3.7123,3.833,3.7293,3.7257,0.0,0.0,0.0,0.0,0.0,0.0,0.0,0.0,3.6617,3.6813,3.65,3.6758,3.7084,3.6482,3.7066,3.8342,4.0329,4.2578,4.5064,4.8211,4.992,5.128,5.3267,5.4155,5.5165,5.7191,5.7114,5.6641,5.633,5.8156,5.9398,5.8442,5.9752,6.0762,6.0439,6.0422,6.0905,6.2319,6.251,6.3159,6.484,6.5031,6.5146,6.5375,6.5413,6.515,6.4631,6.5005,6.535,6.5619,6.6077,6.6802,6.778,6.8264,6.8755,6.918,6.938,7.0023,7.1004,7.1201,7.1543,7.1927,7.1866,7.1775,7.1827,7.3265,7.4138,7.4591,7.597,7.6412,7.6275,7.6275,7.6275,7.6275,0.0,0.0,0.0,0.0,0.0,0.0,0.0,0.0,0.0,0.0,0.0,0.0,0.0,0.0,0.0,0.0,0.0,0.0,3.8658,3.8689,3.9056,3.9827,4.0714,4.1988,4.371,4.5605,4.6456,4.6305,4.781,4.8505,4.8304,4.577,4.4928,4.5441,4.2016,4.0969,4.1615,3.9084,3.8507,3.9145,3.757,3.8001,3.9527,0.0,0.0,0.0,0.0,0.0,0.0,0.0,3.6696,3.6148,3.7009,3.7256,3.7214,3.7175,3.9536,4.235,4.3199,4.4676,4.6623,4.9227,4.9926,5.0625,5.3151,5.3733,5.4472,5.7075,5.7619,5.7347,5.6447,5.7651,5.8699,5.8365,5.9752,6.0762,6.0439,6.0422,6.0676,6.1516,6.1593,6.228,6.4053,6.4206,6.4535,6.5337,6.5413,6.4997,6.4136,6.4724,6.5082,6.5008,6.5651,6.6773,6.8385,6.8385,6.9216,7.0821,7.0821,7.0821,7.0827,7.1478,7.1816,7.1786,7.1593,7.1494,7.1567,7.24,7.3667,7.5155,7.5985,7.6275,7.6275,7.6275,7.6275,7.6275,0.0,0.0,0.0,0.0,0.0,0.0,0.0,0.0,0.0,0.0,0.0,0.0,0.0,0.0,0.0,0.0,0.0,0.0,3.6599,3.7394,3.7713,3.7367,3.8743,4.0004,4.1088,4.2786,4.4559,4.6445,4.6146,4.5897,4.5615,4.3718,4.3182,4.3688,4.2107,4.1239,4.0816,3.9469,3.9073,3.9374,3.9557,3.966,3.9734,0.0,0.0,0.0,0.0,0.0,0.0,0.0,0.0,0.0,3.6253,3.7134,3.7854,3.6648,3.7824,3.9431,3.909,4.2422,4.6196,4.6973,5.082,5.4427,5.4582,5.5087,5.5903,5.7308,5.7619,5.7347,5.6447,5.7651,5.8699,5.8365,5.9752,6.0762,6.0439,6.0422,6.0676,6.1516,6.1593,6.228,6.4053,6.4206,6.4535,6.5337,6.5068,6.4593,6.3978,6.3795,6.4057,6.4811,6.5049,6.617,6.824,6.8822,6.9563,7.0526,7.1034,7.1355,7.1514,7.1738,7.1718,7.1593,7.1526,7.1494,7.1603,7.2979,7.4142,7.5155,7.5985,7.6275,7.6275,7.6275,7.6275,7.6275,0.0,0.0,0.0,0.0,0.0,0.0,0.0,0.0,0.0,0.0,3.5904,3.5904,0.0,0.0,0.0,0.0,0.0,0.0,3.5716,3.6529,3.6942,3.6795,3.7787,3.8994,4.0452,4.1445,4.259,4.3871,4.418,4.422,4.4016,4.3679,4.406,4.5015,4.4504,4.3799,4.2931,4.1431,4.0838,4.0861,4.0824,4.0723,4.0694,0.0,0.0,0.0,0.0,0.0,0.0,0.0,0.0,0.0,3.5933,3.6625,3.751,3.7842,3.961,4.1621,4.2471,4.5802,4.9227,4.9926,5.2678,5.5398,5.5903,5.6175,5.6447,5.6997,5.7075,5.6919,5.6408,5.7651,5.8714,5.8451,5.9803,6.0795,6.052,6.0439,6.0575,6.1058,6.1134,6.1669,6.3006,6.3465,6.4008,6.4749,6.4672,6.4501,6.4278,6.3762,6.4019,6.5159,6.544,6.6583,6.8602,6.94,7.0138,7.0842,7.1277,7.1557,7.1687,7.1687,7.1625,7.1494,7.1494,7.1494,7.1639,7.3233,7.4211,7.4754,7.5841,7.6275,7.6275,7.6275,7.6275,7.6275,0.0,0.0,0.0,0.0,0.0,0.0,0.0,0.0,0.0,3.6284,3.6249,3.6215,0.0,0.0,0.0,3.6615,3.5776,3.5285,3.5591,3.6054,3.6633,3.7345,3.7662,3.8795,4.093,4.0967,4.0567,3.968,4.1989,4.3092,4.3126,4.4772,4.6427,4.7972,4.7818,4.7271,4.6269,4.3816,4.267,4.2441,4.1264,4.1193,4.1712,4.1271,0.0,0.0,0.0,0.0,0.0,0.0,0.0,0.0,3.5933,3.6003,3.6731,3.9671,4.3065,4.6513,4.9471,5.183,5.385,5.5437,5.4893,5.4549,5.6958,5.6881,5.633,5.6408,5.6369,5.6291,5.6291,5.7651,5.8775,5.8604,5.9901,6.0828,6.0645,6.0481,6.0422,6.0422,6.0422,6.0714,6.1516,6.2319,6.3123,6.3943,6.4323,6.4611,6.4897,6.4401,6.4658,6.5755,6.6446,6.7583,6.9207,7.0004,7.077,7.1494,7.1494,7.1494,7.1494,7.1494,7.1494,7.1494,7.1494,7.1494,7.1639,7.3233,7.3921,7.4066,7.5659,7.6275,7.6275,7.6275,7.6275,7.6275,0.0,0.0,0.0,0.0,0.0,0.0,0.0,0.0,3.6297,3.6318,3.5801,3.5421,3.5421,3.5283,0.0,3.5104,3.5102,3.5037,3.4764,3.571,3.6376,3.6574,3.8389,3.9344,3.9218,3.9218,3.8851,3.8006,3.9387,4.051,4.1368,4.3346,4.5262,4.6992,4.6387,4.4923,4.2769,4.0893,3.9396,3.84,4.018,4.0186,3.9348,4.0623,3.9626,0.0,0.0,0.0,0.0,0.0,0.0,0.0,3.5933,3.6848,3.7837,3.7166,4.035,4.3914,4.3359,4.7383,5.1824,5.2212,5.4038,5.5903,5.6447,5.6447,5.6486,5.7191,5.6758,5.6291,5.6291,5.7651,5.8775,5.8604,5.9901,6.0828,6.0645,6.0481,6.0422,6.0422,6.0422,6.0714,6.1516,6.1784,6.2703,6.4704,6.4219,6.4364,6.558,6.482,6.471,6.5612,6.6388,6.7583,6.9207,7.0004,7.077,7.1494,7.1494,7.1494,7.1494,7.1494,7.1494,7.1494,7.1494,7.1494,7.1639,7.3233,7.3921,7.4066,7.5659,7.6275,7.6275,7.6275,7.6275,7.6275,0.0,0.0,0.0,0.0,0.0,0.0,0.0,0.0,3.7047,3.6358,3.5642,3.5076,3.4717,3.4007,0.0,0.0,3.3404,3.3378,3.3142,3.4725,3.6046,3.6831,3.8814,3.935,3.8138,3.7734,3.7147,3.6303,3.7113,3.8465,4.0264,4.1851,4.3871,4.6052,4.5283,4.3752,4.1731,4.0431,3.9417,3.8822,3.9869,4.0035,3.9636,3.9376,3.8219,3.65,3.5211,0.0,0.0,0.0,0.0,0.0,0.0,0.0,3.6813,3.7528,3.9916,4.2774,4.4738,4.8453,5.2125,5.3345,5.4971,5.6291,5.6291,5.6291,5.6447,5.6881,5.6602,5.6291,5.6291,5.7651,5.8796,5.8692,5.9948,6.086,6.0762,6.0546,6.0422,6.0422,6.0422,6.0533,6.0842,6.1262,6.2109,6.3541,6.3228,6.3825,6.5886,6.4971,6.5053,6.6414,6.7411,6.8343,6.9207,7.0335,7.1132,7.1494,7.1494,7.1494,7.1494,7.1494,7.1494,7.1494,7.1494,7.1494,7.1639,7.3233,7.3921,7.4066,7.5659,7.6275,7.6275,7.6275,7.6275,7.6275,0.0,0.0,0.0,0.0,0.0,0.0,0.0,0.0,0.0,3.6204,3.5511,3.478,3.38,3.2559,3.1733,0.0,0.0,0.0,3.1929,3.3975,3.5848,3.7235,3.8594,3.8741,3.7529,3.656,3.5789,3.5224,3.5465,3.6881,3.9411,4.0702,4.2677,4.5141,4.4027,4.2727,4.1277,3.9977,3.9473,3.956,3.9117,3.94,3.9848,3.7849,3.654,3.5563,3.3962,3.3846,3.451,3.4666,0.0,0.0,0.0,0.0,3.5202,3.7854,3.9563,4.1704,4.6589,4.9951,5.2736,5.5605,5.6291,5.6291,5.6291,5.6291,5.6291,5.6291,5.6291,5.6291,5.6291,5.7651,5.881,5.8789,5.9985,6.0882,6.085,6.0585,6.0422,6.0422,6.0356,6.0285,6.0114,6.0883,6.1598,6.2275,6.2408,6.3617,6.6178,6.5296,6.5512,6.7277,6.8486,6.9085,6.9023,7.0577,7.1304,7.1304,7.1368,7.1431,7.1494,7.1494,7.1494,7.1494,7.1494,7.1494,7.1639,7.3233,7.3921,7.4066,7.5659,7.6275,7.6275,7.6275,7.6275,7.6275,0.0,0.0,0.0,0.0,0.0,0.0,0.0,0.0,0.0,0.0,3.5084,3.428,3.2298,3.1903,3.1374,3.0307,3.1733,3.2793,3.3146,0.0,0.0,3.645,3.667,3.7015,3.7492,3.5973,3.5481,3.6119,3.5155,3.5968,3.8507,4.0644,4.2621,4.425,4.1997,4.0508,3.9431,3.636,3.5065,3.5143,3.5916,3.6297,3.6394,3.6239,3.5641,3.4744,3.3767,3.3455,3.3689,3.4432,3.4783,0.0,0.0,0.0,3.4646,3.4342,3.6382,3.8955,3.9792,4.5048,5.1208,5.5294,5.6291,5.6291,5.6291,5.6291,5.6291,5.6291,5.6291,5.6291,5.6291,5.7651,5.8743,5.8629,5.992,6.0839,6.0681,6.0494,6.0422,6.0422,6.0256,6.0114,6.0099,6.0719,6.1713,6.3049,6.3473,6.4694,6.7095,6.6438,6.6253,6.6959,6.8089,6.8546,6.8252,6.9828,7.0615,7.0615,7.0949,7.1207,7.1494,7.1494,7.1494,7.1494,7.1494,7.1494,7.1639,7.3233,7.3921,7.4066,7.5659,7.6275,7.6275,7.6275,7.6275,7.6275,0.0,0.0,0.0,0.0,0.0,0.0,0.0,0.0,0.0,0.0,0.0,3.4349,3.2609,3.2041,3.1251,2.9847,3.0824,3.1915,3.2871,3.4179,3.5092,3.5555,3.6046,3.6229,3.6119,3.4931,3.4541,3.4908,3.3738,3.468,3.7593,3.8394,4.0206,4.2678,4.0175,3.86,3.7661,3.4699,3.3524,3.3534,3.3059,3.462,3.6965,3.414,3.4354,3.572,3.2441,3.1856,3.2714,3.3105,3.3573,3.4042,3.4549,0.0,0.0,0.0,3.3716,3.6033,4.1308,4.6597,5.1519,5.5333,5.6291,5.6291,5.6291,5.6291,5.6291,5.6291,5.6291,5.6291,5.6291,5.7301,5.8238,5.8527,5.9476,6.0278,6.0568,6.0481,6.0422,6.0422,6.0241,6.0053,6.0013,6.0556,6.1349,6.2372,6.2865,6.4252,6.6902,6.6099,6.6052,6.7195,6.8114,6.8414,6.8088,6.9693,7.0581,7.0783,7.111,7.1336,7.1494,7.1494,7.1494,7.1494,7.1494,7.1494,7.1639,7.3233,7.3921,7.4066,7.5659,7.6275,7.6275,7.6275,7.6275,7.6275,0.0,0.0,0.0,0.0,0.0,0.0,0.0,0.0,0.0,0.0,0.0,3.4383,3.2781,0.0,0.0,0.0,2.9918,3.0786,3.219,3.2852,3.355,3.4344,3.5018,3.5055,3.4417,3.3793,3.3403,3.3183,3.2668,3.389,3.6716,3.6786,3.844,4.1241,3.9136,3.764,3.6524,3.3987,3.2952,3.2991,3.2217,3.4406,3.7815,3.485,3.5916,3.8219,3.2833,3.1857,3.2949,3.2051,3.2207,3.2908,3.3768,3.2558,0.0,0.0,0.0,3.3292,4.1581,4.6169,4.963,5.3946,5.5326,5.5747,5.6214,5.6291,5.6291,5.6291,5.6291,5.6291,5.6291,5.6997,5.7727,5.8136,5.8983,5.9744,6.0099,6.0272,6.0299,6.027,6.0106,5.9928,5.9836,6.0556,6.1262,6.175,6.2524,6.3958,6.6223,6.5509,6.563,6.7012,6.7975,6.8349,6.8088,6.9693,7.0649,7.1012,7.124,7.1399,7.1494,7.1494,7.1494,7.1494,7.1494,7.1494,7.1639,7.3233,7.3921,7.4066,7.5659,7.6275,7.6275,7.6275,7.6275,7.6275,0.0,0.0,0.0,0.0,0.0,0.0,0.0,0.0,0.0,0.0,0.0,3.4212,3.2092,3.0524,2.9592,2.9523,2.9424,2.9971,3.1359,3.1507,3.1861,3.2693,3.2766,0.0,3.2729,3.2693,3.2302,3.1544,3.268,3.4126,3.5899,3.71,3.8626,4.0316,3.944,3.8177,3.6526,3.3984,3.2897,3.305,3.4822,3.6144,3.7403,4.0578,4.2435,4.2593,3.6579,3.5018,3.529,3.1971,3.0917,3.1074,3.1973,3.1582,3.0644,0.0,0.0,0.0,3.6226,3.9549,4.3136,4.979,5.2669,5.4277,5.5903,5.6291,5.6291,5.6291,5.6291,5.6291,5.6291,5.6997,5.7504,5.7236,5.8528,5.9446,5.9035,5.9619,6.0053,5.9934,5.9753,5.9633,5.9633,6.0923,6.175,6.1806,6.3308,6.4479,6.5039,6.5041,6.5248,6.5775,6.7316,6.8121,6.8088,6.9693,7.0649,7.0979,7.1012,7.1175,7.1494,7.1494,7.1494,7.1494,7.1494,7.1494,7.1639,7.3233,7.3921,7.4066,7.5659,7.6275,7.6275,7.6275,7.6275,7.6275,0.0,0.0,0.0,0.0,0.0,0.0,0.0,0.0,0.0,0.0,0.0,0.0,0.0,3.1757,3.0836,2.9912,2.9674,2.9663,2.9855,3.0356,3.098,3.1788,3.2326,3.2583,3.2583,3.2082,3.1421,3.0613,3.0702,3.1938,3.4281,3.4851,3.6098,3.7853,3.7559,3.714,3.6412,3.276,3.1245,3.1417,3.3356,3.6289,3.9633,4.1048,4.3801,4.6339,4.142,3.8414,3.6657,3.5408,3.3105,3.0839,3.1153,3.0294,2.9123,2.885,2.9904,3.2085,3.6111,3.9101,4.2159,4.6765,5.0047,5.2403,5.3539,5.5087,5.6291,5.6291,5.6291,5.6291,5.6291,5.6563,5.6844,5.7062,5.7592,5.8226,5.8942,5.9206,5.9498,5.9984,5.9748,5.9616,5.9616,6.0454,6.1243,6.1768,6.2857,6.4056,6.5245,6.5332,6.5562,6.6052,6.7084,6.8034,6.8873,7.0179,7.0847,7.1012,7.1207,7.1368,7.1494,7.1494,7.1494,7.1494,7.1494,7.1494,7.1639,7.3233,7.3921,7.4066,7.5659,7.6275,7.6275,7.6275,7.6275,7.6275,0.0,0.0,0.0,0.0,0.0,3.8512,3.8125,3.724,3.6578,3.6471,0.0,0.0,0.0,0.0,3.1884,3.0452,2.9946,2.9608,2.9415,2.9647,3.0283,3.136,3.1898,3.2192,3.2192,3.1935,3.1127,2.9794,3.0021,3.1065,3.29,3.346,3.4659,3.6373,3.5581,3.576,3.6374,3.2994,3.1398,3.1412,3.4747,3.7325,3.9505,4.2772,4.5462,4.7118,4.3948,4.1374,3.9388,3.9068,3.7079,3.4431,3.2986,3.0605,2.8303,2.8303,2.9708,3.1814,3.4369,3.6933,3.9959,4.418,4.6722,4.9075,5.249,5.396,5.4893,5.6058,5.6291,5.6291,5.6291,5.6291,5.6372,5.6608,5.6898,5.7341,5.8064,5.8515,5.8965,5.9435,5.9513,5.951,5.951,6.0191,6.0942,6.1731,6.2595,6.3643,6.4833,6.5147,6.5768,6.6663,6.7559,6.8562,6.9666,7.0685,7.1175,7.1175,7.1399,7.1494,7.1494,7.1494,7.1494,7.1494,7.1494,7.1494,7.1639,7.3233,7.3921,7.4066,7.5659,7.6275,7.6275,7.6275,7.6275,7.6275,0.0,0.0,0.0,0.0,4.0104,3.967,3.847,3.8253,3.792,3.7086,0.0,0.0,0.0,0.0,0.0,3.1211,3.0292,2.9875,3.0222,2.9464,2.9721,3.1323,3.136,3.136,3.136,3.2118,3.1372,2.895,3.0809,3.1734,3.1778,3.3015,3.4481,3.5999,3.3704,3.4106,3.6372,3.4634,3.3463,3.3336,3.9248,3.9336,3.6969,4.623,4.7905,4.5199,4.4314,4.3934,4.3757,4.2829,4.241,4.1535,3.7202,3.2362,2.8303,2.8341,2.8967,2.9827,0.0,0.0,0.0,4.1838,4.27,4.4292,5.2723,5.2756,5.2018,5.5476,5.6175,5.6175,5.6291,5.6291,5.6185,5.5845,5.6522,5.6896,5.6415,5.759,5.8478,5.8312,5.8874,5.9253,5.9253,6.0041,6.0905,6.1693,6.2557,6.3205,6.3653,6.4525,6.5761,6.741,6.8589,6.9569,7.0366,7.1132,7.1494,7.1494,7.1494,7.1494,7.1494,7.1494,7.1494,7.1494,7.1494,7.1494,7.1639,7.3233,7.3921,7.4066,7.5659,7.6275,7.6275,7.6275,7.6275,7.6275,0.0,0.0,0.0,4.0625,4.0069,3.9707,4.0095,3.9419,3.8699,0.0,0.0,0.0,3.4615,3.3188,3.2806,3.3817,3.2075,3.0979,3.1054,2.9757,2.9464,3.0503,3.054,3.054,3.054,3.076,2.9989,2.8117,2.9251,2.9927,3.0226,3.1196,3.24,3.3628,3.2981,3.3089,3.3677,3.1957,3.2209,3.386,3.6273,3.9161,4.2479,4.7169,5.0689,5.3069,5.2918,5.0867,4.8224,4.8008,4.4231,3.8738,3.38,3.0449,2.8418,2.8991,2.9778,3.0526,3.075,0.0,0.0,0.0,0.0,0.0,4.4802,4.6173,4.7861,5.2523,5.3028,5.3378,5.5825,5.6291,5.6206,5.5977,5.6057,5.6287,5.6623,5.674,5.7011,5.7586,5.8134,5.8427,5.8427,5.9178,6.0004,6.0867,6.1168,6.188,6.3205,6.4577,6.561,6.6119,6.8132,6.9316,6.9533,7.0842,7.1494,7.1494,7.1494,7.1494,7.1494,7.1494,7.1494,7.1494,7.1494,7.1494,7.1639,7.3233,7.3921,7.4066,7.5659,7.6275,7.6275,7.6275,7.6275,7.6275,0.0,0.0,4.1773,4.1754,4.1522,4.1485,4.1851,4.1017,4.0258,0.0,0.0,0.0,3.666,3.4621,3.4081,3.5885,3.2889,3.1164,3.1861,3.0087,2.9354,3.0173,3.021,3.021,3.021,3.054,2.9916,2.8301,2.9097,2.944,2.9357,3.0048,3.0733,3.1396,3.1188,3.1515,3.205,3.0369,3.1147,3.3815,3.794,4.0669,4.2777,4.7984,5.0733,5.2059,5.3895,5.2053,4.9124,5.1731,4.726,4.0089,3.7104,3.3253,2.9902,3.001,3.0906,3.1806,3.1453,3.2352,3.3675,3.4712,0.0,0.0,4.4042,4.5376,4.7183,5.3727,5.4699,5.4971,5.6991,5.734,5.7281,5.7171,5.7009,5.6742,5.6368,5.6161,5.6285,5.6815,5.7586,5.8108,5.8108,5.884,5.9666,6.0529,6.0489,6.1114,6.2792,6.4426,6.5374,6.5583,6.7619,6.8692,6.8701,6.9925,7.0718,7.1042,7.1042,7.1171,7.1494,7.1494,7.1494,7.1494,7.1494,7.1494,7.1639,7.3233,7.3921,7.403,7.5297,7.5985,7.6275,7.6275,7.6275,7.6275,0.0,0.0,4.3603,4.3076,4.3642,4.4037,4.3635,4.2792,4.2147,0.0,4.1161,4.052,4.0325,3.7294,3.5958,3.7639,3.3293,3.1078,3.2509,3.0344,2.9317,3.0063,3.0063,3.0063,3.0063,3.087,3.0503,2.8987,2.9794,2.9818,2.9033,2.9414,2.9542,2.9475,2.9072,2.9699,3.1057,2.972,3.0751,3.3883,4.1342,4.2526,4.0739,4.8538,4.9554,4.7295,5.1073,5.0511,4.8741,5.3843,5.0524,4.4181,4.3401,3.8658,3.3057,3.1535,3.2422,3.37,3.2547,3.2853,3.4047,3.6228,3.5217,0.0,4.5996,4.6523,4.7208,5.5177,5.6835,5.6952,5.7457,5.7528,5.756,5.7638,5.774,5.7387,5.6094,5.6112,5.6209,5.6095,5.7209,5.7958,5.7958,5.8689,5.9515,6.0379,6.0237,6.0855,6.2558,6.4067,6.5095,6.5583,6.7148,6.8038,6.8151,6.8937,6.9721,7.0507,7.0507,7.0878,7.1494,7.1494,7.1494,7.1494,7.1494,7.1494,7.1603,7.3052,7.374,7.3993,7.4899,7.5659,7.6275,7.6275,7.6275,7.6275,4.1401,4.2316,4.3205,4.3483,4.4036,4.4643,4.5272,4.3883,4.3082,4.3998,4.2294,4.1432,4.2653,3.9328,3.7676,3.9292,3.4945,3.2252,3.2583,3.0344,2.906,2.9244,2.9244,2.9244,2.9244,3.0026,2.9953,2.8987,2.9794,2.9863,2.9249,2.9306,2.9177,2.878,2.87,2.8912,2.9445,3.0484,3.3158,3.6795,3.7827,4.0568,4.4518,4.8346,5.1403,5.378,5.4718,5.463,5.3855,5.2468,5.0537,4.777,0.0,4.087,4.0241,3.4503,3.5015,3.6774,3.3841,3.3693,3.4333,3.4161,3.4779,0.0,3.7303,3.7783,3.9143,4.3553,4.4424,4.5453,4.891,4.9517,4.9666,5.0325,5.2498,5.4983,5.7513,5.7466,5.6891,5.6186,5.6698,5.7112,5.7112,5.7863,5.8689,5.9478,5.9864,6.0942,6.2891,6.3672,6.4512,6.5583,6.7148,6.8319,6.8956,6.9751,7.0545,7.1304,7.1304,7.1368,7.1494,7.1494,7.1494,7.1494,7.1494,7.1494,7.1531,7.1857,7.2726,7.4066,7.5515,7.6167,7.6275,7.6275,7.6275,7.6275,4.2072,4.35,4.4782,4.4769,4.5325,4.6037,4.6946,4.59,4.5222,4.581,4.4141,4.3057,4.3478,4.0283,3.8432,3.9239,3.5188,3.2583,3.2583,3.0711,2.9244,2.8448,2.8803,2.8987,2.8987,2.939,2.961,2.961,2.9273,2.8941,2.866,2.8465,2.9035,3.018,2.8321,2.889,3.11,3.0013,3.1744,3.5534,3.9355,4.3673,4.8116,5.1189,5.3675,5.5526,5.5581,5.5632,5.5276,5.2451,5.0183,0.0,4.5564,4.3642,4.1438,3.7102,3.7311,3.823,3.4877,3.4503,3.5022,3.4643,3.4831,0.0,0.0,3.8002,3.9141,4.4228,4.4317,4.4356,4.7256,4.7785,4.8075,4.8885,5.2001,5.4507,5.5024,5.6433,5.7201,5.6668,5.7137,5.7488,5.7488,5.8239,5.8972,5.9643,6.0141,6.0921,6.2169,6.3414,6.4366,6.4975,6.6569,6.7794,6.8606,6.9002,6.9793,7.0943,7.0943,7.1139,7.1494,7.1494,7.1494,7.1494,7.1494,7.1494,7.1531,7.1929,7.2834,7.3993,7.479,7.5587,7.6275,7.6275,7.6275,7.6275,4.2769,4.4545,4.6091,4.5644,4.6358,4.7219,4.7957,4.7369,4.6746,4.6452,4.5682,4.4819,4.3828,4.1258,3.9606,3.9606,3.6193,3.3793,3.3353,3.1788,3.0467,2.9487,2.9182,2.9354,3.0161,2.9537,2.9414,2.9791,2.8767,2.8083,2.7836,2.7491,2.8671,3.0929,2.8761,2.9772,3.2939,3.0441,3.1591,3.5717,4.2374,4.6385,4.8831,5.2881,5.4409,5.4524,5.5174,5.549,5.5215,5.2801,5.0217,4.8154,4.8522,4.6134,0.0,0.0,0.0,4.0131,3.6316,3.5896,3.6433,3.5818,3.5503,3.6174,0.0,0.0,0.0,4.5349,4.5118,4.4401,4.5817,4.5986,4.6225,4.721,5.0616,0.0,0.0,5.3529,0.0,5.5718,5.7123,5.7883,5.745,5.8126,5.9084,6.0224,5.9974,6.0388,6.1787,6.3339,6.4287,6.4613,6.6025,6.7203,6.8001,6.8145,6.8964,7.043,7.0539,7.0911,7.1494,7.1494,7.1494,7.1494,7.1494,7.1494,7.1567,7.2219,7.3052,7.3921,7.4102,7.5044,7.6275,7.6275,7.6275,7.6275,4.3123,4.3961,4.4673,4.473,4.5992,4.7036,4.7204,4.6544,4.5516,4.4085,4.5626,4.6232,4.4728,4.3608,4.2947,4.2947,4.0561,3.8175,3.6009,3.4321,3.3954,3.5275,3.1274,3.0675,3.4234,3.1518,2.9483,2.8254,2.8878,2.8487,2.7202,2.718,2.7395,2.8061,3.14,3.2442,3.1905,3.4448,3.8744,4.3902,4.4093,4.3051,0.0,4.8487,5.0894,5.1276,5.4333,5.549,5.5204,0.0,5.1729,5.0734,0.0,4.7311,4.9415,4.0759,0.0,0.0,3.9187,3.8788,3.9328,3.6361,3.7235,3.7793,3.3843,0.0,3.5803,3.5046,0.0,3.6992,0.0,0.0,0.0,0.0,0.0,0.0,4.4668,4.8188,5.0751,5.0737,5.5082,5.7263,5.5047,5.5573,5.7417,6.0837,5.8138,5.8465,6.3262,6.3412,6.3997,6.541,6.6351,6.7191,6.8005,6.8692,6.9519,7.0423,7.1042,7.1431,7.1494,7.1494,7.1494,7.1494,7.1494,7.1494,7.1531,7.1603,7.2545,7.3993,7.4685,7.5515,7.6275,7.6275,7.6275,7.6275,4.3231,4.3944,4.4565,4.4619,4.5224,4.6012,4.6966,4.7205,4.6874,4.5736,4.6452,4.6489,4.4874,4.3975,4.3314,4.2837,4.1442,3.9386,3.6486,3.5642,3.4504,3.2816,3.1237,3.098,3.2179,3.0549,2.9359,2.874,2.7877,2.7144,2.6578,2.6661,2.8222,3.1028,3.3012,3.5312,3.7727,3.7345,3.8629,4.096,0.0,4.0912,0.0,4.9748,5.3263,5.3454,5.4868,5.5454,5.531,0.0,5.2125,0.0,0.0,0.0,0.0,4.3986,0.0,0.0,0.0,3.9554,4.0375,3.7004,3.7728,3.813,3.4,0.0,3.4052,0.0,0.0,0.0,0.0,0.0,0.0,0.0,3.9544,0.0,0.0,0.0,4.8686,0.0,0.0,0.0,5.4334,5.5,5.7005,6.089,5.8134,5.828,6.2859,6.363,6.4215,6.4867,6.6134,6.7184,6.8017,6.8778,6.9605,7.0439,7.1132,7.1494,7.1494,7.1494,7.1494,7.1494,7.1494,7.1494,7.1494,7.1494,7.2472,7.3957,7.4283,7.5189,7.6275,7.6275,7.6275,7.6275,4.2898,4.3759,4.429,4.4361,4.4562,4.5168,4.6562,4.7278,4.7352,4.6562,4.6636,4.6305,4.5149,4.4709,4.4342,4.3975,4.3407,4.1792,3.8799,3.7771,3.645,3.4578,3.2706,3.223,3.325,3.1071,2.9805,2.9444,2.7654,2.6849,2.6947,2.6804,2.8855,3.2678,3.4331,3.7394,4.1331,4.0234,4.0463,4.1571,4.2374,4.3023,4.4246,5.1314,5.46,5.5403,5.5403,5.5403,5.5301,5.4721,5.2067,0.0,5.2675,4.9975,4.5835,0.0,0.0,0.0,4.0531,4.1114,4.1599,3.7301,3.7308,3.7411,3.3785,0.0,0.0,0.0,0.0,0.0,0.0,0.0,0.0,0.0,0.0,3.9281,0.0,0.0,0.0,0.0,0.0,0.0,0.0,5.3207,5.4839,5.9701,5.7052,5.7361,6.2193,6.3657,6.4396,6.4396,6.5953,6.7076,6.7692,6.8669,6.9497,7.0082,7.1024,7.1494,7.1494,7.1494,7.1494,7.1494,7.1494,7.1494,7.1494,7.1494,7.2472,7.3921,7.3921,7.473,7.6003,7.6208,7.6275,7.6275,4.2029,4.2983,4.3534,4.3551,4.4195,4.5002,4.581,4.5957,4.57,4.4892,4.5443,4.592,4.5883,4.6526,4.7296,4.8049,4.8086,4.7021,4.4581,4.1515,4.1442,4.5223,3.7147,3.5202,4.0933,3.4859,3.1053,2.988,2.8971,2.8638,2.8875,2.8064,2.8638,3.0623,3.5506,3.8197,3.9384,4.3367,4.7417,5.1009,4.9442,5.1238,5.4562,0.0,5.2537,5.5403,5.5403,0.0,0.0,5.2575,5.1637,0.0,0.0,0.0,0.0,0.0,0.0,0.0,4.5186,4.4485,4.3568,3.691,3.5916,3.5488,3.13,0.0,3.5954,0.0,0.0,0.0,0.0,0.0,0.0,0.0,0.0,0.0,0.0,0.0,0.0,0.0,0.0,0.0,0.0,4.8984,4.9725,0.0,5.3858,5.4815,6.167,6.3526,6.4396,6.4396,6.5953,6.6822,6.6858,6.838,6.9207,6.9279,7.077,7.1494,7.1494,7.1494,7.1494,7.1494,7.1494,7.1494,7.1494,7.1494,7.2472,7.3921,7.3921,7.4426,7.5227,7.6038,7.6275,7.6275,4.2103,4.2947,4.3515,4.3515,4.3277,4.3571,4.4892,4.5553,4.581,4.5516,4.6214,4.6672,4.6672,4.7406,4.8012,4.8269,4.8306,4.7278,4.4838,4.3167,4.2396,4.2727,3.882,3.7389,3.9041,3.5404,3.2582,3.0747,2.9437,2.8866,2.8982,2.8658,2.9461,3.1384,3.6378,3.9976,4.2517,4.5621,4.8105,0.0,0.0,5.0627,5.2957,0.0,5.4409,5.5403,5.5403,5.5403,0.0,5.4409,5.302,5.1767,5.2647,5.1201,4.9367,5.0144,4.9789,4.887,4.7707,4.8793,4.864,4.1915,4.0836,3.9766,3.331,0.0,0.0,0.0,0.0,0.0,0.0,0.0,0.0,0.0,0.0,0.0,0.0,0.0,0.0,0.0,0.0,0.0,0.0,0.0,0.0,0.0,5.5647,0.0,6.1887,6.3075,6.3852,6.4359,6.5446,6.6279,6.6786,6.7873,6.8669,6.9207,7.0263,7.1024,7.1494,7.1494,7.1494,7.1494,7.1494,7.1494,7.1494,7.1494,7.2472,7.3921,7.3921,7.439,7.5118,7.5442,7.5155,7.4784,4.214,4.2269,4.2509,4.2981,4.2653,4.2763,4.4085,4.4966,4.548,4.548,4.6177,4.6782,4.7076,4.7553,4.7993,4.8269,4.8306,4.7535,4.5682,4.4525,4.3718,4.326,4.1132,4.0191,4.0649,3.8004,3.5593,3.354,3.1936,3.1023,3.0797,3.0118,3.0609,3.2182,3.569,3.9593,4.3739,4.626,4.8907,0.0,0.0,5.2002,0.0,0.0,5.483,5.418,0.0,5.5403,5.5403,5.5403,5.4333,5.3263,5.4868,5.3136,5.0844,5.2461,5.1799,5.0512,5.0436,5.1353,5.1047,4.5507,4.4429,4.2971,3.632,3.7119,3.8795,0.0,0.0,0.0,0.0,0.0,0.0,0.0,0.0,0.0,0.0,0.0,0.0,0.0,0.0,0.0,0.0,0.0,0.0,0.0,0.0,0.0,0.0,6.2849,6.3563,6.4359,6.4903,6.57,6.6786,6.7329,6.7981,6.8778,6.9865,7.048,7.0698,7.1241,7.135,7.1132,7.1386,7.1494,7.1494,7.1494,7.2472,7.3921,7.3921,7.4218,7.4677,7.5009,7.4565,7.401,4.1993,4.1067,4.077,4.2092,4.2299,4.2557,4.3419,4.4174,4.4725,4.4798,4.5497,4.6305,4.7113,4.7187,4.7498,4.8233,4.8306,4.7976,4.7223,4.5682,4.5498,4.7076,4.4158,4.3483,4.5625,4.2364,3.9754,3.7934,3.6094,3.4818,3.4057,3.2366,3.1969,3.2781,3.3716,3.7356,4.2985,4.5507,4.9977,5.5403,5.5403,5.5326,5.525,5.5365,5.3836,5.1914,5.4486,5.5403,5.5403,5.5403,5.5403,5.5403,5.5403,5.5403,5.5403,5.5403,5.5403,5.5059,5.3416,5.2422,5.1047,4.7646,4.649,4.4928,4.003,4.1757,4.3971,0.0,0.0,0.0,0.0,0.0,0.0,0.0,0.0,0.0,0.0,0.0,0.0,0.0,0.0,0.0,0.0,0.0,0.0,0.0,0.0,0.0,0.0,6.2595,6.3309,6.4287,6.4323,6.512,6.6714,6.675,6.7155,6.7957,6.9575,6.9937,6.9255,7.077,7.106,7.0444,7.1096,7.1422,7.1458,7.1458,7.2436,7.3888,7.3856,7.3833,7.3838,7.4602,7.4414,7.3891,4.1179,4.1276,4.1771,4.272,4.2393,4.2468,4.3968,4.4341,4.4939,4.6171,4.7046,4.7756,4.8286,4.8362,4.8365,4.8288,4.8306,4.8233,4.8012,4.7039,4.6929,4.7976,4.6067,4.5443,4.6465,4.3212,4.0875,3.9656,3.6692,3.4879,3.4096,3.2986,3.2237,3.1962,3.4641,3.8438,4.2985,4.6156,5.055,5.5403,5.5403,5.4256,5.2792,0.0,5.3836,5.1914,5.4486,5.5403,5.5403,5.5403,5.5403,5.5403,5.5403,5.5403,5.5403,5.5403,5.5403,5.5441,5.5594,5.5479,5.4639,5.1888,4.9987,4.7842,4.402,4.4667,4.5799,0.0,0.0,0.0,0.0,0.0,0.0,0.0,0.0,0.0,0.0,0.0,0.0,0.0,0.0,0.0,0.0,0.0,0.0,0.0,0.0,0.0,0.0,0.0,5.9579,6.3382,6.349,6.4287,6.5881,6.5917,6.6332,6.7199,6.8744,6.943,6.9311,7.0225,7.0553,7.0403,6.9973,7.0118,7.0661,7.0661,7.1965,7.3856,7.3249,7.2924,7.2825,7.2398,7.2133,7.2156,4.2241,4.3085,4.378,4.3391,4.3341,4.3756,4.4814,4.5261,4.5824,4.6801,4.7928,4.8602,4.8492,4.8678,4.8711,4.855,4.8364,4.8159,4.7773,4.7663,0.0,4.7773,4.7241,4.7255,4.7883,4.5715,0.0,4.1944,3.8979,3.6509,3.4603,3.2996,3.1979,3.1589,3.4243,3.7559,4.1495,4.7101,5.1111,5.3836,5.4944,5.4562,0.0,5.4855,5.4524,5.3454,5.4906,5.5403,5.5403,5.5403,5.5403,5.5403,5.5403,5.5403,5.5403,5.5403,5.5403,5.5594,5.6358,5.632,5.5823,5.4715,5.3463,5.159,4.8098,4.8018,4.8505,0.0,4.8393,4.889,0.0,0.0,0.0,0.0,0.0,0.0,0.0,0.0,0.0,0.0,0.0,0.0,0.0,0.0,0.0,0.0,0.0,0.0,0.0,0.0,5.8746,6.3563,6.2693,6.3125,6.5136,6.4459,6.4522,6.5417,6.6981,6.7719,6.7761,6.8902,6.9399,6.9358,6.9243,6.9678,7.0372,7.0372,7.1567,7.3353,7.2834,7.2594,7.2406,7.1634,7.1515,7.1954,4.4312,4.543,4.5835,4.4273,4.4778,4.5605,4.607,4.6629,4.7066,4.7179,4.8497,4.9145,4.8408,4.8637,4.885,4.8799,4.8495,4.8012,4.7296,4.7883,4.7993,4.7296,4.792,4.8604,4.9302,4.8386,4.6615,0.0,4.1476,3.8465,3.4948,3.2806,3.1721,3.1599,3.3356,3.6337,4.0501,4.8181,5.1684,5.2296,5.4524,5.5403,5.5403,5.5403,5.5403,5.5403,5.5403,5.5403,5.5403,5.5403,5.5403,5.5403,5.5403,5.5403,5.5403,5.5403,5.5403,5.5556,5.6243,5.5938,5.5556,5.6282,5.6126,5.5019,5.1811,5.1361,5.1547,5.1323,4.9534,4.9424,5.3959,0.0,0.0,0.0,0.0,0.0,0.0,0.0,0.0,0.0,0.0,0.0,0.0,0.0,0.0,0.0,0.0,0.0,0.0,0.0,5.8565,6.3925,6.2041,6.1981,6.4117,6.2913,6.2581,6.3235,6.4987,6.5718,6.5617,6.7135,6.7812,6.7897,6.8584,6.9405,7.0227,7.0366,7.1286,7.2686,7.2533,7.2499,7.2406,7.1634,7.1785,7.2496,4.5927,4.5774,4.5611,4.596,4.6173,4.6773,4.8269,4.8017,4.7903,4.8638,4.9541,4.9949,4.9559,4.9333,4.9097,4.8833,4.8495,4.8233,4.8122,4.8233,4.8233,4.8122,4.8233,4.8604,4.9302,4.7808,4.5708,0.0,4.1216,3.7887,3.3233,3.3455,3.2821,3.1599,3.3968,3.8782,4.543,4.9022,5.2155,5.4791,5.5212,5.5403,5.5403,5.5403,5.5403,5.5403,5.5403,5.5403,5.5403,5.5403,5.5403,5.5403,5.5403,5.5403,5.5403,5.5403,5.5403,5.5441,5.5556,5.5517,5.5441,5.5556,5.5289,5.4791,5.3854,5.3438,5.3363,5.3676,5.3408,5.2637,5.0969,0.0,0.0,0.0,0.0,0.0,0.0,0.0,0.0,0.0,0.0,0.0,0.0,0.0,0.0,0.0,0.0,0.0,0.0,0.0,5.4121,0.0,6.2014,6.1764,0.0,0.0,6.2605,6.1639,6.4463,6.5478,6.4908,6.5794,6.6518,6.7103,6.7243,6.8098,6.9461,7.0118,7.1323,7.262,7.1901,7.1967,7.2406,7.1634,7.1785,7.2496,4.65,4.7264,4.7723,4.7264,4.7876,4.8602,4.9033,4.9098,4.9098,4.9098,4.9786,5.0083,4.9504,4.9334,4.924,4.9064,4.8586,4.8306,4.8306,4.8306,4.8306,4.8306,4.8306,4.8604,4.9302,4.8498,4.6577,4.3435,4.1724,3.8359,3.3394,3.2928,3.227,3.1637,3.5908,4.0348,4.4857,4.9175,5.1926,5.3531,5.4868,5.5403,5.5403,5.5403,5.5403,5.5403,5.5403,5.5403,5.5403,5.5403,5.5403,5.5403,5.5403,5.5403,5.5403,5.5403,5.5403,5.5403,5.5403,5.5403,5.5403,5.5403,5.5099,5.4716,5.4364,5.3998,5.3696,5.375,5.4106,5.3408,5.0198,4.6581,0.0,0.0,0.0,0.0,0.0,0.0,0.0,0.0,0.0,0.0,0.0,0.0,0.0,0.0,0.0,0.0,0.0,0.0,5.3435,0.0,0.0,0.0,6.0595,0.0,6.1293,6.0677,6.2967,6.4048,6.4085,6.4452,6.5023,6.5707,6.5707,6.6581,6.809,6.9267,7.0416,7.1361,7.092,7.124,7.183,7.1412,7.1548,7.1954,4.7455,4.8793,4.9748,4.8781,4.9557,5.0206,4.995,5.0397,5.0474,4.948,4.9901,5.0054,4.9404,4.9397,4.9409,4.9409,4.8816,4.842,4.842,4.8344,4.8306,4.8306,4.8306,4.8604,4.9302,4.9317,4.7672,0.0,0.0,3.9355,3.4235,3.2898,3.2554,3.3234,3.8124,4.1829,4.4704,4.9366,5.1723,5.2563,5.46,5.5403,5.5403,5.5403,5.5403,5.5403,5.5403,5.5403,5.5403,5.5403,5.5403,5.5403,5.5403,5.5403,5.5403,5.5403,5.5403,5.5403,5.5403,5.5403,5.5403,5.5403,5.5099,5.4716,5.4364,5.3998,5.3585,5.3272,5.3702,5.3151,4.9921,4.7407,0.0,0.0,0.0,0.0,0.0,0.0,0.0,0.0,0.0,0.0,0.0,0.0,0.0,0.0,0.0,0.0,0.0,0.0,0.0,0.0,0.0,5.9006,5.8908,0.0,6.0138,5.9877,6.1569,6.2697,6.3271,6.3271,6.3679,6.4358,6.4568,6.5584,6.7234,6.842,6.9544,7.0419,7.0086,7.0627,7.1546,7.1356,7.1312,7.1413,4.9977,4.9557,4.9633,5.1009,5.0741,5.0779,5.2231,5.2499,5.2002,5.0397,5.0245,5.0283,5.0206,4.9911,4.9762,4.9762,4.9145,4.8746,4.8746,4.8458,4.8306,4.8306,4.8306,4.8604,4.9302,4.9317,4.7937,0.0,0.0,4.0798,3.5076,3.4923,3.6069,3.8362,3.969,4.3749,4.9633,5.0206,5.2231,5.5059,5.5288,5.5403,5.5403,5.5403,5.5403,5.5403,5.5403,5.5403,5.5403,5.5403,5.5403,5.5403,5.5403,5.5403,5.5403,5.5403,5.5403,5.5403,5.5403,5.5403,5.5403,5.5403,5.5099,5.4716,5.4364,5.3998,5.3585,5.3272,5.324,5.2307,4.904,5.1132,5.1463,0.0,0.0,0.0,0.0,0.0,0.0,0.0,0.0,0.0,0.0,0.0,0.0,0.0,0.0,0.0,0.0,0.0,0.0,5.787,5.7061,5.6075,5.5038,5.9047,6.0448,5.9133,6.1332,6.242,6.2498,6.2498,6.2928,6.3641,6.4369,6.5955,6.8006,6.8096,6.9389,7.1249,6.978,7.0533,7.2279,7.159,7.1312,7.1312,5.0709,5.0659,5.0818,5.1467,5.1697,5.204,5.269,5.2805,5.2537,5.1888,5.1391,5.0894,5.0359,5.0012,4.9803,4.9803,4.9177,4.8799,4.8799,4.8477,4.8306,4.8306,4.8306,4.8532,4.8982,4.9209,4.8155,0.0,0.0,4.1753,3.7483,3.8009,3.9613,4.2135,4.501,4.7799,5.0436,5.2499,5.4142,5.5403,5.5403,5.5403,5.5403,5.5403,5.5403,5.5403,5.5403,5.5403,5.5403,5.5403,5.5403,5.5403,5.5403,5.5403,5.5403,5.5403,5.5403,5.5403,5.5403,5.5403,5.5364,5.5113,5.4784,5.4413,5.4034,5.3661,5.3359,5.3209,5.3203,5.2821,5.1479,5.0986,5.0545,4.9901,0.0,0.0,0.0,0.0,0.0,0.0,0.0,0.0,0.0,0.0,0.0,0.0,0.0,0.0,0.0,0.0,0.0,5.2644,0.0,5.6982,5.3915,5.8315,6.0245,5.9674,6.1501,6.2381,6.2381,6.2381,6.2576,6.2919,6.4113,6.5128,6.6092,6.6929,6.783,6.8726,6.9008,6.9635,7.0549,7.1107,7.1312,7.1312,5.105,5.1497,5.1964,5.1964,5.2614,5.3263,5.3531,5.3569,5.3454,5.3225,5.2461,5.162,5.0779,5.024,4.9974,4.9974,4.9333,4.8932,4.8932,4.855,4.8306,4.8306,4.8306,0.0,4.8799,4.9031,4.8521,4.7213,4.5943,4.3933,4.1227,4.1332,4.2975,4.5993,4.8984,5.0856,5.1964,5.4371,5.5403,5.5403,5.5403,5.5403,5.5403,5.5403,5.5403,5.5403,5.5403,5.5403,5.5403,5.5403,5.5403,5.5403,5.5403,5.5403,5.5403,5.5403,5.5403,5.5403,5.5403,5.5403,5.5286,5.4918,5.4544,5.4193,5.3795,5.3461,5.3203,5.3203,5.3203,5.3203,5.3203,5.1316,5.0288,5.1867,0.0,0.0,0.0,5.484,0.0,0.0,5.4019,5.2322,5.1782,0.0,0.0,0.0,0.0,0.0,0.0,0.0,0.0,0.0,0.0,0.0,5.3518,5.7679,5.9776,5.981,6.1332,6.2076,6.2076,6.2279,6.2381,6.2482,6.3971,6.4613,6.4715,6.6203,6.6812,6.6914,6.7996,6.8707,6.9214,7.0263,7.0939,7.1312,5.1164,5.1954,5.2805,5.2805,5.3492,5.4371,5.525,5.5365,5.5059,5.4218,5.3339,5.2461,5.1658,5.0806,5.0271,5.0271,4.9669,4.9302,4.9302,4.8676,4.8306,4.8306,4.8306,4.8458,4.8799,4.8799,4.9129,4.9765,0.0,4.7808,4.6385,4.4732,4.6184,5.0245,5.0283,5.2193,5.5326,5.5403,5.5403,5.5403,5.5403,5.5403,5.5403,5.5403,5.5403,5.5403,5.5403,5.5403,5.5403,5.5403,5.5403,5.5403,5.5403,5.5403,5.5403,5.5403,5.5403,5.5403,5.5403,5.5403,5.5286,5.4918,5.4544,5.4193,5.3795,5.3461,5.3203,5.3203,5.3203,5.3203,5.3203,5.3167,5.238,5.0014,0.0,0.0,0.0,5.1353,0.0,0.0,4.4949,4.3066,5.0851,0.0,0.0,0.0,0.0,0.0,0.0,0.0,0.0,5.5296,5.5308,0.0,5.3518,5.7171,5.9032,5.9032,6.0588,6.1332,6.1332,6.2076,6.2381,6.2482,6.3971,6.4613,6.4715,6.6203,6.6812,6.6812,6.6846,6.776,6.9113,6.9113,7.006,7.1312,5.1581,5.2029,5.2346,5.2042,5.2652,5.3301,5.3569,5.3415,5.3408,5.3736,5.2976,5.2596,5.2924,5.1383,5.0283,5.0283,4.9884,4.9541,4.9333,4.8902,4.855,4.8306,4.8306,4.8363,4.8458,4.8898,4.9556,5.0335,0.0,4.9284,4.9965,4.9431,5.0818,5.3798,5.3798,5.4371,5.5403,5.5403,5.5403,5.5403,5.5403,5.5403,5.5403,5.5403,5.5403,5.5403,5.5403,5.5403,5.5403,5.5403,5.5403,5.5403,5.5403,5.5403,5.5403,5.5403,5.5403,5.5403,5.5403,5.5219,5.4918,5.4544,5.4176,5.3795,5.344,5.3272,5.3203,5.3203,5.3203,5.3203,5.3203,5.3203,5.2968,5.2197,5.3151,5.4106,5.4399,0.0,5.4987,5.5244,5.2797,5.212,0.0,4.8971,0.0,0.0,0.0,0.0,0.0,0.0,0.0,0.0,5.5235,0.0,5.2706,5.69,5.9032,5.9032,6.0013,6.0757,6.1332,6.2042,6.2381,6.2482,6.3971,6.4613,6.4715,6.6203,6.6508,6.6102,6.6609,6.7421,6.8335,6.891,7.0026,7.1312,5.2131,5.2655,5.303,5.2424,5.2983,5.3568,5.3568,5.3281,5.3263,5.3776,5.3112,5.2817,5.3489,5.2077,5.0964,5.0806,5.006,4.9527,4.9333,4.8885,4.8514,4.8306,4.8306,4.8306,4.8306,4.8711,4.9475,5.061,5.0836,5.1697,5.3034,5.3034,5.3874,5.5403,5.5403,5.5403,5.5403,5.5403,5.5403,5.5403,5.5403,5.5403,5.5403,5.5403,5.5403,5.5403,5.5403,5.5403,5.5403,5.5403,5.5403,5.5377,5.5233,5.5273,5.5403,5.5403,5.5403,5.5377,5.5233,5.499,5.4685,5.421,5.3888,5.3604,5.3272,5.3203,5.3203,5.3203,5.3203,5.3203,5.3203,5.3203,5.3203,5.3203,5.3628,5.4216,5.5023,5.5574,5.5464,0.0,0.0,0.0,0.0,5.1304,5.0156,0.0,0.0,0.0,0.0,0.0,5.1564,5.1521,5.6033,5.6884,5.3619,5.69,5.8592,5.8592,5.9607,6.052,6.1332,6.2042,6.2381,6.2448,6.3666,6.4343,6.4681,6.5899,6.6102,6.5696,6.5899,6.6609,6.7557,6.8064,6.935,7.0939,5.2753,5.3754,5.4466,5.361,5.4193,5.4761,5.4761,5.4479,5.4245,5.4245,5.3587,5.3193,5.352,5.2859,5.224,5.1825,5.0354,4.9401,4.9317,4.8729,4.8363,4.8306,4.8306,4.8306,4.8306,4.84,4.923,5.0823,5.3107,5.46,5.5403,5.5403,5.5403,5.5403,5.5403,5.5403,5.5403,5.5403,5.5403,5.5403,5.5403,5.5403,5.5403,5.5403,5.5403,5.5403,5.5403,5.5403,5.5403,5.5403,5.5403,5.5313,5.4962,5.5085,5.5364,5.5351,5.5351,5.5273,5.4889,5.4746,5.4538,5.3851,5.3682,5.3565,5.3272,5.3203,5.3203,5.3203,5.3203,5.3203,5.3203,5.3203,5.3203,5.3203,5.324,5.3555,5.4289,5.4436,5.3335,5.0308,0.0,0.0,5.0764,5.0648,5.2336,0.0,0.0,0.0,0.0,0.0,5.0796,5.6457,5.7289,5.7021,5.5716,5.7103,5.7848,5.7915,5.9404,6.0486,6.1231,6.2042,6.2381,6.2415,6.3193,6.3937,6.4647,6.5392,6.573,6.5696,6.4952,6.5595,6.688,6.688,6.8301,7.0297,5.3401,5.3721,5.379,5.3224,5.3783,5.4347,5.4347,5.4052,5.3833,5.3833,5.3918,5.4013,5.4096,5.3841,5.3608,5.3518,5.2006,5.0564,4.9386,4.9161,4.8813,4.8325,4.8306,4.8306,4.8306,4.9465,5.1117,5.3274,5.4498,5.5212,5.5403,5.5403,5.5403,5.5403,5.5403,5.5403,5.5403,5.5403,5.5403,5.5403,5.5403,5.5403,5.5403,5.5403,5.5403,5.5403,5.5403,5.5403,5.5403,5.5403,5.5403,5.539,5.5286,5.5113,5.4903,5.4645,5.4754,5.4874,5.4511,5.4173,5.3906,5.3758,5.3504,5.3314,5.3246,5.3203,5.3203,5.3203,5.3203,5.3203,5.3203,5.3203,5.3203,5.3203,5.3739,5.4179,5.4363,5.4913,5.4803,5.3408,5.3176,5.3127,5.3324,5.3126,5.2954,0.0,0.0,5.367,5.3085,5.1692,5.2409,5.5731,5.6064,5.6061,5.5681,5.6596,5.734,5.7915,5.9404,6.0216,6.0419,6.1772,6.2381,6.2415,6.3193,6.3937,6.4647,6.5392,6.6034,6.6474,6.573,6.6339,6.7658,6.7658,6.8741,7.0297,5.4474,5.4714,5.4724,5.4466,5.4801,5.5063,5.5063,5.4776,5.4552,5.4552,5.4773,5.5006,5.537,5.5001,5.4724,5.469,5.2654,5.0957,4.9949,4.9386,4.8999,4.8895,4.8893,4.9077,4.9444,5.025,5.1665,5.3651,5.4827,5.5403,5.5403,5.5403,5.5403,5.5403,5.5403,5.5403,5.5403,5.5403,5.5403,5.5403,5.5403,5.5403,5.5403,5.5403,5.5403,5.5403,5.5403,5.5403,5.5403,5.5403,5.5403,5.5377,5.5168,5.4976,5.47,5.4193,5.4296,5.4495,5.4141,5.387,5.3662,5.3504,5.3318,5.3203,5.3203,5.3203,5.3203,5.3203,5.3203,5.3203,5.3203,5.3203,5.3203,5.3203,5.3592,5.3849,5.3849,5.4216,5.4326,5.3922,5.3784,5.3866,5.4188,5.4009,5.3654,5.3135,5.3472,0.0,5.2888,5.2922,5.3679,5.5105,5.5179,5.5378,5.5681,5.6765,5.7476,5.7915,5.9404,6.0114,6.0148,6.1704,6.2381,6.2415,6.2821,6.3599,6.4647,6.5019,6.5831,6.6745,6.5967,6.6406,6.7455,6.7793,6.8673,6.9857,5.5552,5.6024,5.6199,5.6199,5.631,5.6385,5.6385,5.6166,5.5904,5.5794,5.5824,5.6055,5.6574,5.6046,5.5642,5.5597,5.3248,5.151,5.0986,5.0002,4.9657,5.0144,5.0161,5.0398,5.0986,5.1089,5.1862,5.336,5.4728,5.5403,5.5403,5.5403,5.5403,5.5403,5.5403,5.5403,5.5403,5.5403,5.5403,5.5403,5.5403,5.5403,5.5403,5.5403,5.5403,5.5403,5.5403,5.5403,5.539,5.5313,5.5364,5.5313,5.4933,5.4761,5.4607,5.3961,5.3944,5.4052,5.3701,5.3604,5.3563,5.3272,5.3203,5.3203,5.3203,5.3203,5.3203,5.3203,5.3203,5.3203,5.3203,5.3203,5.3078,5.2711,5.2947,5.3057,5.2711,5.2968,5.3203,5.3203,5.3203,5.3418,5.3968,5.3908,5.4064,5.4652,5.484,5.4666,5.4093,5.4287,5.4415,5.4431,5.4431,5.4837,5.5716,5.7171,5.7881,5.7915,5.9268,5.9979,6.0148,6.1569,6.2279,6.2381,6.2381,6.3159,6.4444,6.4546,6.5392,6.6576,6.6068,6.6237,6.6914,6.7624,6.8402,6.9282,5.615,5.6579,5.6691,5.6691,5.7265,5.7706,5.7706,5.7638,5.7373,5.6712,5.6836,5.6833,5.6231,5.6407,5.6529,5.6483,5.5399,5.4146,5.2703,5.2465,5.2454,5.2621,5.2637,5.238,5.183,5.2437,5.3348,5.4542,5.513,5.5403,5.5403,5.5403,5.5403,5.5403,5.5403,5.5403,5.5403,5.5403,5.5403,5.5403,5.5403,5.5403,5.5403,5.5403,5.5403,5.5403,5.5403,5.5403,5.5364,5.5004,5.5127,5.5313,5.4933,5.4607,5.4347,5.4228,5.3814,5.3375,5.3293,5.3272,5.3272,5.3188,5.3203,5.3203,5.3203,5.3203,5.3203,5.3203,5.3203,5.3203,5.3203,5.3203,5.2527,5.0398,5.183,5.2491,5.0455,5.1903,5.3203,5.3203,5.3203,5.3198,5.3185,5.3054,5.309,5.33,5.3774,5.3898,5.3467,5.4039,5.4175,5.3687,5.3687,5.4329,5.5716,5.7171,5.7881,5.7915,5.8761,5.9505,6.0148,6.1061,6.1806,6.2381,6.2381,6.2888,6.3734,6.4343,6.5087,6.5899,6.644,6.6711,6.6914,6.7624,6.8402,6.9214,5.6456,5.7015,5.7354,5.7423,5.774,5.7997,5.7997,5.7997,5.7886,5.7483,5.7589,5.7624,5.7468,5.7203,5.7098,5.7321,5.6571,5.5694,5.4727,5.385,5.3515,5.3833,5.3849,5.3665,5.3298,5.4019,5.4455,5.4528,5.5099,5.5403,5.5403,5.5403,5.5403,5.5403,5.5403,5.5403,5.5403,5.5403,5.5403,5.5403,5.5403,5.5403,5.5403,5.5403,5.5403,5.5377,5.514,5.5085,5.5004,5.4654,5.4639,5.4769,5.4576,5.4279,5.398,5.398,5.3602,5.3203,5.3203,5.3203,5.3203,5.3203,5.3203,5.3203,5.3203,5.3203,5.3203,5.3203,5.3203,5.3203,5.3203,5.3203,5.2858,5.1683,5.2454,5.2821,5.1683,5.2491,5.3203,5.3203,5.3124,5.306,5.2893,5.2783,5.2733,5.2834,5.3203,5.3372,5.3249,5.3663,5.3783,5.3518,5.4296,5.5006,5.5681,5.7577,5.8287,5.7915,5.9066,5.9776,6.0148,6.0926,6.1704,6.2381,6.2381,6.2821,6.3565,6.4309,6.5019,6.5764,6.6508,6.6812,6.6846,6.7184,6.8064,6.9147,5.652,5.7225,5.7857,5.7973,5.7997,5.7997,5.7997,5.7997,5.7997,5.7997,5.7997,5.8097,5.8434,5.7841,5.7596,5.79,5.7359,5.685,5.6587,5.5397,5.4773,5.4972,5.495,5.4876,5.4693,5.523,5.5105,5.4296,5.5042,5.5403,5.5403,5.5403,5.5403,5.5403,5.5403,5.5403,5.5403,5.5403,5.5403,5.5403,5.5403,5.5403,5.5403,5.5403,5.5364,5.5233,5.4918,5.4746,5.4639,5.4279,5.421,5.4279,5.4193,5.3962,5.3701,5.3701,5.3444,5.3203,5.3203,5.3203,5.3203,5.3203,5.3203,5.3203,5.3203,5.3203,5.3203,5.3203,5.3203,5.3203,5.3203,5.3203,5.3041,5.2454,5.2858,5.3004,5.2454,5.2858,5.3203,5.3203,5.3082,5.2893,5.2649,5.2499,5.239,5.2307,5.2628,5.285,5.2969,5.3309,5.3518,5.3518,5.4938,5.5681,5.5681,5.7746,5.8558,5.8152,5.9302,6.0047,6.0385,6.1028,6.1704,6.2381,6.2381,6.2719,6.3328,6.4241,6.4918,6.5527,6.644,6.6812,6.6779,6.6609,6.7523,6.8808,5.6379,5.7154,5.7857,5.7973,5.7997,5.7997,5.7997,5.7997,5.7997,5.7997,5.7997,5.802,5.8042,5.7969,5.7955,5.8,5.7964,5.7904,5.7859,5.7749,5.7359,5.6638,5.6638,5.6271,5.5537,5.5491,5.5105,5.4296,5.5042,5.5403,5.5403,5.5403,5.5403,5.5403,5.5403,5.5403,5.5403,5.5403,5.5403,5.5403,5.5403,5.5403,5.5403,5.5403,5.5154,5.4836,5.4806,5.4607,5.4279,5.3888,5.3998,5.4228,5.387,5.3739,5.3701,5.3701,5.3444,5.3203,5.3203,5.3203,5.3203,5.3203,5.3203,5.3203,5.3203,5.3203,5.3203,5.3203,5.3203,5.3203,5.3203,5.3203,5.2491,5.0235,5.1756,5.2417,5.0198,5.1793,5.3203,5.3203,5.3082,5.2761,5.2126,5.1946,5.1657,5.1147,5.176,5.2214,5.2364,5.3111,5.3518,5.3518,5.4938,5.5681,5.5681,5.7205,5.8287,5.893,5.9032,5.9844,6.1231,6.1264,6.1704,6.2381,6.2381,6.2415,6.2584,6.4005,6.4647,6.4816,6.6271,6.6812,6.6745,6.6034,6.6711,6.7996,5.6346,5.7036,5.7739,5.7857,5.795,5.7997,5.7997,5.7997,5.7997,5.7997,5.7997,5.7997,5.7997,5.7997,5.7997,5.7997,5.7997,5.7776,5.7299,5.7703,5.785,5.7556,5.7556,5.7152,5.6345,5.6017,5.5604,5.503,5.5027,5.5154,5.5403,5.5403,5.5403,5.5403,5.5403,5.5403,5.5403,5.5403,5.5403,5.5403,5.5403,5.5403,5.5377,5.5127,5.4947,5.4746,5.4276,5.4052,5.387,5.3504,5.3501,5.36,5.344,5.338,5.338,5.338,5.3314,5.3203,5.3203,5.3203,5.3203,5.3203,5.3203,5.3203,5.3203,5.3203,5.3203,5.3203,5.3203,5.3203,5.3203,5.3203,5.2894,5.1977,5.2601,5.2873,5.1977,5.2637,5.3146,5.3082,5.2974,5.259,5.1946,5.218,5.2157,5.1726,5.2394,5.2841,5.3043,5.3348,5.3518,5.3518,5.4938,5.5681,5.5681,5.8084,5.9167,5.9032,5.9979,6.0723,6.1298,6.1298,6.1704,6.2381,6.2381,6.2381,6.2516,6.4005,6.4613,6.4749,6.6237,6.6812,6.6711,6.5967,6.6609,6.7895,5.643,5.7036,5.7715,5.7857,5.795,5.7997,5.7997,5.7997,5.7997,5.7997,5.7997,5.7997,5.7997,5.7997,5.7997,5.7997,5.7997,5.7776,5.7226,5.7703,5.7997,5.7997,5.7997,5.7519,5.6455,5.6446,5.6104,5.5303,5.5103,5.5163,5.5423,5.5157,5.5057,5.5057,5.514,5.514,5.5057,5.5286,5.5351,5.5233,5.5364,5.5403,5.5364,5.4962,5.4731,5.4576,5.3944,5.3624,5.3504,5.3272,5.3203,5.3203,5.3203,5.3203,5.3203,5.3203,5.3203,5.3203,5.3203,5.3203,5.3203,5.3203,5.3203,5.3203,5.3203,5.3203,5.3203,5.3203,5.3203,5.3203,5.3203,5.3203,5.3203,5.3203,5.3408,5.3482,5.3261,5.3366,5.3396,5.3039,5.2717,5.2317,5.1886,5.2272,5.2418,5.2149,5.2875,5.3335,5.3517,5.3518,5.3518,5.3518,5.4938,5.5818,5.6055,5.8524,5.9742,5.9742,6.0791,6.1434,6.1637,6.1637,6.1907,6.2381,6.2381,6.2381,6.2516,6.4005,6.4613,6.4749,6.6237,6.6812,6.6711,6.5967,6.6474,6.7557,5.6726,5.7225,5.7857,5.7973,5.7997,5.7997,5.7997,5.7997,5.7997,5.7997,5.7997,5.7997,5.7997,5.7997,5.7997,5.7997,5.7997,5.7997,5.7997,5.7997,5.7997,5.7997,5.7997,5.7262,5.5669,5.6721,5.654,5.4926,5.5322,5.5518,5.548,5.4692,5.4334,5.4313,5.4654,5.4607,5.433,5.5071,5.5154,5.4821,5.5246,5.539,5.5364,5.4947,5.4591,5.4228,5.3851,5.3464,5.3203,5.3203,5.3203,5.3203,5.3203,5.3203,5.3203,5.3203,5.3203,5.3203,5.3203,5.3203,5.3203,5.3203,5.3203,5.3203,5.3203,5.3203,5.3203,5.3203,5.3203,5.3203,5.3203,5.3203,5.3203,5.3203,5.3885,5.4106,5.3314,5.3778,5.3895,5.309,5.2278,5.1826,5.1996,5.208,5.2152,5.2332,5.3044,5.3518,5.3518,5.3518,5.3518,5.3518,5.4938,5.6089,5.6799,5.8287,5.9776,6.1298,6.1298,6.167,6.2381,6.2381,6.2381,6.2381,6.2381,6.2381,6.2516,6.4005,6.458,6.4749,6.6237,6.6812,6.6711,6.5967,6.617,6.6812,5.7315,5.758,5.7834,5.7857,5.795,5.7997,5.7997,5.7997,5.7997,5.7997,5.7997,5.7997,5.7997,5.7997,5.7997,5.7997,5.7997,5.7997,5.7997,5.7997,5.7997,5.7997,5.7997,5.7776,5.7299,5.7066,5.682,5.6577,5.6159,5.5772,5.548,5.5255,5.4842,5.4296,5.4397,5.4397,5.4313,5.4799,5.4918,5.4821,5.5246,5.5233,5.4947,5.4576,5.4228,5.3833,5.3501,5.3293,5.3203,5.3203,5.3203,5.3203,5.3203,5.3203,5.3203,5.3203,5.3203,5.3203,5.3203,5.3203,5.3203,5.3203,5.3203,5.3203,5.3203,5.3203,5.3203,5.3203,5.3203,5.3203,5.3203,5.3203,5.3203,5.3203,5.3387,5.3665,5.3995,5.3631,5.3434,5.3675,5.2593,5.1836,5.1931,5.2507,5.2941,5.3111,5.3686,5.4056,5.4056,5.355,5.3551,5.4022,5.5139,5.6562,5.8355,5.9302,6.0283,6.1298,6.1806,6.2178,6.2381,6.2381,6.2381,6.2381,6.2381,6.2381,6.2448,6.3429,6.414,6.4681,6.5662,6.6339,6.6779,6.6542,6.6609,6.688,5.7631,5.781,5.7881,5.7881,5.795,5.7997,5.7997,5.7997,5.7997,5.7997,5.7997,5.7997,5.7997,5.7997,5.7997,5.7997,5.7997,5.7997,5.7997,5.7997,5.7997,5.7997,5.7997,5.785,5.7519,5.7373,5.7214,5.7106,5.6626,5.6253,5.601,5.5694,5.5099,5.4354,5.4484,5.4279,5.3907,5.4397,5.4528,5.4392,5.4814,5.4829,5.456,5.421,5.3925,5.3643,5.3334,5.3203,5.3203,5.3203,5.3203,5.3203,5.3203,5.3203,5.3203,5.3203,5.3203,5.3203,5.3203,5.3203,5.3203,5.3203,5.3203,5.3203,5.3203,5.3203,5.3203,5.3203,5.3203,5.3203,5.3203,5.3203,5.3203,5.3203,5.3482,5.3717,5.3821,5.3566,5.3419,5.3453,5.2197,5.1608,5.2277,5.2619,5.3236,5.4159,5.4464,5.4566,5.4497,5.3856,5.3856,5.4601,5.531,5.6765,5.8998,5.9742,6.0655,6.1738,6.2178,6.2381,6.2381,6.2381,6.2381,6.2381,6.2381,6.2381,6.2448,6.3193,6.3937,6.4647,6.5087,6.5899,6.6779,6.6474,6.6542,6.688,5.7763,5.7881,5.7973,5.7973,5.7973,5.7997,5.7997,5.7997,5.7997,5.7997,5.7997,5.7997,5.7997,5.7997,5.7997,5.7997,5.7997,5.7997,5.7997,5.7997,5.7997,5.7997,5.7997,5.7666,5.6932,5.7629,5.7629,5.6932,5.6932,5.6859,5.6785,5.6051,5.528,5.4531,5.4744,5.4297,5.334,5.3963,5.4034,5.3739,5.4141,5.4262,5.4193,5.3851,5.3682,5.3604,5.3314,5.3203,5.3203,5.3203,5.3203,5.3203,5.3203,5.3203,5.3203,5.3203,5.3203,5.3203,5.3203,5.3203,5.3203,5.3203,5.3203,5.3203,5.3203,5.3203,5.3203,5.3203,5.3203,5.3203,5.3203,5.3203,5.3203,5.3203,5.3791,5.3989,5.3222,5.3529,5.3599,5.2795,5.149,5.1302,5.2825,5.2732,5.3348,5.5331,5.5348,5.5144,5.4873,5.4427,5.4457,5.5177,5.5587,5.6835,5.9099,5.9776,6.0858,6.2381,6.2381,6.2381,6.2381,6.2381,6.2381,6.2381,6.2381,6.2381,6.2448,6.3125,6.3835,6.4512,6.458,6.5459,6.6643,6.6,6.6203,6.6812,5.7607,5.7655,5.7739,5.7834,5.7857,5.7881,5.7973,5.7997,5.7997,5.7997,5.7997,5.7997,5.7997,5.7997,5.7997,5.7997,5.7997,5.7997,5.7997,5.7997,5.7997,5.7997,5.7997,5.7923,5.774,5.7923,5.7923,5.774,5.774,5.7409,5.6822,5.6638,5.6124,5.5339,5.4764,5.4375,5.4148,5.392,5.3777,5.3739,5.4141,5.4105,5.3833,5.3739,5.3543,5.3314,5.3209,5.3203,5.3203,5.3203,5.3203,5.3203,5.3203,5.3203,5.3203,5.3203,5.3203,5.3203,5.3203,5.3203,5.3203,5.3203,5.3203,5.3203,5.3203,5.3203,5.3203,5.3203,5.3203,5.3203,5.3203,5.3203,5.3203,5.3203,5.325,5.3441,5.3895,5.3353,5.3072,5.3558,5.1805,5.1137,5.2619,5.3814,5.4919,5.5953,5.6286,5.6126,5.5481,5.5442,5.5505,5.5689,5.6166,5.7533,5.9844,6.0013,6.0858,6.2381,6.2381,6.2381,6.2381,6.2381,6.2381,6.2381,6.2381,6.2381,6.2415,6.255,6.3057,6.3802,6.4377,6.5155,6.5967,6.6406,6.6677,6.6812,5.7486,5.7534,5.7631,5.7786,5.781,5.7857,5.7973,5.7997,5.7997,5.7997,5.7997,5.7997,5.7997,5.7997,5.7997,5.7997,5.7997,5.7997,5.7997,5.7997,5.7997,5.7997,5.7997,5.7997,5.7997,5.7997,5.7997,5.7997,5.7997,5.7776,5.7373,5.7373,5.6932,5.6161,5.5824,5.522,5.4433,5.426,5.3973,5.3622,5.3739,5.3682,5.3524,5.3464,5.3339,5.3203,5.3203,5.3203,5.3203,5.3203,5.3203,5.3298,5.3665,5.3518,5.3277,5.3665,5.3518,5.3203,5.3203,5.3203,5.3203,5.3203,5.3203,5.3203,5.3203,5.3203,5.3203,5.3203,5.3203,5.3203,5.3203,5.3203,5.3203,5.3203,5.3082,5.3105,5.3478,5.2867,5.2589,5.2989,5.144,5.0691,5.1641,5.3484,5.495,5.5869,5.6704,5.6987,5.647,5.6264,5.645,5.6992,5.7089,5.8416,6.1114,6.0789,6.1576,6.3422,6.2736,6.2381,6.2381,6.2381,6.2381,6.2381,6.2381,6.2381,6.2381,6.2381,6.2821,6.3565,6.3937,6.4749,6.573,6.6136,6.6508,6.6812,5.7363,5.7437,5.7559,5.7763,5.7763,5.781,5.7973,5.7973,5.7973,5.7997,5.7997,5.7997,5.7997,5.7997,5.7997,5.7997,5.7997,5.7997,5.7997,5.7997,5.7997,5.7997,5.7997,5.7997,5.7997,5.7997,5.7997,5.7997,5.7997,5.7997,5.7997,5.7997,5.7689,5.7028,5.703,5.6227,5.4981,5.4937,5.4461,5.3702,5.358,5.3429,5.3297,5.3251,5.3188,5.3225,5.3188,5.3188,5.3203,5.3203,5.3203,5.3314,5.3995,5.3739,5.3335,5.3995,5.3739,5.3167,5.3146,5.3182,5.3182,5.3182,5.3124,5.3124,5.3203,5.3203,5.3203,5.3203,5.3203,5.3203,5.3203,5.3203,5.3203,5.3146,5.306,5.2915,5.2783,5.2454,5.2173,5.1993,5.0873,5.0206,5.0392,5.2532,5.4349,5.5411,5.6884,5.7633,5.7409,5.7228,5.7499,5.8172,5.8099,5.9425,6.2283,6.171,6.2475,6.4601,6.3233,6.2615,6.2615,6.2459,6.2381,6.2381,6.2381,6.2381,6.2381,6.2381,6.2753,6.3362,6.3599,6.4444,6.5527,6.5797,6.6271,6.6812,5.7213,5.7239,5.7313,5.7559,5.751,5.7559,5.795,5.7904,5.7881,5.7973,5.7997,5.7997,5.7997,5.7997,5.7997,5.7997,5.7997,5.7997,5.7997,5.7997,5.7997,5.7997,5.7997,5.7997,5.7997,5.7997,5.7997,5.7997,5.7997,5.7997,5.7997,5.7997,5.8029,5.7972,5.7295,5.6934,5.6783,5.6029,5.5274,5.4515,5.4449,5.3981,5.3318,5.3297,5.3272,5.3225,5.3256,5.3272,5.3203,5.3203,5.3203,5.3203,5.3335,5.3277,5.3203,5.3335,5.3277,5.3167,5.306,5.3039,5.3039,5.3039,5.2915,5.2893,5.3161,5.3203,5.3203,5.3203,5.3203,5.3203,5.3203,5.3203,5.3146,5.306,5.2893,5.2783,5.2635,5.2513,5.2209,5.1479,5.0673,4.9965,4.9393,5.1848,5.3759,5.4425,5.6845,5.8049,5.7412,5.8708,5.9076,5.8237,5.9047,6.0423,6.2283,6.2219,6.299,6.4601,6.3752,6.3346,6.3346,6.2697,6.2381,6.2381,6.2381,6.2381,6.2381,6.2381,6.2448,6.2685,6.3937,6.458,6.4884,6.6203,6.6711,6.6812,5.7188,5.7188,5.7264,5.7437,5.7437,5.751,5.7857,5.7857,5.7857,5.7973,5.7997,5.7997,5.7997,5.7997,5.7997,5.7997,5.7997,5.7997,5.7997,5.7997,5.7997,5.7997,5.7997,5.7997,5.7997,5.7997,5.7997,5.7997,5.7997,5.7997,5.7997,5.8065,5.8133,5.8179,5.7943,5.7624,5.7223,5.6936,5.6327,5.5549,5.4983,5.4494,5.4047,5.3584,5.3339,5.3235,5.3297,5.3272,5.3203,5.3203,5.3203,5.3277,5.3739,5.3555,5.3277,5.3739,5.3512,5.3082,5.3039,5.2937,5.2872,5.2872,5.2828,5.285,5.306,5.3082,5.3103,5.3167,5.3203,5.3203,5.3203,5.3203,5.3292,5.3624,5.3164,5.2907,5.3231,5.2687,5.1835,5.0581,4.9909,4.9575,4.9691,5.1612,5.3492,5.4969,5.7328,5.8422,5.7816,5.8844,5.9314,5.8984,5.9446,6.0719,6.2784,6.2432,6.3011,6.4536,6.3399,6.3083,6.3459,6.2736,6.2381,6.2381,6.2381,6.2381,6.2381,6.2381,6.2618,6.3125,6.4174,6.5121,6.5933,6.6576,6.6812,6.6812]}]]